<?xml version="1.0" encoding="UTF-8" standalone="no" ?>
<gpx xmlns="http://www.topografix.com/GPX/1/1" xmlns:xsi="http://www.w3.org/2001/XMLSchema-instance" xsi:schemaLocation="http://www.topografix.com/GPX/1/1 http://www.topografix.com/GPX/1/1/gpx.xsd" version="1.1" creator="VisuGPX - https://www.visugpx.com">
  <metadata>
    <name>Aniane et alontours</name>
    <desc><![CDATA[Montées sur piste, descentes sur single]]></desc>
  </metadata>
  <trk>
    <name><![CDATA[aniane la boissiere puechabon aniane]]></name>
    <trkseg>
      <trkpt lat="43.68579" lon="3.58436">
        <ele>66</ele>
      </trkpt>
      <trkpt lat="43.68565" lon="3.58561">
        <ele>66.5</ele>
      </trkpt>
      <trkpt lat="43.68556" lon="3.58564">
        <ele>66.3</ele>
      </trkpt>
      <trkpt lat="43.68566" lon="3.58625">
        <ele>68.5</ele>
      </trkpt>
      <trkpt lat="43.68559" lon="3.58709">
        <ele>69</ele>
      </trkpt>
      <trkpt lat="43.68544" lon="3.58765">
        <ele>70.2</ele>
      </trkpt>
      <trkpt lat="43.68527" lon="3.58828">
        <ele>71.8</ele>
      </trkpt>
      <trkpt lat="43.68512" lon="3.58874">
        <ele>73.1</ele>
      </trkpt>
      <trkpt lat="43.68505" lon="3.58892">
        <ele>73.5</ele>
      </trkpt>
      <trkpt lat="43.685" lon="3.58905">
        <ele>73.6</ele>
      </trkpt>
      <trkpt lat="43.68489" lon="3.58926">
        <ele>74.8</ele>
      </trkpt>
      <trkpt lat="43.68481" lon="3.58943">
        <ele>75.2</ele>
      </trkpt>
      <trkpt lat="43.6847" lon="3.58966">
        <ele>73.9</ele>
      </trkpt>
      <trkpt lat="43.68462" lon="3.5898">
        <ele>74.6</ele>
      </trkpt>
      <trkpt lat="43.68456" lon="3.58993">
        <ele>75.3</ele>
      </trkpt>
      <trkpt lat="43.68451" lon="3.5901">
        <ele>75</ele>
      </trkpt>
      <trkpt lat="43.68449" lon="3.59033">
        <ele>74.7</ele>
      </trkpt>
      <trkpt lat="43.6845" lon="3.59067">
        <ele>74.7</ele>
      </trkpt>
      <trkpt lat="43.68453" lon="3.59122">
        <ele>75.3</ele>
      </trkpt>
      <trkpt lat="43.68454" lon="3.59122">
        <ele>75.4</ele>
      </trkpt>
      <trkpt lat="43.68462" lon="3.59247">
        <ele>74.6</ele>
      </trkpt>
      <trkpt lat="43.68462" lon="3.59247">
        <ele>90.5</ele>
        <time>2015-06-14T06:38:17Z</time>
      </trkpt>
      <trkpt lat="43.68467" lon="3.59279">
        <ele>90.98</ele>
        <time>2015-06-14T06:38:26Z</time>
      </trkpt>
      <trkpt lat="43.68477" lon="3.5932">
        <ele>90.02</ele>
        <time>2015-06-14T06:38:37Z</time>
      </trkpt>
      <trkpt lat="43.68486" lon="3.59353">
        <ele>90.02</ele>
        <time>2015-06-14T06:38:46Z</time>
      </trkpt>
      <trkpt lat="43.68483" lon="3.5938">
        <ele>89.54</ele>
        <time>2015-06-14T06:38:52Z</time>
      </trkpt>
      <trkpt lat="43.68479" lon="3.59389">
        <ele>89.06</ele>
        <time>2015-06-14T06:38:54Z</time>
      </trkpt>
      <trkpt lat="43.68477" lon="3.59394">
        <ele>89.06</ele>
        <time>2015-06-14T06:38:55Z</time>
      </trkpt>
      <trkpt lat="43.68466" lon="3.5941">
        <ele>88.58</ele>
        <time>2015-06-14T06:38:59Z</time>
      </trkpt>
      <trkpt lat="43.68462" lon="3.59413">
        <ele>88.1</ele>
        <time>2015-06-14T06:39:00Z</time>
      </trkpt>
      <trkpt lat="43.68458" lon="3.59416">
        <ele>88.1</ele>
        <time>2015-06-14T06:39:01Z</time>
      </trkpt>
      <trkpt lat="43.68454" lon="3.59418">
        <ele>88.1</ele>
        <time>2015-06-14T06:39:02Z</time>
      </trkpt>
      <trkpt lat="43.6845" lon="3.5942">
        <ele>88.1</ele>
        <time>2015-06-14T06:39:03Z</time>
      </trkpt>
      <trkpt lat="43.68445" lon="3.59421">
        <ele>88.1</ele>
        <time>2015-06-14T06:39:04Z</time>
      </trkpt>
      <trkpt lat="43.68441" lon="3.59422">
        <ele>87.62</ele>
        <time>2015-06-14T06:39:05Z</time>
      </trkpt>
      <trkpt lat="43.68416" lon="3.59425">
        <ele>88.1</ele>
        <time>2015-06-14T06:39:12Z</time>
      </trkpt>
      <trkpt lat="43.68392" lon="3.59424">
        <ele>88.1</ele>
        <time>2015-06-14T06:39:19Z</time>
      </trkpt>
      <trkpt lat="43.68368" lon="3.59417">
        <ele>89.06</ele>
        <time>2015-06-14T06:39:27Z</time>
      </trkpt>
      <trkpt lat="43.68342" lon="3.59407">
        <ele>90.5</ele>
        <time>2015-06-14T06:39:37Z</time>
      </trkpt>
      <trkpt lat="43.68316" lon="3.59397">
        <ele>91.46</ele>
        <time>2015-06-14T06:39:47Z</time>
      </trkpt>
      <trkpt lat="43.68283" lon="3.59388">
        <ele>92.9</ele>
        <time>2015-06-14T06:40:00Z</time>
      </trkpt>
      <trkpt lat="43.68252" lon="3.59377">
        <ele>94.35</ele>
        <time>2015-06-14T06:40:12Z</time>
      </trkpt>
      <trkpt lat="43.68223" lon="3.59369">
        <ele>95.31</ele>
        <time>2015-06-14T06:40:23Z</time>
      </trkpt>
      <trkpt lat="43.68199" lon="3.59363">
        <ele>97.23</ele>
        <time>2015-06-14T06:40:33Z</time>
      </trkpt>
      <trkpt lat="43.68177" lon="3.59361">
        <ele>98.19</ele>
        <time>2015-06-14T06:40:42Z</time>
      </trkpt>
      <trkpt lat="43.68152" lon="3.59366">
        <ele>98.67</ele>
        <time>2015-06-14T06:40:52Z</time>
      </trkpt>
      <trkpt lat="43.68131" lon="3.59373">
        <ele>99.15</ele>
        <time>2015-06-14T06:41:01Z</time>
      </trkpt>
      <trkpt lat="43.68108" lon="3.59386">
        <ele>100.11</ele>
        <time>2015-06-14T06:41:11Z</time>
      </trkpt>
      <trkpt lat="43.68085" lon="3.59407">
        <ele>101.56</ele>
        <time>2015-06-14T06:41:23Z</time>
      </trkpt>
      <trkpt lat="43.68071" lon="3.59422">
        <ele>102.04</ele>
        <time>2015-06-14T06:41:31Z</time>
      </trkpt>
      <trkpt lat="43.68046" lon="3.59447">
        <ele>103.48</ele>
        <time>2015-06-14T06:41:44Z</time>
      </trkpt>
      <trkpt lat="43.68024" lon="3.59469">
        <ele>104.92</ele>
        <time>2015-06-14T06:41:55Z</time>
      </trkpt>
      <trkpt lat="43.67999" lon="3.59494">
        <ele>106.36</ele>
        <time>2015-06-14T06:42:08Z</time>
      </trkpt>
      <trkpt lat="43.67981" lon="3.59514">
        <ele>107.32</ele>
        <time>2015-06-14T06:42:18Z</time>
      </trkpt>
      <trkpt lat="43.67957" lon="3.59538">
        <ele>108.77</ele>
        <time>2015-06-14T06:42:30Z</time>
      </trkpt>
      <trkpt lat="43.67938" lon="3.59562">
        <ele>109.73</ele>
        <time>2015-06-14T06:42:41Z</time>
      </trkpt>
      <trkpt lat="43.67925" lon="3.59574">
        <ele>110.21</ele>
        <time>2015-06-14T06:42:48Z</time>
      </trkpt>
      <trkpt lat="43.67908" lon="3.59587">
        <ele>112.13</ele>
        <time>2015-06-14T06:42:56Z</time>
      </trkpt>
      <trkpt lat="43.67895" lon="3.59606">
        <ele>113.57</ele>
        <time>2015-06-14T06:43:04Z</time>
      </trkpt>
      <trkpt lat="43.67878" lon="3.59629">
        <ele>115.5</ele>
        <time>2015-06-14T06:43:14Z</time>
      </trkpt>
      <trkpt lat="43.67863" lon="3.59637">
        <ele>116.94</ele>
        <time>2015-06-14T06:43:21Z</time>
      </trkpt>
      <trkpt lat="43.67838" lon="3.59634">
        <ele>118.38</ele>
        <time>2015-06-14T06:43:32Z</time>
      </trkpt>
      <trkpt lat="43.6782" lon="3.5963">
        <ele>118.86</ele>
        <time>2015-06-14T06:43:40Z</time>
      </trkpt>
      <trkpt lat="43.67794" lon="3.59625">
        <ele>119.34</ele>
        <time>2015-06-14T06:43:51Z</time>
      </trkpt>
      <trkpt lat="43.67774" lon="3.59623">
        <ele>119.82</ele>
        <time>2015-06-14T06:43:59Z</time>
      </trkpt>
      <trkpt lat="43.67755" lon="3.5962">
        <ele>120.3</ele>
        <time>2015-06-14T06:44:07Z</time>
      </trkpt>
      <trkpt lat="43.67735" lon="3.59617">
        <ele>120.3</ele>
        <time>2015-06-14T06:44:15Z</time>
      </trkpt>
      <trkpt lat="43.67711" lon="3.59617">
        <ele>120.78</ele>
        <time>2015-06-14T06:44:25Z</time>
      </trkpt>
      <trkpt lat="43.6769" lon="3.5962">
        <ele>121.74</ele>
        <time>2015-06-14T06:44:34Z</time>
      </trkpt>
      <trkpt lat="43.6767" lon="3.59624">
        <ele>122.71</ele>
        <time>2015-06-14T06:44:43Z</time>
      </trkpt>
      <trkpt lat="43.67651" lon="3.59628">
        <ele>123.19</ele>
        <time>2015-06-14T06:44:51Z</time>
      </trkpt>
      <trkpt lat="43.67639" lon="3.5964">
        <ele>124.63</ele>
        <time>2015-06-14T06:44:58Z</time>
      </trkpt>
      <trkpt lat="43.67634" lon="3.5966">
        <ele>126.07</ele>
        <time>2015-06-14T06:45:05Z</time>
      </trkpt>
      <trkpt lat="43.67626" lon="3.59682">
        <ele>127.99</ele>
        <time>2015-06-14T06:45:14Z</time>
      </trkpt>
      <trkpt lat="43.6761" lon="3.59692">
        <ele>128.95</ele>
        <time>2015-06-14T06:45:22Z</time>
      </trkpt>
      <trkpt lat="43.67591" lon="3.59685">
        <ele>129.43</ele>
        <time>2015-06-14T06:45:31Z</time>
      </trkpt>
      <trkpt lat="43.67568" lon="3.59676">
        <ele>130.4</ele>
        <time>2015-06-14T06:45:41Z</time>
      </trkpt>
      <trkpt lat="43.67553" lon="3.5967">
        <ele>130.88</ele>
        <time>2015-06-14T06:45:48Z</time>
      </trkpt>
      <trkpt lat="43.6753" lon="3.59661">
        <ele>131.84</ele>
        <time>2015-06-14T06:45:58Z</time>
      </trkpt>
      <trkpt lat="43.67513" lon="3.59655">
        <ele>132.32</ele>
        <time>2015-06-14T06:46:06Z</time>
      </trkpt>
      <trkpt lat="43.67496" lon="3.5965">
        <ele>134.24</ele>
        <time>2015-06-14T06:46:14Z</time>
      </trkpt>
      <trkpt lat="43.67494" lon="3.59649">
        <ele>134.24</ele>
        <time>2015-06-14T06:46:15Z</time>
      </trkpt>
      <trkpt lat="43.67478" lon="3.59644">
        <ele>135.2</ele>
        <time>2015-06-14T06:46:23Z</time>
      </trkpt>
      <trkpt lat="43.67464" lon="3.5964">
        <ele>136.64</ele>
        <time>2015-06-14T06:46:30Z</time>
      </trkpt>
      <trkpt lat="43.67457" lon="3.59637">
        <ele>136.64</ele>
        <time>2015-06-14T06:46:34Z</time>
      </trkpt>
      <trkpt lat="43.67455" lon="3.59637">
        <ele>136.64</ele>
        <time>2015-06-14T06:46:35Z</time>
      </trkpt>
      <trkpt lat="43.67451" lon="3.59637">
        <ele>137.61</ele>
        <time>2015-06-14T06:46:37Z</time>
      </trkpt>
      <trkpt lat="43.67449" lon="3.59637">
        <ele>137.61</ele>
        <time>2015-06-14T06:46:38Z</time>
      </trkpt>
      <trkpt lat="43.67447" lon="3.59637">
        <ele>137.61</ele>
        <time>2015-06-14T06:46:39Z</time>
      </trkpt>
      <trkpt lat="43.67445" lon="3.59637">
        <ele>138.09</ele>
        <time>2015-06-14T06:46:40Z</time>
      </trkpt>
      <trkpt lat="43.67443" lon="3.59636">
        <ele>138.09</ele>
        <time>2015-06-14T06:46:41Z</time>
      </trkpt>
      <trkpt lat="43.67441" lon="3.59635">
        <ele>138.09</ele>
        <time>2015-06-14T06:46:42Z</time>
      </trkpt>
      <trkpt lat="43.67425" lon="3.59628">
        <ele>139.05</ele>
        <time>2015-06-14T06:46:50Z</time>
      </trkpt>
      <trkpt lat="43.6741" lon="3.59633">
        <ele>140.49</ele>
        <time>2015-06-14T06:46:58Z</time>
      </trkpt>
      <trkpt lat="43.67391" lon="3.59636">
        <ele>142.41</ele>
        <time>2015-06-14T06:47:07Z</time>
      </trkpt>
      <trkpt lat="43.67376" lon="3.59638">
        <ele>143.37</ele>
        <time>2015-06-14T06:47:15Z</time>
      </trkpt>
      <trkpt lat="43.67354" lon="3.59642">
        <ele>145.3</ele>
        <time>2015-06-14T06:47:25Z</time>
      </trkpt>
      <trkpt lat="43.67341" lon="3.59643">
        <ele>146.26</ele>
        <time>2015-06-14T06:47:31Z</time>
      </trkpt>
      <trkpt lat="43.6732" lon="3.59643">
        <ele>147.22</ele>
        <time>2015-06-14T06:47:40Z</time>
      </trkpt>
      <trkpt lat="43.67298" lon="3.59642">
        <ele>147.7</ele>
        <time>2015-06-14T06:47:50Z</time>
      </trkpt>
      <trkpt lat="43.67278" lon="3.59639">
        <ele>148.18</ele>
        <time>2015-06-14T06:47:59Z</time>
      </trkpt>
      <trkpt lat="43.67255" lon="3.59637">
        <ele>149.14</ele>
        <time>2015-06-14T06:48:09Z</time>
      </trkpt>
      <trkpt lat="43.67233" lon="3.59638">
        <ele>150.1</ele>
        <time>2015-06-14T06:48:19Z</time>
      </trkpt>
      <trkpt lat="43.67213" lon="3.59645">
        <ele>151.06</ele>
        <time>2015-06-14T06:48:28Z</time>
      </trkpt>
      <trkpt lat="43.67193" lon="3.59667">
        <ele>151.54</ele>
        <time>2015-06-14T06:48:39Z</time>
      </trkpt>
      <trkpt lat="43.67185" lon="3.59691">
        <ele>151.54</ele>
        <time>2015-06-14T06:48:47Z</time>
      </trkpt>
      <trkpt lat="43.67178" lon="3.59734">
        <ele>151.06</ele>
        <time>2015-06-14T06:48:59Z</time>
      </trkpt>
      <trkpt lat="43.67175" lon="3.59768">
        <ele>151.06</ele>
        <time>2015-06-14T06:49:08Z</time>
      </trkpt>
      <trkpt lat="43.67171" lon="3.59804">
        <ele>150.1</ele>
        <time>2015-06-14T06:49:17Z</time>
      </trkpt>
      <trkpt lat="43.67168" lon="3.59846">
        <ele>149.14</ele>
        <time>2015-06-14T06:49:26Z</time>
      </trkpt>
      <trkpt lat="43.67163" lon="3.59886">
        <ele>147.7</ele>
        <time>2015-06-14T06:49:33Z</time>
      </trkpt>
      <trkpt lat="43.67147" lon="3.59953">
        <ele>144.34</ele>
        <time>2015-06-14T06:49:42Z</time>
      </trkpt>
      <trkpt lat="43.67135" lon="3.60027">
        <ele>142.41</ele>
        <time>2015-06-14T06:49:50Z</time>
      </trkpt>
      <trkpt lat="43.67132" lon="3.60075">
        <ele>140.49</ele>
        <time>2015-06-14T06:49:55Z</time>
      </trkpt>
      <trkpt lat="43.67129" lon="3.60084">
        <ele>140.01</ele>
        <time>2015-06-14T06:49:56Z</time>
      </trkpt>
      <trkpt lat="43.67126" lon="3.60093">
        <ele>139.53</ele>
        <time>2015-06-14T06:49:57Z</time>
      </trkpt>
      <trkpt lat="43.67115" lon="3.60131">
        <ele>138.09</ele>
        <time>2015-06-14T06:50:01Z</time>
      </trkpt>
      <trkpt lat="43.67115" lon="3.60143">
        <ele>137.13</ele>
        <time>2015-06-14T06:50:02Z</time>
      </trkpt>
      <trkpt lat="43.67117" lon="3.60154">
        <ele>137.13</ele>
        <time>2015-06-14T06:50:03Z</time>
      </trkpt>
      <trkpt lat="43.67121" lon="3.60164">
        <ele>136.16</ele>
        <time>2015-06-14T06:50:04Z</time>
      </trkpt>
      <trkpt lat="43.67127" lon="3.60173">
        <ele>135.68</ele>
        <time>2015-06-14T06:50:05Z</time>
      </trkpt>
      <trkpt lat="43.67133" lon="3.60181">
        <ele>135.2</ele>
        <time>2015-06-14T06:50:06Z</time>
      </trkpt>
      <trkpt lat="43.67141" lon="3.60188">
        <ele>135.2</ele>
        <time>2015-06-14T06:50:07Z</time>
      </trkpt>
      <trkpt lat="43.67148" lon="3.60194">
        <ele>134.24</ele>
        <time>2015-06-14T06:50:08Z</time>
      </trkpt>
      <trkpt lat="43.67178" lon="3.60217">
        <ele>133.76</ele>
        <time>2015-06-14T06:50:12Z</time>
      </trkpt>
      <trkpt lat="43.67185" lon="3.60225">
        <ele>133.76</ele>
        <time>2015-06-14T06:50:13Z</time>
      </trkpt>
      <trkpt lat="43.67191" lon="3.60234">
        <ele>133.76</ele>
        <time>2015-06-14T06:50:14Z</time>
      </trkpt>
      <trkpt lat="43.67196" lon="3.60243">
        <ele>133.28</ele>
        <time>2015-06-14T06:50:15Z</time>
      </trkpt>
      <trkpt lat="43.672" lon="3.60252">
        <ele>133.28</ele>
        <time>2015-06-14T06:50:16Z</time>
      </trkpt>
      <trkpt lat="43.67204" lon="3.60262">
        <ele>132.8</ele>
        <time>2015-06-14T06:50:17Z</time>
      </trkpt>
      <trkpt lat="43.67234" lon="3.60354">
        <ele>130.4</ele>
        <time>2015-06-14T06:50:26Z</time>
      </trkpt>
      <trkpt lat="43.6725" lon="3.60401">
        <ele>129.92</ele>
        <time>2015-06-14T06:50:31Z</time>
      </trkpt>
      <trkpt lat="43.67254" lon="3.60409">
        <ele>129.43</ele>
        <time>2015-06-14T06:50:32Z</time>
      </trkpt>
      <trkpt lat="43.67282" lon="3.60441">
        <ele>129.92</ele>
        <time>2015-06-14T06:50:38Z</time>
      </trkpt>
      <trkpt lat="43.67287" lon="3.60445">
        <ele>129.92</ele>
        <time>2015-06-14T06:50:39Z</time>
      </trkpt>
      <trkpt lat="43.67289" lon="3.60451">
        <ele>129.92</ele>
        <time>2015-06-14T06:50:40Z</time>
      </trkpt>
      <trkpt lat="43.67289" lon="3.60457">
        <ele>129.92</ele>
        <time>2015-06-14T06:50:41Z</time>
      </trkpt>
      <trkpt lat="43.67286" lon="3.60507">
        <ele>127.03</ele>
        <time>2015-06-14T06:50:47Z</time>
      </trkpt>
      <trkpt lat="43.67283" lon="3.60543">
        <ele>125.59</ele>
        <time>2015-06-14T06:50:51Z</time>
      </trkpt>
      <trkpt lat="43.6728" lon="3.60552">
        <ele>124.63</ele>
        <time>2015-06-14T06:50:52Z</time>
      </trkpt>
      <trkpt lat="43.67276" lon="3.6056">
        <ele>124.63</ele>
        <time>2015-06-14T06:50:53Z</time>
      </trkpt>
      <trkpt lat="43.67245" lon="3.60622">
        <ele>121.26</ele>
        <time>2015-06-14T06:51:00Z</time>
      </trkpt>
      <trkpt lat="43.67216" lon="3.60666">
        <ele>121.26</ele>
        <time>2015-06-14T06:51:06Z</time>
      </trkpt>
      <trkpt lat="43.67203" lon="3.60685">
        <ele>121.26</ele>
        <time>2015-06-14T06:51:09Z</time>
      </trkpt>
      <trkpt lat="43.67199" lon="3.60689">
        <ele>121.26</ele>
        <time>2015-06-14T06:51:10Z</time>
      </trkpt>
      <trkpt lat="43.67194" lon="3.60692">
        <ele>121.26</ele>
        <time>2015-06-14T06:51:11Z</time>
      </trkpt>
      <trkpt lat="43.67189" lon="3.60694">
        <ele>121.26</ele>
        <time>2015-06-14T06:51:12Z</time>
      </trkpt>
      <trkpt lat="43.67184" lon="3.60693">
        <ele>121.26</ele>
        <time>2015-06-14T06:51:13Z</time>
      </trkpt>
      <trkpt lat="43.67179" lon="3.60691">
        <ele>121.26</ele>
        <time>2015-06-14T06:51:14Z</time>
      </trkpt>
      <trkpt lat="43.67174" lon="3.60687">
        <ele>121.26</ele>
        <time>2015-06-14T06:51:15Z</time>
      </trkpt>
      <trkpt lat="43.6717" lon="3.60682">
        <ele>121.26</ele>
        <time>2015-06-14T06:51:16Z</time>
      </trkpt>
      <trkpt lat="43.67167" lon="3.60677">
        <ele>121.26</ele>
        <time>2015-06-14T06:51:17Z</time>
      </trkpt>
      <trkpt lat="43.67165" lon="3.60672">
        <ele>120.78</ele>
        <time>2015-06-14T06:51:18Z</time>
      </trkpt>
      <trkpt lat="43.67163" lon="3.60665">
        <ele>120.78</ele>
        <time>2015-06-14T06:51:19Z</time>
      </trkpt>
      <trkpt lat="43.67162" lon="3.60659">
        <ele>120.78</ele>
        <time>2015-06-14T06:51:20Z</time>
      </trkpt>
      <trkpt lat="43.67162" lon="3.60653">
        <ele>120.3</ele>
        <time>2015-06-14T06:51:21Z</time>
      </trkpt>
      <trkpt lat="43.67154" lon="3.606">
        <ele>119.34</ele>
        <time>2015-06-14T06:51:29Z</time>
      </trkpt>
      <trkpt lat="43.67153" lon="3.60592">
        <ele>119.34</ele>
        <time>2015-06-14T06:51:30Z</time>
      </trkpt>
      <trkpt lat="43.67154" lon="3.60578">
        <ele>118.86</ele>
        <time>2015-06-14T06:51:32Z</time>
      </trkpt>
      <trkpt lat="43.67155" lon="3.60571">
        <ele>118.86</ele>
        <time>2015-06-14T06:51:33Z</time>
      </trkpt>
      <trkpt lat="43.67157" lon="3.60564">
        <ele>118.86</ele>
        <time>2015-06-14T06:51:34Z</time>
      </trkpt>
      <trkpt lat="43.67161" lon="3.60551">
        <ele>118.86</ele>
        <time>2015-06-14T06:51:36Z</time>
      </trkpt>
      <trkpt lat="43.67177" lon="3.60509">
        <ele>118.38</ele>
        <time>2015-06-14T06:51:44Z</time>
      </trkpt>
      <trkpt lat="43.67195" lon="3.60468">
        <ele>118.38</ele>
        <time>2015-06-14T06:51:53Z</time>
      </trkpt>
      <trkpt lat="43.67205" lon="3.60424">
        <ele>118.38</ele>
        <time>2015-06-14T06:52:02Z</time>
      </trkpt>
      <trkpt lat="43.67201" lon="3.60394">
        <ele>118.38</ele>
        <time>2015-06-14T06:52:08Z</time>
      </trkpt>
      <trkpt lat="43.67194" lon="3.60345">
        <ele>117.42</ele>
        <time>2015-06-14T06:52:17Z</time>
      </trkpt>
      <trkpt lat="43.67178" lon="3.60296">
        <ele>115.01</ele>
        <time>2015-06-14T06:52:25Z</time>
      </trkpt>
      <trkpt lat="43.67161" lon="3.60272">
        <ele>115.01</ele>
        <time>2015-06-14T06:52:31Z</time>
      </trkpt>
      <trkpt lat="43.6714" lon="3.60267">
        <ele>116.94</ele>
        <time>2015-06-14T06:52:38Z</time>
      </trkpt>
      <trkpt lat="43.67115" lon="3.60263">
        <ele>118.86</ele>
        <time>2015-06-14T06:52:47Z</time>
      </trkpt>
      <trkpt lat="43.67091" lon="3.60255">
        <ele>119.34</ele>
        <time>2015-06-14T06:52:56Z</time>
      </trkpt>
      <trkpt lat="43.67069" lon="3.60253">
        <ele>120.3</ele>
        <time>2015-06-14T06:53:04Z</time>
      </trkpt>
      <trkpt lat="43.67051" lon="3.60245">
        <ele>120.3</ele>
        <time>2015-06-14T06:53:11Z</time>
      </trkpt>
      <trkpt lat="43.67028" lon="3.60219">
        <ele>120.3</ele>
        <time>2015-06-14T06:53:21Z</time>
      </trkpt>
      <trkpt lat="43.67012" lon="3.60213">
        <ele>118.86</ele>
        <time>2015-06-14T06:53:26Z</time>
      </trkpt>
      <trkpt lat="43.66979" lon="3.60214">
        <ele>117.9</ele>
        <time>2015-06-14T06:53:34Z</time>
      </trkpt>
      <trkpt lat="43.66942" lon="3.6022">
        <ele>117.42</ele>
        <time>2015-06-14T06:53:44Z</time>
      </trkpt>
      <trkpt lat="43.66913" lon="3.60227">
        <ele>116.94</ele>
        <time>2015-06-14T06:53:52Z</time>
      </trkpt>
      <trkpt lat="43.66881" lon="3.60242">
        <ele>116.46</ele>
        <time>2015-06-14T06:54:01Z</time>
      </trkpt>
      <trkpt lat="43.66853" lon="3.6025">
        <ele>117.9</ele>
        <time>2015-06-14T06:54:09Z</time>
      </trkpt>
      <trkpt lat="43.66838" lon="3.60265">
        <ele>118.38</ele>
        <time>2015-06-14T06:54:15Z</time>
      </trkpt>
      <trkpt lat="43.66823" lon="3.60287">
        <ele>118.86</ele>
        <time>2015-06-14T06:54:23Z</time>
      </trkpt>
      <trkpt lat="43.66806" lon="3.60315">
        <ele>120.3</ele>
        <time>2015-06-14T06:54:33Z</time>
      </trkpt>
      <trkpt lat="43.66793" lon="3.60337">
        <ele>121.74</ele>
        <time>2015-06-14T06:54:41Z</time>
      </trkpt>
      <trkpt lat="43.66776" lon="3.60369">
        <ele>122.71</ele>
        <time>2015-06-14T06:54:53Z</time>
      </trkpt>
      <trkpt lat="43.66765" lon="3.60395">
        <ele>124.15</ele>
        <time>2015-06-14T06:55:02Z</time>
      </trkpt>
      <trkpt lat="43.66757" lon="3.60416">
        <ele>124.63</ele>
        <time>2015-06-14T06:55:09Z</time>
      </trkpt>
      <trkpt lat="43.66749" lon="3.60443">
        <ele>126.07</ele>
        <time>2015-06-14T06:55:18Z</time>
      </trkpt>
      <trkpt lat="43.66752" lon="3.60474">
        <ele>126.55</ele>
        <time>2015-06-14T06:55:27Z</time>
      </trkpt>
      <trkpt lat="43.66758" lon="3.60504">
        <ele>127.51</ele>
        <time>2015-06-14T06:55:36Z</time>
      </trkpt>
      <trkpt lat="43.66767" lon="3.60534">
        <ele>128.95</ele>
        <time>2015-06-14T06:55:45Z</time>
      </trkpt>
      <trkpt lat="43.66766" lon="3.60562">
        <ele>129.92</ele>
        <time>2015-06-14T06:55:53Z</time>
      </trkpt>
      <trkpt lat="43.66756" lon="3.60581">
        <ele>131.36</ele>
        <time>2015-06-14T06:56:01Z</time>
      </trkpt>
      <trkpt lat="43.66751" lon="3.6059">
        <ele>131.36</ele>
        <time>2015-06-14T06:56:05Z</time>
      </trkpt>
      <trkpt lat="43.66751" lon="3.60593">
        <ele>131.36</ele>
        <time>2015-06-14T06:56:06Z</time>
      </trkpt>
      <trkpt lat="43.66756" lon="3.60604">
        <ele>132.8</ele>
        <time>2015-06-14T06:56:11Z</time>
      </trkpt>
      <trkpt lat="43.66757" lon="3.60605">
        <ele>132.8</ele>
        <time>2015-06-14T06:56:12Z</time>
      </trkpt>
      <trkpt lat="43.66759" lon="3.60605">
        <ele>132.8</ele>
        <time>2015-06-14T06:56:13Z</time>
      </trkpt>
      <trkpt lat="43.6676" lon="3.60605">
        <ele>133.76</ele>
        <time>2015-06-14T06:56:14Z</time>
      </trkpt>
      <trkpt lat="43.66762" lon="3.60604">
        <ele>133.76</ele>
        <time>2015-06-14T06:56:15Z</time>
      </trkpt>
      <trkpt lat="43.66763" lon="3.60604">
        <ele>133.76</ele>
        <time>2015-06-14T06:56:16Z</time>
      </trkpt>
      <trkpt lat="43.66765" lon="3.60604">
        <ele>133.76</ele>
        <time>2015-06-14T06:56:17Z</time>
      </trkpt>
      <trkpt lat="43.6678" lon="3.6061">
        <ele>135.2</ele>
        <time>2015-06-14T06:56:26Z</time>
      </trkpt>
      <trkpt lat="43.6679" lon="3.60624">
        <ele>136.64</ele>
        <time>2015-06-14T06:56:34Z</time>
      </trkpt>
      <trkpt lat="43.66795" lon="3.60645">
        <ele>137.61</ele>
        <time>2015-06-14T06:56:43Z</time>
      </trkpt>
      <trkpt lat="43.66802" lon="3.60666">
        <ele>138.57</ele>
        <time>2015-06-14T06:56:52Z</time>
      </trkpt>
      <trkpt lat="43.66812" lon="3.60685">
        <ele>140.01</ele>
        <time>2015-06-14T06:57:01Z</time>
      </trkpt>
      <trkpt lat="43.66823" lon="3.60705">
        <ele>140.97</ele>
        <time>2015-06-14T06:57:10Z</time>
      </trkpt>
      <trkpt lat="43.66832" lon="3.60724">
        <ele>141.45</ele>
        <time>2015-06-14T06:57:18Z</time>
      </trkpt>
      <trkpt lat="43.66842" lon="3.60748">
        <ele>142.41</ele>
        <time>2015-06-14T06:57:27Z</time>
      </trkpt>
      <trkpt lat="43.66851" lon="3.60771">
        <ele>143.37</ele>
        <time>2015-06-14T06:57:36Z</time>
      </trkpt>
      <trkpt lat="43.66864" lon="3.608">
        <ele>144.34</ele>
        <time>2015-06-14T06:57:47Z</time>
      </trkpt>
      <trkpt lat="43.66876" lon="3.60831">
        <ele>145.78</ele>
        <time>2015-06-14T06:57:58Z</time>
      </trkpt>
      <trkpt lat="43.66882" lon="3.60851">
        <ele>146.74</ele>
        <time>2015-06-14T06:58:05Z</time>
      </trkpt>
      <trkpt lat="43.66888" lon="3.60882">
        <ele>148.18</ele>
        <time>2015-06-14T06:58:15Z</time>
      </trkpt>
      <trkpt lat="43.66891" lon="3.60916">
        <ele>149.14</ele>
        <time>2015-06-14T06:58:25Z</time>
      </trkpt>
      <trkpt lat="43.66891" lon="3.6095">
        <ele>150.1</ele>
        <time>2015-06-14T06:58:35Z</time>
      </trkpt>
      <trkpt lat="43.66884" lon="3.60984">
        <ele>151.06</ele>
        <time>2015-06-14T06:58:45Z</time>
      </trkpt>
      <trkpt lat="43.66876" lon="3.61015">
        <ele>152.03</ele>
        <time>2015-06-14T06:58:55Z</time>
      </trkpt>
      <trkpt lat="43.6687" lon="3.61038">
        <ele>153.47</ele>
        <time>2015-06-14T06:59:03Z</time>
      </trkpt>
      <trkpt lat="43.66857" lon="3.61075">
        <ele>154.91</ele>
        <time>2015-06-14T06:59:15Z</time>
      </trkpt>
      <trkpt lat="43.66848" lon="3.61102">
        <ele>156.35</ele>
        <time>2015-06-14T06:59:24Z</time>
      </trkpt>
      <trkpt lat="43.66842" lon="3.61121">
        <ele>156.83</ele>
        <time>2015-06-14T06:59:30Z</time>
      </trkpt>
      <trkpt lat="43.66833" lon="3.61147">
        <ele>157.79</ele>
        <time>2015-06-14T06:59:39Z</time>
      </trkpt>
      <trkpt lat="43.66824" lon="3.61172">
        <ele>158.75</ele>
        <time>2015-06-14T06:59:47Z</time>
      </trkpt>
      <trkpt lat="43.66815" lon="3.61199">
        <ele>159.72</ele>
        <time>2015-06-14T06:59:56Z</time>
      </trkpt>
      <trkpt lat="43.66804" lon="3.61227">
        <ele>160.68</ele>
        <time>2015-06-14T07:00:05Z</time>
      </trkpt>
      <trkpt lat="43.66792" lon="3.61262">
        <ele>161.64</ele>
        <time>2015-06-14T07:00:16Z</time>
      </trkpt>
      <trkpt lat="43.6678" lon="3.61295">
        <ele>161.64</ele>
        <time>2015-06-14T07:00:26Z</time>
      </trkpt>
      <trkpt lat="43.6677" lon="3.61323">
        <ele>161.64</ele>
        <time>2015-06-14T07:00:34Z</time>
      </trkpt>
      <trkpt lat="43.66762" lon="3.61345">
        <ele>160.2</ele>
        <time>2015-06-14T07:00:39Z</time>
      </trkpt>
      <trkpt lat="43.66759" lon="3.61349">
        <ele>159.72</ele>
        <time>2015-06-14T07:00:40Z</time>
      </trkpt>
      <trkpt lat="43.66756" lon="3.61353">
        <ele>159.72</ele>
        <time>2015-06-14T07:00:41Z</time>
      </trkpt>
      <trkpt lat="43.66735" lon="3.61376">
        <ele>158.75</ele>
        <time>2015-06-14T07:00:48Z</time>
      </trkpt>
      <trkpt lat="43.66722" lon="3.61403">
        <ele>158.75</ele>
        <time>2015-06-14T07:00:54Z</time>
      </trkpt>
      <trkpt lat="43.66716" lon="3.61419">
        <ele>158.27</ele>
        <time>2015-06-14T07:00:57Z</time>
      </trkpt>
      <trkpt lat="43.66713" lon="3.61424">
        <ele>158.27</ele>
        <time>2015-06-14T07:00:58Z</time>
      </trkpt>
      <trkpt lat="43.66711" lon="3.61428">
        <ele>158.27</ele>
        <time>2015-06-14T07:00:59Z</time>
      </trkpt>
      <trkpt lat="43.66689" lon="3.61449">
        <ele>158.75</ele>
        <time>2015-06-14T07:01:06Z</time>
      </trkpt>
      <trkpt lat="43.66664" lon="3.6146">
        <ele>159.72</ele>
        <time>2015-06-14T07:01:14Z</time>
      </trkpt>
      <trkpt lat="43.66645" lon="3.61468">
        <ele>160.68</ele>
        <time>2015-06-14T07:01:22Z</time>
      </trkpt>
      <trkpt lat="43.6663" lon="3.61476">
        <ele>161.16</ele>
        <time>2015-06-14T07:01:28Z</time>
      </trkpt>
      <trkpt lat="43.66609" lon="3.6149">
        <ele>162.12</ele>
        <time>2015-06-14T07:01:37Z</time>
      </trkpt>
      <trkpt lat="43.66591" lon="3.61505">
        <ele>163.08</ele>
        <time>2015-06-14T07:01:46Z</time>
      </trkpt>
      <trkpt lat="43.66572" lon="3.6152">
        <ele>163.56</ele>
        <time>2015-06-14T07:01:54Z</time>
      </trkpt>
      <trkpt lat="43.66552" lon="3.6153">
        <ele>165</ele>
        <time>2015-06-14T07:02:02Z</time>
      </trkpt>
      <trkpt lat="43.66536" lon="3.61543">
        <ele>165.96</ele>
        <time>2015-06-14T07:02:10Z</time>
      </trkpt>
      <trkpt lat="43.66518" lon="3.61559">
        <ele>167.41</ele>
        <time>2015-06-14T07:02:19Z</time>
      </trkpt>
      <trkpt lat="43.66497" lon="3.61579">
        <ele>168.37</ele>
        <time>2015-06-14T07:02:29Z</time>
      </trkpt>
      <trkpt lat="43.66485" lon="3.61599">
        <ele>168.85</ele>
        <time>2015-06-14T07:02:36Z</time>
      </trkpt>
      <trkpt lat="43.66467" lon="3.61623">
        <ele>169.81</ele>
        <time>2015-06-14T07:02:45Z</time>
      </trkpt>
      <trkpt lat="43.66446" lon="3.61648">
        <ele>170.77</ele>
        <time>2015-06-14T07:02:56Z</time>
      </trkpt>
      <trkpt lat="43.6643" lon="3.61669">
        <ele>171.25</ele>
        <time>2015-06-14T07:03:04Z</time>
      </trkpt>
      <trkpt lat="43.6641" lon="3.61693">
        <ele>172.21</ele>
        <time>2015-06-14T07:03:14Z</time>
      </trkpt>
      <trkpt lat="43.66391" lon="3.61716">
        <ele>173.17</ele>
        <time>2015-06-14T07:03:24Z</time>
      </trkpt>
      <trkpt lat="43.66379" lon="3.61736">
        <ele>174.14</ele>
        <time>2015-06-14T07:03:31Z</time>
      </trkpt>
      <trkpt lat="43.66362" lon="3.61766">
        <ele>174.14</ele>
        <time>2015-06-14T07:03:41Z</time>
      </trkpt>
      <trkpt lat="43.66343" lon="3.61792">
        <ele>175.1</ele>
        <time>2015-06-14T07:03:51Z</time>
      </trkpt>
      <trkpt lat="43.66321" lon="3.61818">
        <ele>176.54</ele>
        <time>2015-06-14T07:04:02Z</time>
      </trkpt>
      <trkpt lat="43.66306" lon="3.61838">
        <ele>177.5</ele>
        <time>2015-06-14T07:04:10Z</time>
      </trkpt>
      <trkpt lat="43.66291" lon="3.61855">
        <ele>178.46</ele>
        <time>2015-06-14T07:04:17Z</time>
      </trkpt>
      <trkpt lat="43.6627" lon="3.61877">
        <ele>178.94</ele>
        <time>2015-06-14T07:04:27Z</time>
      </trkpt>
      <trkpt lat="43.6625" lon="3.61905">
        <ele>179.9</ele>
        <time>2015-06-14T07:04:37Z</time>
      </trkpt>
      <trkpt lat="43.66232" lon="3.61928">
        <ele>181.35</ele>
        <time>2015-06-14T07:04:46Z</time>
      </trkpt>
      <trkpt lat="43.66221" lon="3.61948">
        <ele>182.79</ele>
        <time>2015-06-14T07:04:53Z</time>
      </trkpt>
      <trkpt lat="43.66209" lon="3.61972">
        <ele>183.75</ele>
        <time>2015-06-14T07:05:01Z</time>
      </trkpt>
      <trkpt lat="43.66191" lon="3.62004">
        <ele>185.19</ele>
        <time>2015-06-14T07:05:12Z</time>
      </trkpt>
      <trkpt lat="43.66175" lon="3.62033">
        <ele>187.11</ele>
        <time>2015-06-14T07:05:23Z</time>
      </trkpt>
      <trkpt lat="43.66164" lon="3.62054">
        <ele>188.08</ele>
        <time>2015-06-14T07:05:31Z</time>
      </trkpt>
      <trkpt lat="43.66151" lon="3.62069">
        <ele>190.48</ele>
        <time>2015-06-14T07:05:39Z</time>
      </trkpt>
      <trkpt lat="43.6614" lon="3.62083">
        <ele>191.44</ele>
        <time>2015-06-14T07:05:46Z</time>
      </trkpt>
      <trkpt lat="43.66129" lon="3.62098">
        <ele>192.88</ele>
        <time>2015-06-14T07:05:54Z</time>
      </trkpt>
      <trkpt lat="43.66119" lon="3.62116">
        <ele>194.32</ele>
        <time>2015-06-14T07:06:02Z</time>
      </trkpt>
      <trkpt lat="43.66111" lon="3.62132">
        <ele>195.77</ele>
        <time>2015-06-14T07:06:09Z</time>
      </trkpt>
      <trkpt lat="43.66101" lon="3.62147">
        <ele>197.21</ele>
        <time>2015-06-14T07:06:17Z</time>
      </trkpt>
      <trkpt lat="43.66091" lon="3.62163">
        <ele>198.65</ele>
        <time>2015-06-14T07:06:25Z</time>
      </trkpt>
      <trkpt lat="43.66072" lon="3.62177">
        <ele>200.09</ele>
        <time>2015-06-14T07:06:36Z</time>
      </trkpt>
      <trkpt lat="43.66062" lon="3.62187">
        <ele>201.53</ele>
        <time>2015-06-14T07:06:43Z</time>
      </trkpt>
      <trkpt lat="43.66052" lon="3.62199">
        <ele>202.98</ele>
        <time>2015-06-14T07:06:50Z</time>
      </trkpt>
      <trkpt lat="43.66039" lon="3.62218">
        <ele>204.9</ele>
        <time>2015-06-14T07:07:01Z</time>
      </trkpt>
      <trkpt lat="43.66031" lon="3.62231">
        <ele>206.34</ele>
        <time>2015-06-14T07:07:09Z</time>
      </trkpt>
      <trkpt lat="43.66021" lon="3.62255">
        <ele>208.74</ele>
        <time>2015-06-14T07:07:19Z</time>
      </trkpt>
      <trkpt lat="43.66017" lon="3.62268">
        <ele>209.7</ele>
        <time>2015-06-14T07:07:24Z</time>
      </trkpt>
      <trkpt lat="43.66016" lon="3.62269">
        <ele>209.7</ele>
        <time>2015-06-14T07:07:25Z</time>
      </trkpt>
      <trkpt lat="43.66014" lon="3.62269">
        <ele>210.19</ele>
        <time>2015-06-14T07:07:26Z</time>
      </trkpt>
      <trkpt lat="43.66012" lon="3.62269">
        <ele>210.19</ele>
        <time>2015-06-14T07:07:27Z</time>
      </trkpt>
      <trkpt lat="43.66011" lon="3.62267">
        <ele>210.19</ele>
        <time>2015-06-14T07:07:28Z</time>
      </trkpt>
      <trkpt lat="43.6601" lon="3.62264">
        <ele>210.19</ele>
        <time>2015-06-14T07:07:29Z</time>
      </trkpt>
      <trkpt lat="43.6601" lon="3.62262">
        <ele>210.19</ele>
        <time>2015-06-14T07:07:30Z</time>
      </trkpt>
      <trkpt lat="43.6601" lon="3.6226">
        <ele>210.19</ele>
        <time>2015-06-14T07:07:31Z</time>
      </trkpt>
      <trkpt lat="43.6601" lon="3.62252">
        <ele>211.15</ele>
        <time>2015-06-14T07:07:34Z</time>
      </trkpt>
      <trkpt lat="43.66013" lon="3.62241">
        <ele>211.63</ele>
        <time>2015-06-14T07:07:39Z</time>
      </trkpt>
      <trkpt lat="43.66014" lon="3.62239">
        <ele>211.63</ele>
        <time>2015-06-14T07:07:40Z</time>
      </trkpt>
      <trkpt lat="43.66019" lon="3.62217">
        <ele>213.07</ele>
        <time>2015-06-14T07:07:49Z</time>
      </trkpt>
      <trkpt lat="43.66016" lon="3.62193">
        <ele>214.03</ele>
        <time>2015-06-14T07:07:58Z</time>
      </trkpt>
      <trkpt lat="43.66006" lon="3.62174">
        <ele>216.43</ele>
        <time>2015-06-14T07:08:06Z</time>
      </trkpt>
      <trkpt lat="43.65995" lon="3.62159">
        <ele>218.36</ele>
        <time>2015-06-14T07:08:14Z</time>
      </trkpt>
      <trkpt lat="43.65985" lon="3.62142">
        <ele>219.8</ele>
        <time>2015-06-14T07:08:22Z</time>
      </trkpt>
      <trkpt lat="43.65973" lon="3.62119">
        <ele>221.72</ele>
        <time>2015-06-14T07:08:32Z</time>
      </trkpt>
      <trkpt lat="43.65978" lon="3.62105">
        <ele>223.16</ele>
        <time>2015-06-14T07:08:38Z</time>
      </trkpt>
      <trkpt lat="43.65991" lon="3.62099">
        <ele>224.61</ele>
        <time>2015-06-14T07:08:46Z</time>
      </trkpt>
      <trkpt lat="43.66005" lon="3.62095">
        <ele>226.53</ele>
        <time>2015-06-14T07:08:55Z</time>
      </trkpt>
      <trkpt lat="43.66017" lon="3.62086">
        <ele>228.45</ele>
        <time>2015-06-14T07:09:03Z</time>
      </trkpt>
      <trkpt lat="43.66028" lon="3.62069">
        <ele>230.37</ele>
        <time>2015-06-14T07:09:12Z</time>
      </trkpt>
      <trkpt lat="43.66037" lon="3.62046">
        <ele>232.3</ele>
        <time>2015-06-14T07:09:22Z</time>
      </trkpt>
      <trkpt lat="43.66044" lon="3.62024">
        <ele>233.74</ele>
        <time>2015-06-14T07:09:32Z</time>
      </trkpt>
      <trkpt lat="43.66053" lon="3.61997">
        <ele>235.66</ele>
        <time>2015-06-14T07:09:43Z</time>
      </trkpt>
      <trkpt lat="43.66059" lon="3.61974">
        <ele>237.58</ele>
        <time>2015-06-14T07:09:52Z</time>
      </trkpt>
      <trkpt lat="43.66066" lon="3.61946">
        <ele>239.51</ele>
        <time>2015-06-14T07:10:02Z</time>
      </trkpt>
      <trkpt lat="43.66072" lon="3.61923">
        <ele>240.95</ele>
        <time>2015-06-14T07:10:10Z</time>
      </trkpt>
      <trkpt lat="43.66081" lon="3.61895">
        <ele>242.39</ele>
        <time>2015-06-14T07:10:20Z</time>
      </trkpt>
      <trkpt lat="43.66088" lon="3.61874">
        <ele>243.35</ele>
        <time>2015-06-14T07:10:28Z</time>
      </trkpt>
      <trkpt lat="43.66098" lon="3.6185">
        <ele>245.75</ele>
        <time>2015-06-14T07:10:38Z</time>
      </trkpt>
      <trkpt lat="43.66107" lon="3.61829">
        <ele>247.2</ele>
        <time>2015-06-14T07:10:47Z</time>
      </trkpt>
      <trkpt lat="43.66113" lon="3.61815">
        <ele>249.12</ele>
        <time>2015-06-14T07:10:54Z</time>
      </trkpt>
      <trkpt lat="43.66119" lon="3.61798">
        <ele>250.08</ele>
        <time>2015-06-14T07:11:02Z</time>
      </trkpt>
      <trkpt lat="43.66126" lon="3.61781">
        <ele>251.52</ele>
        <time>2015-06-14T07:11:10Z</time>
      </trkpt>
      <trkpt lat="43.66131" lon="3.6176">
        <ele>253.44</ele>
        <time>2015-06-14T07:11:19Z</time>
      </trkpt>
      <trkpt lat="43.66133" lon="3.61742">
        <ele>254.89</ele>
        <time>2015-06-14T07:11:27Z</time>
      </trkpt>
      <trkpt lat="43.66134" lon="3.61724">
        <ele>256.33</ele>
        <time>2015-06-14T07:11:35Z</time>
      </trkpt>
      <trkpt lat="43.66136" lon="3.617">
        <ele>257.77</ele>
        <time>2015-06-14T07:11:45Z</time>
      </trkpt>
      <trkpt lat="43.66137" lon="3.61675">
        <ele>259.21</ele>
        <time>2015-06-14T07:11:56Z</time>
      </trkpt>
      <trkpt lat="43.66136" lon="3.61652">
        <ele>261.14</ele>
        <time>2015-06-14T07:12:05Z</time>
      </trkpt>
      <trkpt lat="43.66133" lon="3.61627">
        <ele>262.58</ele>
        <time>2015-06-14T07:12:15Z</time>
      </trkpt>
      <trkpt lat="43.6613" lon="3.61609">
        <ele>264.02</ele>
        <time>2015-06-14T07:12:23Z</time>
      </trkpt>
      <trkpt lat="43.66125" lon="3.61586">
        <ele>265.94</ele>
        <time>2015-06-14T07:12:34Z</time>
      </trkpt>
      <trkpt lat="43.66122" lon="3.61568">
        <ele>266.9</ele>
        <time>2015-06-14T07:12:42Z</time>
      </trkpt>
      <trkpt lat="43.66121" lon="3.6156">
        <ele>267.86</ele>
        <time>2015-06-14T07:12:46Z</time>
      </trkpt>
      <trkpt lat="43.66121" lon="3.61558">
        <ele>267.86</ele>
        <time>2015-06-14T07:12:47Z</time>
      </trkpt>
      <trkpt lat="43.66121" lon="3.61556">
        <ele>267.86</ele>
        <time>2015-06-14T07:12:48Z</time>
      </trkpt>
      <trkpt lat="43.66118" lon="3.6154">
        <ele>268.83</ele>
        <time>2015-06-14T07:12:56Z</time>
      </trkpt>
      <trkpt lat="43.66109" lon="3.61521">
        <ele>270.27</ele>
        <time>2015-06-14T07:13:05Z</time>
      </trkpt>
      <trkpt lat="43.66095" lon="3.61508">
        <ele>271.71</ele>
        <time>2015-06-14T07:13:15Z</time>
      </trkpt>
      <trkpt lat="43.66082" lon="3.61504">
        <ele>273.63</ele>
        <time>2015-06-14T07:13:24Z</time>
      </trkpt>
      <trkpt lat="43.66067" lon="3.61513">
        <ele>275.07</ele>
        <time>2015-06-14T07:13:34Z</time>
      </trkpt>
      <trkpt lat="43.66057" lon="3.61526">
        <ele>276.52</ele>
        <time>2015-06-14T07:13:43Z</time>
      </trkpt>
      <trkpt lat="43.66048" lon="3.61543">
        <ele>277.48</ele>
        <time>2015-06-14T07:13:53Z</time>
      </trkpt>
      <trkpt lat="43.66042" lon="3.61558">
        <ele>277.96</ele>
        <time>2015-06-14T07:14:01Z</time>
      </trkpt>
      <trkpt lat="43.66035" lon="3.61576">
        <ele>278.44</ele>
        <time>2015-06-14T07:14:09Z</time>
      </trkpt>
      <trkpt lat="43.66025" lon="3.61596">
        <ele>278.92</ele>
        <time>2015-06-14T07:14:18Z</time>
      </trkpt>
      <trkpt lat="43.66018" lon="3.61613">
        <ele>279.88</ele>
        <time>2015-06-14T07:14:26Z</time>
      </trkpt>
      <trkpt lat="43.66013" lon="3.61635">
        <ele>279.88</ele>
        <time>2015-06-14T07:14:34Z</time>
      </trkpt>
      <trkpt lat="43.66004" lon="3.61664">
        <ele>280.36</ele>
        <time>2015-06-14T07:14:44Z</time>
      </trkpt>
      <trkpt lat="43.65993" lon="3.6169">
        <ele>280.84</ele>
        <time>2015-06-14T07:14:54Z</time>
      </trkpt>
      <trkpt lat="43.65978" lon="3.61719">
        <ele>280.84</ele>
        <time>2015-06-14T07:15:05Z</time>
      </trkpt>
      <trkpt lat="43.65964" lon="3.6174">
        <ele>280.84</ele>
        <time>2015-06-14T07:15:13Z</time>
      </trkpt>
      <trkpt lat="43.65944" lon="3.61768">
        <ele>280.84</ele>
        <time>2015-06-14T07:15:22Z</time>
      </trkpt>
      <trkpt lat="43.65922" lon="3.61796">
        <ele>279.4</ele>
        <time>2015-06-14T07:15:31Z</time>
      </trkpt>
      <trkpt lat="43.65904" lon="3.61816">
        <ele>279.4</ele>
        <time>2015-06-14T07:15:38Z</time>
      </trkpt>
      <trkpt lat="43.65881" lon="3.61843">
        <ele>279.4</ele>
        <time>2015-06-14T07:15:47Z</time>
      </trkpt>
      <trkpt lat="43.65848" lon="3.61877">
        <ele>281.32</ele>
        <time>2015-06-14T07:15:59Z</time>
      </trkpt>
      <trkpt lat="43.65826" lon="3.61902">
        <ele>282.28</ele>
        <time>2015-06-14T07:16:08Z</time>
      </trkpt>
      <trkpt lat="43.65807" lon="3.61921">
        <ele>282.77</ele>
        <time>2015-06-14T07:16:16Z</time>
      </trkpt>
      <trkpt lat="43.65781" lon="3.61949">
        <ele>282.77</ele>
        <time>2015-06-14T07:16:25Z</time>
      </trkpt>
      <trkpt lat="43.65753" lon="3.6197">
        <ele>282.77</ele>
        <time>2015-06-14T07:16:34Z</time>
      </trkpt>
      <trkpt lat="43.65733" lon="3.62">
        <ele>282.77</ele>
        <time>2015-06-14T07:16:42Z</time>
      </trkpt>
      <trkpt lat="43.65722" lon="3.62035">
        <ele>284.21</ele>
        <time>2015-06-14T07:16:51Z</time>
      </trkpt>
      <trkpt lat="43.65716" lon="3.62057">
        <ele>284.69</ele>
        <time>2015-06-14T07:16:58Z</time>
      </trkpt>
      <trkpt lat="43.6571" lon="3.62089">
        <ele>285.65</ele>
        <time>2015-06-14T07:17:07Z</time>
      </trkpt>
      <trkpt lat="43.65703" lon="3.62112">
        <ele>287.09</ele>
        <time>2015-06-14T07:17:15Z</time>
      </trkpt>
      <trkpt lat="43.65697" lon="3.62139">
        <ele>288.05</ele>
        <time>2015-06-14T07:17:25Z</time>
      </trkpt>
      <trkpt lat="43.65693" lon="3.62157">
        <ele>289.01</ele>
        <time>2015-06-14T07:17:32Z</time>
      </trkpt>
      <trkpt lat="43.65689" lon="3.62179">
        <ele>290.46</ele>
        <time>2015-06-14T07:17:40Z</time>
      </trkpt>
      <trkpt lat="43.65687" lon="3.62197">
        <ele>290.94</ele>
        <time>2015-06-14T07:17:47Z</time>
      </trkpt>
      <trkpt lat="43.65686" lon="3.6222">
        <ele>292.86</ele>
        <time>2015-06-14T07:17:56Z</time>
      </trkpt>
      <trkpt lat="43.65685" lon="3.62242">
        <ele>294.3</ele>
        <time>2015-06-14T07:18:04Z</time>
      </trkpt>
      <trkpt lat="43.6568" lon="3.62266">
        <ele>296.22</ele>
        <time>2015-06-14T07:18:13Z</time>
      </trkpt>
      <trkpt lat="43.65677" lon="3.62286">
        <ele>297.67</ele>
        <time>2015-06-14T07:18:21Z</time>
      </trkpt>
      <trkpt lat="43.65675" lon="3.62309">
        <ele>299.11</ele>
        <time>2015-06-14T07:18:29Z</time>
      </trkpt>
      <trkpt lat="43.65674" lon="3.62331">
        <ele>300.55</ele>
        <time>2015-06-14T07:18:37Z</time>
      </trkpt>
      <trkpt lat="43.65674" lon="3.62357">
        <ele>301.03</ele>
        <time>2015-06-14T07:18:46Z</time>
      </trkpt>
      <trkpt lat="43.65677" lon="3.62392">
        <ele>302.95</ele>
        <time>2015-06-14T07:18:58Z</time>
      </trkpt>
      <trkpt lat="43.65679" lon="3.62416">
        <ele>303.91</ele>
        <time>2015-06-14T07:19:07Z</time>
      </trkpt>
      <trkpt lat="43.65682" lon="3.62448">
        <ele>304.88</ele>
        <time>2015-06-14T07:19:18Z</time>
      </trkpt>
      <trkpt lat="43.65684" lon="3.62478">
        <ele>305.84</ele>
        <time>2015-06-14T07:19:28Z</time>
      </trkpt>
      <trkpt lat="43.65687" lon="3.62505">
        <ele>306.8</ele>
        <time>2015-06-14T07:19:37Z</time>
      </trkpt>
      <trkpt lat="43.6569" lon="3.62532">
        <ele>307.28</ele>
        <time>2015-06-14T07:19:46Z</time>
      </trkpt>
      <trkpt lat="43.65695" lon="3.62563">
        <ele>307.76</ele>
        <time>2015-06-14T07:19:56Z</time>
      </trkpt>
      <trkpt lat="43.65701" lon="3.62596">
        <ele>305.84</ele>
        <time>2015-06-14T07:20:03Z</time>
      </trkpt>
      <trkpt lat="43.6571" lon="3.62649">
        <ele>304.39</ele>
        <time>2015-06-14T07:20:12Z</time>
      </trkpt>
      <trkpt lat="43.65718" lon="3.62685">
        <ele>304.39</ele>
        <time>2015-06-14T07:20:20Z</time>
      </trkpt>
      <trkpt lat="43.65727" lon="3.62714">
        <ele>306.32</ele>
        <time>2015-06-14T07:20:30Z</time>
      </trkpt>
      <trkpt lat="43.65736" lon="3.62733">
        <ele>307.76</ele>
        <time>2015-06-14T07:20:38Z</time>
      </trkpt>
      <trkpt lat="43.65743" lon="3.62751">
        <ele>309.2</ele>
        <time>2015-06-14T07:20:47Z</time>
      </trkpt>
      <trkpt lat="43.65748" lon="3.62772">
        <ele>311.12</ele>
        <time>2015-06-14T07:20:57Z</time>
      </trkpt>
      <trkpt lat="43.65751" lon="3.62789">
        <ele>313.05</ele>
        <time>2015-06-14T07:21:05Z</time>
      </trkpt>
      <trkpt lat="43.65755" lon="3.628">
        <ele>314.49</ele>
        <time>2015-06-14T07:21:11Z</time>
      </trkpt>
      <trkpt lat="43.65755" lon="3.62802">
        <ele>314.49</ele>
        <time>2015-06-14T07:21:12Z</time>
      </trkpt>
      <trkpt lat="43.65756" lon="3.62803">
        <ele>314.49</ele>
        <time>2015-06-14T07:21:13Z</time>
      </trkpt>
      <trkpt lat="43.65756" lon="3.62805">
        <ele>314.49</ele>
        <time>2015-06-14T07:21:14Z</time>
      </trkpt>
      <trkpt lat="43.65757" lon="3.62807">
        <ele>314.97</ele>
        <time>2015-06-14T07:21:15Z</time>
      </trkpt>
      <trkpt lat="43.65758" lon="3.62808">
        <ele>314.97</ele>
        <time>2015-06-14T07:21:16Z</time>
      </trkpt>
      <trkpt lat="43.65764" lon="3.62826">
        <ele>316.89</ele>
        <time>2015-06-14T07:21:27Z</time>
      </trkpt>
      <trkpt lat="43.65769" lon="3.6284">
        <ele>318.33</ele>
        <time>2015-06-14T07:21:36Z</time>
      </trkpt>
      <trkpt lat="43.65774" lon="3.62854">
        <ele>319.78</ele>
        <time>2015-06-14T07:21:43Z</time>
      </trkpt>
      <trkpt lat="43.65774" lon="3.62856">
        <ele>320.26</ele>
        <time>2015-06-14T07:21:44Z</time>
      </trkpt>
      <trkpt lat="43.65775" lon="3.62858">
        <ele>320.26</ele>
        <time>2015-06-14T07:21:45Z</time>
      </trkpt>
      <trkpt lat="43.65777" lon="3.62869">
        <ele>322.66</ele>
        <time>2015-06-14T07:21:51Z</time>
      </trkpt>
      <trkpt lat="43.65778" lon="3.62871">
        <ele>322.66</ele>
        <time>2015-06-14T07:21:55Z</time>
      </trkpt>
      <trkpt lat="43.65781" lon="3.62876">
        <ele>324.1</ele>
        <time>2015-06-14T07:22:03Z</time>
      </trkpt>
      <trkpt lat="43.65783" lon="3.62879">
        <ele>324.58</ele>
        <time>2015-06-14T07:22:11Z</time>
      </trkpt>
      <trkpt lat="43.65783" lon="3.62882">
        <ele>325.06</ele>
        <time>2015-06-14T07:22:22Z</time>
      </trkpt>
      <trkpt lat="43.65783" lon="3.62882">
        <ele>325.06</ele>
        <time>2015-06-14T07:22:28Z</time>
      </trkpt>
      <trkpt lat="43.65783" lon="3.62884">
        <ele>325.06</ele>
        <time>2015-06-14T07:22:31Z</time>
      </trkpt>
      <trkpt lat="43.65783" lon="3.62885">
        <ele>325.54</ele>
        <time>2015-06-14T07:22:32Z</time>
      </trkpt>
      <trkpt lat="43.65783" lon="3.6289">
        <ele>326.5</ele>
        <time>2015-06-14T07:22:40Z</time>
      </trkpt>
      <trkpt lat="43.65784" lon="3.62893">
        <ele>326.99</ele>
        <time>2015-06-14T07:22:50Z</time>
      </trkpt>
      <trkpt lat="43.65785" lon="3.62895">
        <ele>326.99</ele>
        <time>2015-06-14T07:22:51Z</time>
      </trkpt>
      <trkpt lat="43.65785" lon="3.62896">
        <ele>327.47</ele>
        <time>2015-06-14T07:22:52Z</time>
      </trkpt>
      <trkpt lat="43.65789" lon="3.62904">
        <ele>328.91</ele>
        <time>2015-06-14T07:22:58Z</time>
      </trkpt>
      <trkpt lat="43.65794" lon="3.62916">
        <ele>330.83</ele>
        <time>2015-06-14T07:23:06Z</time>
      </trkpt>
      <trkpt lat="43.65794" lon="3.62918">
        <ele>330.83</ele>
        <time>2015-06-14T07:23:07Z</time>
      </trkpt>
      <trkpt lat="43.65796" lon="3.62926">
        <ele>332.27</ele>
        <time>2015-06-14T07:23:13Z</time>
      </trkpt>
      <trkpt lat="43.65801" lon="3.62934">
        <ele>333.71</ele>
        <time>2015-06-14T07:23:20Z</time>
      </trkpt>
      <trkpt lat="43.65807" lon="3.62937">
        <ele>335.64</ele>
        <time>2015-06-14T07:23:26Z</time>
      </trkpt>
      <trkpt lat="43.65811" lon="3.62934">
        <ele>337.08</ele>
        <time>2015-06-14T07:23:30Z</time>
      </trkpt>
      <trkpt lat="43.65812" lon="3.62934">
        <ele>337.56</ele>
        <time>2015-06-14T07:23:31Z</time>
      </trkpt>
      <trkpt lat="43.65813" lon="3.62933">
        <ele>337.56</ele>
        <time>2015-06-14T07:23:32Z</time>
      </trkpt>
      <trkpt lat="43.65814" lon="3.62931">
        <ele>337.56</ele>
        <time>2015-06-14T07:23:33Z</time>
      </trkpt>
      <trkpt lat="43.65815" lon="3.6293">
        <ele>338.04</ele>
        <time>2015-06-14T07:23:34Z</time>
      </trkpt>
      <trkpt lat="43.65816" lon="3.62929">
        <ele>338.52</ele>
        <time>2015-06-14T07:23:35Z</time>
      </trkpt>
      <trkpt lat="43.65817" lon="3.62928">
        <ele>339</ele>
        <time>2015-06-14T07:23:36Z</time>
      </trkpt>
      <trkpt lat="43.65818" lon="3.62927">
        <ele>339</ele>
        <time>2015-06-14T07:23:37Z</time>
      </trkpt>
      <trkpt lat="43.65819" lon="3.62926">
        <ele>339</ele>
        <time>2015-06-14T07:23:38Z</time>
      </trkpt>
      <trkpt lat="43.6582" lon="3.62925">
        <ele>339.48</ele>
        <time>2015-06-14T07:23:39Z</time>
      </trkpt>
      <trkpt lat="43.65821" lon="3.62924">
        <ele>339.48</ele>
        <time>2015-06-14T07:23:40Z</time>
      </trkpt>
      <trkpt lat="43.65822" lon="3.62923">
        <ele>339.96</ele>
        <time>2015-06-14T07:23:41Z</time>
      </trkpt>
      <trkpt lat="43.65823" lon="3.62922">
        <ele>339.96</ele>
        <time>2015-06-14T07:23:42Z</time>
      </trkpt>
      <trkpt lat="43.65824" lon="3.62922">
        <ele>340.44</ele>
        <time>2015-06-14T07:23:43Z</time>
      </trkpt>
      <trkpt lat="43.65831" lon="3.62922">
        <ele>341.89</ele>
        <time>2015-06-14T07:23:50Z</time>
      </trkpt>
      <trkpt lat="43.65837" lon="3.62922">
        <ele>342.37</ele>
        <time>2015-06-14T07:23:57Z</time>
      </trkpt>
      <trkpt lat="43.65838" lon="3.62921">
        <ele>342.37</ele>
        <time>2015-06-14T07:24:01Z</time>
      </trkpt>
      <trkpt lat="43.65839" lon="3.62921">
        <ele>342.85</ele>
        <time>2015-06-14T07:24:07Z</time>
      </trkpt>
      <trkpt lat="43.6584" lon="3.6292">
        <ele>342.85</ele>
        <time>2015-06-14T07:24:14Z</time>
      </trkpt>
      <trkpt lat="43.65846" lon="3.62921">
        <ele>343.33</ele>
        <time>2015-06-14T07:24:21Z</time>
      </trkpt>
      <trkpt lat="43.65852" lon="3.62925">
        <ele>344.29</ele>
        <time>2015-06-14T07:24:28Z</time>
      </trkpt>
      <trkpt lat="43.65861" lon="3.62929">
        <ele>345.73</ele>
        <time>2015-06-14T07:24:38Z</time>
      </trkpt>
      <trkpt lat="43.65867" lon="3.62932">
        <ele>346.21</ele>
        <time>2015-06-14T07:24:45Z</time>
      </trkpt>
      <trkpt lat="43.65874" lon="3.62936">
        <ele>347.17</ele>
        <time>2015-06-14T07:24:53Z</time>
      </trkpt>
      <trkpt lat="43.65881" lon="3.62938">
        <ele>348.13</ele>
        <time>2015-06-14T07:25:01Z</time>
      </trkpt>
      <trkpt lat="43.65887" lon="3.6294">
        <ele>348.62</ele>
        <time>2015-06-14T07:25:08Z</time>
      </trkpt>
      <trkpt lat="43.65889" lon="3.6294">
        <ele>348.62</ele>
        <time>2015-06-14T07:25:09Z</time>
      </trkpt>
      <trkpt lat="43.65891" lon="3.62939">
        <ele>348.62</ele>
        <time>2015-06-14T07:25:10Z</time>
      </trkpt>
      <trkpt lat="43.65892" lon="3.6294">
        <ele>348.62</ele>
        <time>2015-06-14T07:25:11Z</time>
      </trkpt>
      <trkpt lat="43.65894" lon="3.62939">
        <ele>348.13</ele>
        <time>2015-06-14T07:25:17Z</time>
      </trkpt>
      <trkpt lat="43.65895" lon="3.62939">
        <ele>348.62</ele>
        <time>2015-06-14T07:25:27Z</time>
      </trkpt>
      <trkpt lat="43.65897" lon="3.62939">
        <ele>348.62</ele>
        <time>2015-06-14T07:25:28Z</time>
      </trkpt>
      <trkpt lat="43.65899" lon="3.62938">
        <ele>348.62</ele>
        <time>2015-06-14T07:25:29Z</time>
      </trkpt>
      <trkpt lat="43.65912" lon="3.62939">
        <ele>348.62</ele>
        <time>2015-06-14T07:25:37Z</time>
      </trkpt>
      <trkpt lat="43.65925" lon="3.6294">
        <ele>348.62</ele>
        <time>2015-06-14T07:25:43Z</time>
      </trkpt>
      <trkpt lat="43.65927" lon="3.62941">
        <ele>348.62</ele>
        <time>2015-06-14T07:25:44Z</time>
      </trkpt>
      <trkpt lat="43.65928" lon="3.62942">
        <ele>348.62</ele>
        <time>2015-06-14T07:25:45Z</time>
      </trkpt>
      <trkpt lat="43.65929" lon="3.62943">
        <ele>349.1</ele>
        <time>2015-06-14T07:25:46Z</time>
      </trkpt>
      <trkpt lat="43.6593" lon="3.62943">
        <ele>349.1</ele>
        <time>2015-06-14T07:25:47Z</time>
      </trkpt>
      <trkpt lat="43.65931" lon="3.62943">
        <ele>349.1</ele>
        <time>2015-06-14T07:25:48Z</time>
      </trkpt>
      <trkpt lat="43.65944" lon="3.62948">
        <ele>350.06</ele>
        <time>2015-06-14T07:25:57Z</time>
      </trkpt>
      <trkpt lat="43.65954" lon="3.6295">
        <ele>351.02</ele>
        <time>2015-06-14T07:26:04Z</time>
      </trkpt>
      <trkpt lat="43.65956" lon="3.6295">
        <ele>351.5</ele>
        <time>2015-06-14T07:26:05Z</time>
      </trkpt>
      <trkpt lat="43.65957" lon="3.62951">
        <ele>351.98</ele>
        <time>2015-06-14T07:26:06Z</time>
      </trkpt>
      <trkpt lat="43.65958" lon="3.62951">
        <ele>351.98</ele>
        <time>2015-06-14T07:26:07Z</time>
      </trkpt>
      <trkpt lat="43.6596" lon="3.62951">
        <ele>352.46</ele>
        <time>2015-06-14T07:26:08Z</time>
      </trkpt>
      <trkpt lat="43.65961" lon="3.62951">
        <ele>352.46</ele>
        <time>2015-06-14T07:26:09Z</time>
      </trkpt>
      <trkpt lat="43.65963" lon="3.62951">
        <ele>352.46</ele>
        <time>2015-06-14T07:26:10Z</time>
      </trkpt>
      <trkpt lat="43.65964" lon="3.62951">
        <ele>353.42</ele>
        <time>2015-06-14T07:26:11Z</time>
      </trkpt>
      <trkpt lat="43.65965" lon="3.62952">
        <ele>353.9</ele>
        <time>2015-06-14T07:26:12Z</time>
      </trkpt>
      <trkpt lat="43.65969" lon="3.62952">
        <ele>354.38</ele>
        <time>2015-06-14T07:26:17Z</time>
      </trkpt>
      <trkpt lat="43.65971" lon="3.62952">
        <ele>354.86</ele>
        <time>2015-06-14T07:26:18Z</time>
      </trkpt>
      <trkpt lat="43.65972" lon="3.62952">
        <ele>354.86</ele>
        <time>2015-06-14T07:26:19Z</time>
      </trkpt>
      <trkpt lat="43.65973" lon="3.62952">
        <ele>354.86</ele>
        <time>2015-06-14T07:26:20Z</time>
      </trkpt>
      <trkpt lat="43.65974" lon="3.62953">
        <ele>355.34</ele>
        <time>2015-06-14T07:26:21Z</time>
      </trkpt>
      <trkpt lat="43.65973" lon="3.62954">
        <ele>355.83</ele>
        <time>2015-06-14T07:26:25Z</time>
      </trkpt>
      <trkpt lat="43.65978" lon="3.62957">
        <ele>356.31</ele>
        <time>2015-06-14T07:26:32Z</time>
      </trkpt>
      <trkpt lat="43.65984" lon="3.6296">
        <ele>357.75</ele>
        <time>2015-06-14T07:26:41Z</time>
      </trkpt>
      <trkpt lat="43.65988" lon="3.62962">
        <ele>358.71</ele>
        <time>2015-06-14T07:26:49Z</time>
      </trkpt>
      <trkpt lat="43.65994" lon="3.62964">
        <ele>360.15</ele>
        <time>2015-06-14T07:26:58Z</time>
      </trkpt>
      <trkpt lat="43.65999" lon="3.62967">
        <ele>361.11</ele>
        <time>2015-06-14T07:27:06Z</time>
      </trkpt>
      <trkpt lat="43.66003" lon="3.62968">
        <ele>361.59</ele>
        <time>2015-06-14T07:27:14Z</time>
      </trkpt>
      <trkpt lat="43.66005" lon="3.62968">
        <ele>361.59</ele>
        <time>2015-06-14T07:27:18Z</time>
      </trkpt>
      <trkpt lat="43.66006" lon="3.62968">
        <ele>361.59</ele>
        <time>2015-06-14T07:27:19Z</time>
      </trkpt>
      <trkpt lat="43.66007" lon="3.62969">
        <ele>361.59</ele>
        <time>2015-06-14T07:27:20Z</time>
      </trkpt>
      <trkpt lat="43.66009" lon="3.6297">
        <ele>361.59</ele>
        <time>2015-06-14T07:27:21Z</time>
      </trkpt>
      <trkpt lat="43.6601" lon="3.6297">
        <ele>362.07</ele>
        <time>2015-06-14T07:27:22Z</time>
      </trkpt>
      <trkpt lat="43.66011" lon="3.62971">
        <ele>362.55</ele>
        <time>2015-06-14T07:27:23Z</time>
      </trkpt>
      <trkpt lat="43.66012" lon="3.62971">
        <ele>362.55</ele>
        <time>2015-06-14T07:27:24Z</time>
      </trkpt>
      <trkpt lat="43.66013" lon="3.62971">
        <ele>362.55</ele>
        <time>2015-06-14T07:27:25Z</time>
      </trkpt>
      <trkpt lat="43.66015" lon="3.62971">
        <ele>362.55</ele>
        <time>2015-06-14T07:27:26Z</time>
      </trkpt>
      <trkpt lat="43.66028" lon="3.62969">
        <ele>363.52</ele>
        <time>2015-06-14T07:27:34Z</time>
      </trkpt>
      <trkpt lat="43.66036" lon="3.62956">
        <ele>363.52</ele>
        <time>2015-06-14T07:27:39Z</time>
      </trkpt>
      <trkpt lat="43.6604" lon="3.62953">
        <ele>362.07</ele>
        <time>2015-06-14T07:27:40Z</time>
      </trkpt>
      <trkpt lat="43.66044" lon="3.62952">
        <ele>362.07</ele>
        <time>2015-06-14T07:27:41Z</time>
      </trkpt>
      <trkpt lat="43.66048" lon="3.62954">
        <ele>362.07</ele>
        <time>2015-06-14T07:27:42Z</time>
      </trkpt>
      <trkpt lat="43.66049" lon="3.62955">
        <ele>362.07</ele>
        <time>2015-06-14T07:27:43Z</time>
      </trkpt>
      <trkpt lat="43.66051" lon="3.62956">
        <ele>362.07</ele>
        <time>2015-06-14T07:27:44Z</time>
      </trkpt>
      <trkpt lat="43.66052" lon="3.62958">
        <ele>362.07</ele>
        <time>2015-06-14T07:27:45Z</time>
      </trkpt>
      <trkpt lat="43.66054" lon="3.6296">
        <ele>363.04</ele>
        <time>2015-06-14T07:27:47Z</time>
      </trkpt>
      <trkpt lat="43.66055" lon="3.62961">
        <ele>364</ele>
        <time>2015-06-14T07:27:48Z</time>
      </trkpt>
      <trkpt lat="43.66067" lon="3.62974">
        <ele>365.92</ele>
        <time>2015-06-14T07:27:58Z</time>
      </trkpt>
      <trkpt lat="43.66076" lon="3.62981">
        <ele>365.92</ele>
        <time>2015-06-14T07:28:06Z</time>
      </trkpt>
      <trkpt lat="43.66076" lon="3.62982">
        <ele>365.92</ele>
        <time>2015-06-14T07:28:14Z</time>
      </trkpt>
      <trkpt lat="43.66076" lon="3.62982">
        <ele>366.4</ele>
        <time>2015-06-14T07:28:27Z</time>
      </trkpt>
      <trkpt lat="43.66077" lon="3.62981">
        <ele>366.4</ele>
        <time>2015-06-14T07:28:37Z</time>
      </trkpt>
      <trkpt lat="43.66077" lon="3.62981">
        <ele>366.4</ele>
        <time>2015-06-14T07:28:46Z</time>
      </trkpt>
      <trkpt lat="43.66076" lon="3.62983">
        <ele>365.92</ele>
        <time>2015-06-14T07:28:55Z</time>
      </trkpt>
      <trkpt lat="43.66076" lon="3.62982">
        <ele>365.92</ele>
        <time>2015-06-14T07:29:11Z</time>
      </trkpt>
      <trkpt lat="43.66081" lon="3.62983">
        <ele>365.92</ele>
        <time>2015-06-14T07:29:21Z</time>
      </trkpt>
      <trkpt lat="43.66098" lon="3.62989">
        <ele>364.48</ele>
        <time>2015-06-14T07:29:28Z</time>
      </trkpt>
      <trkpt lat="43.66112" lon="3.62992">
        <ele>361.11</ele>
        <time>2015-06-14T07:29:32Z</time>
      </trkpt>
      <trkpt lat="43.66115" lon="3.6299">
        <ele>360.63</ele>
        <time>2015-06-14T07:29:33Z</time>
      </trkpt>
      <trkpt lat="43.6612" lon="3.62987">
        <ele>359.67</ele>
        <time>2015-06-14T07:29:34Z</time>
      </trkpt>
      <trkpt lat="43.66126" lon="3.62983">
        <ele>358.23</ele>
        <time>2015-06-14T07:29:35Z</time>
      </trkpt>
      <trkpt lat="43.66131" lon="3.62981">
        <ele>356.79</ele>
        <time>2015-06-14T07:29:36Z</time>
      </trkpt>
      <trkpt lat="43.66136" lon="3.62979">
        <ele>355.34</ele>
        <time>2015-06-14T07:29:37Z</time>
      </trkpt>
      <trkpt lat="43.66142" lon="3.62979">
        <ele>353.42</ele>
        <time>2015-06-14T07:29:38Z</time>
      </trkpt>
      <trkpt lat="43.66148" lon="3.62979">
        <ele>351.98</ele>
        <time>2015-06-14T07:29:39Z</time>
      </trkpt>
      <trkpt lat="43.66155" lon="3.6298">
        <ele>350.06</ele>
        <time>2015-06-14T07:29:40Z</time>
      </trkpt>
      <trkpt lat="43.66162" lon="3.62981">
        <ele>348.62</ele>
        <time>2015-06-14T07:29:41Z</time>
      </trkpt>
      <trkpt lat="43.6617" lon="3.6298">
        <ele>347.17</ele>
        <time>2015-06-14T07:29:42Z</time>
      </trkpt>
      <trkpt lat="43.66177" lon="3.62978">
        <ele>346.69</ele>
        <time>2015-06-14T07:29:43Z</time>
      </trkpt>
      <trkpt lat="43.66184" lon="3.62976">
        <ele>346.69</ele>
        <time>2015-06-14T07:29:44Z</time>
      </trkpt>
      <trkpt lat="43.66191" lon="3.62973">
        <ele>346.69</ele>
        <time>2015-06-14T07:29:45Z</time>
      </trkpt>
      <trkpt lat="43.66198" lon="3.62971">
        <ele>345.73</ele>
        <time>2015-06-14T07:29:46Z</time>
      </trkpt>
      <trkpt lat="43.66204" lon="3.6297">
        <ele>345.73</ele>
        <time>2015-06-14T07:29:47Z</time>
      </trkpt>
      <trkpt lat="43.66208" lon="3.62971">
        <ele>345.73</ele>
        <time>2015-06-14T07:29:48Z</time>
      </trkpt>
      <trkpt lat="43.66211" lon="3.62973">
        <ele>345.73</ele>
        <time>2015-06-14T07:29:49Z</time>
      </trkpt>
      <trkpt lat="43.66212" lon="3.62976">
        <ele>345.73</ele>
        <time>2015-06-14T07:29:50Z</time>
      </trkpt>
      <trkpt lat="43.66213" lon="3.62984">
        <ele>348.13</ele>
        <time>2015-06-14T07:29:53Z</time>
      </trkpt>
      <trkpt lat="43.66214" lon="3.62987">
        <ele>348.13</ele>
        <time>2015-06-14T07:29:54Z</time>
      </trkpt>
      <trkpt lat="43.66215" lon="3.62991">
        <ele>348.62</ele>
        <time>2015-06-14T07:29:56Z</time>
      </trkpt>
      <trkpt lat="43.66217" lon="3.62993">
        <ele>348.62</ele>
        <time>2015-06-14T07:29:57Z</time>
      </trkpt>
      <trkpt lat="43.66219" lon="3.62993">
        <ele>348.62</ele>
        <time>2015-06-14T07:29:58Z</time>
      </trkpt>
      <trkpt lat="43.6622" lon="3.62993">
        <ele>348.62</ele>
        <time>2015-06-14T07:29:59Z</time>
      </trkpt>
      <trkpt lat="43.66222" lon="3.62993">
        <ele>348.62</ele>
        <time>2015-06-14T07:30:00Z</time>
      </trkpt>
      <trkpt lat="43.66224" lon="3.62992">
        <ele>348.62</ele>
        <time>2015-06-14T07:30:01Z</time>
      </trkpt>
      <trkpt lat="43.66226" lon="3.62992">
        <ele>348.62</ele>
        <time>2015-06-14T07:30:02Z</time>
      </trkpt>
      <trkpt lat="43.6623" lon="3.62991">
        <ele>349.1</ele>
        <time>2015-06-14T07:30:07Z</time>
      </trkpt>
      <trkpt lat="43.66234" lon="3.6299">
        <ele>349.1</ele>
        <time>2015-06-14T07:30:12Z</time>
      </trkpt>
      <trkpt lat="43.66235" lon="3.62989">
        <ele>349.1</ele>
        <time>2015-06-14T07:30:13Z</time>
      </trkpt>
      <trkpt lat="43.66237" lon="3.62988">
        <ele>349.58</ele>
        <time>2015-06-14T07:30:19Z</time>
      </trkpt>
      <trkpt lat="43.66237" lon="3.62988">
        <ele>349.58</ele>
        <time>2015-06-14T07:30:27Z</time>
      </trkpt>
      <trkpt lat="43.66239" lon="3.62987">
        <ele>350.06</ele>
        <time>2015-06-14T07:30:29Z</time>
      </trkpt>
      <trkpt lat="43.6624" lon="3.62987">
        <ele>350.06</ele>
        <time>2015-06-14T07:30:30Z</time>
      </trkpt>
      <trkpt lat="43.66249" lon="3.6298">
        <ele>351.02</ele>
        <time>2015-06-14T07:30:36Z</time>
      </trkpt>
      <trkpt lat="43.66263" lon="3.62971">
        <ele>352.46</ele>
        <time>2015-06-14T07:30:45Z</time>
      </trkpt>
      <trkpt lat="43.66268" lon="3.62968">
        <ele>353.42</ele>
        <time>2015-06-14T07:30:49Z</time>
      </trkpt>
      <trkpt lat="43.66269" lon="3.62967">
        <ele>353.42</ele>
        <time>2015-06-14T07:30:50Z</time>
      </trkpt>
      <trkpt lat="43.6627" lon="3.62966">
        <ele>353.9</ele>
        <time>2015-06-14T07:30:51Z</time>
      </trkpt>
      <trkpt lat="43.66272" lon="3.62965">
        <ele>353.9</ele>
        <time>2015-06-14T07:30:52Z</time>
      </trkpt>
      <trkpt lat="43.66273" lon="3.62964">
        <ele>354.38</ele>
        <time>2015-06-14T07:30:53Z</time>
      </trkpt>
      <trkpt lat="43.66274" lon="3.62963">
        <ele>354.38</ele>
        <time>2015-06-14T07:30:54Z</time>
      </trkpt>
      <trkpt lat="43.66275" lon="3.62961">
        <ele>354.86</ele>
        <time>2015-06-14T07:30:55Z</time>
      </trkpt>
      <trkpt lat="43.66276" lon="3.62959">
        <ele>354.86</ele>
        <time>2015-06-14T07:30:56Z</time>
      </trkpt>
      <trkpt lat="43.66277" lon="3.62957">
        <ele>354.86</ele>
        <time>2015-06-14T07:30:57Z</time>
      </trkpt>
      <trkpt lat="43.66278" lon="3.62956">
        <ele>354.86</ele>
        <time>2015-06-14T07:30:58Z</time>
      </trkpt>
      <trkpt lat="43.66279" lon="3.62954">
        <ele>355.34</ele>
        <time>2015-06-14T07:30:59Z</time>
      </trkpt>
      <trkpt lat="43.66286" lon="3.62948">
        <ele>356.31</ele>
        <time>2015-06-14T07:31:05Z</time>
      </trkpt>
      <trkpt lat="43.66292" lon="3.6294">
        <ele>357.75</ele>
        <time>2015-06-14T07:31:13Z</time>
      </trkpt>
      <trkpt lat="43.66296" lon="3.62929">
        <ele>358.71</ele>
        <time>2015-06-14T07:31:20Z</time>
      </trkpt>
      <trkpt lat="43.66304" lon="3.62914">
        <ele>360.15</ele>
        <time>2015-06-14T07:31:30Z</time>
      </trkpt>
      <trkpt lat="43.66306" lon="3.62913">
        <ele>360.15</ele>
        <time>2015-06-14T07:31:31Z</time>
      </trkpt>
      <trkpt lat="43.66307" lon="3.62912">
        <ele>360.63</ele>
        <time>2015-06-14T07:31:32Z</time>
      </trkpt>
      <trkpt lat="43.66308" lon="3.62912">
        <ele>360.63</ele>
        <time>2015-06-14T07:31:33Z</time>
      </trkpt>
      <trkpt lat="43.6631" lon="3.62911">
        <ele>361.11</ele>
        <time>2015-06-14T07:31:34Z</time>
      </trkpt>
      <trkpt lat="43.66311" lon="3.6291">
        <ele>361.11</ele>
        <time>2015-06-14T07:31:35Z</time>
      </trkpt>
      <trkpt lat="43.66313" lon="3.62909">
        <ele>361.11</ele>
        <time>2015-06-14T07:31:36Z</time>
      </trkpt>
      <trkpt lat="43.66314" lon="3.62908">
        <ele>361.11</ele>
        <time>2015-06-14T07:31:37Z</time>
      </trkpt>
      <trkpt lat="43.66315" lon="3.62907">
        <ele>361.59</ele>
        <time>2015-06-14T07:31:38Z</time>
      </trkpt>
      <trkpt lat="43.66316" lon="3.62905">
        <ele>361.59</ele>
        <time>2015-06-14T07:31:39Z</time>
      </trkpt>
      <trkpt lat="43.66317" lon="3.62904">
        <ele>361.59</ele>
        <time>2015-06-14T07:31:40Z</time>
      </trkpt>
      <trkpt lat="43.66318" lon="3.62902">
        <ele>361.59</ele>
        <time>2015-06-14T07:31:41Z</time>
      </trkpt>
      <trkpt lat="43.66319" lon="3.629">
        <ele>361.59</ele>
        <time>2015-06-14T07:31:42Z</time>
      </trkpt>
      <trkpt lat="43.66321" lon="3.62899">
        <ele>361.59</ele>
        <time>2015-06-14T07:31:43Z</time>
      </trkpt>
      <trkpt lat="43.66322" lon="3.62897">
        <ele>361.59</ele>
        <time>2015-06-14T07:31:44Z</time>
      </trkpt>
      <trkpt lat="43.66323" lon="3.62896">
        <ele>361.59</ele>
        <time>2015-06-14T07:31:45Z</time>
      </trkpt>
      <trkpt lat="43.66332" lon="3.62888">
        <ele>362.55</ele>
        <time>2015-06-14T07:31:53Z</time>
      </trkpt>
      <trkpt lat="43.66333" lon="3.62887">
        <ele>362.55</ele>
        <time>2015-06-14T07:31:54Z</time>
      </trkpt>
      <trkpt lat="43.66334" lon="3.62886">
        <ele>363.04</ele>
        <time>2015-06-14T07:31:55Z</time>
      </trkpt>
      <trkpt lat="43.66335" lon="3.62885">
        <ele>363.04</ele>
        <time>2015-06-14T07:31:56Z</time>
      </trkpt>
      <trkpt lat="43.6634" lon="3.62875">
        <ele>363.52</ele>
        <time>2015-06-14T07:32:02Z</time>
      </trkpt>
      <trkpt lat="43.6634" lon="3.62874">
        <ele>364</ele>
        <time>2015-06-14T07:32:03Z</time>
      </trkpt>
      <trkpt lat="43.66341" lon="3.62871">
        <ele>364</ele>
        <time>2015-06-14T07:32:04Z</time>
      </trkpt>
      <trkpt lat="43.66341" lon="3.6287">
        <ele>364</ele>
        <time>2015-06-14T07:32:05Z</time>
      </trkpt>
      <trkpt lat="43.66342" lon="3.62868">
        <ele>364.48</ele>
        <time>2015-06-14T07:32:06Z</time>
      </trkpt>
      <trkpt lat="43.66342" lon="3.62866">
        <ele>364.48</ele>
        <time>2015-06-14T07:32:07Z</time>
      </trkpt>
      <trkpt lat="43.66346" lon="3.62852">
        <ele>364.48</ele>
        <time>2015-06-14T07:32:14Z</time>
      </trkpt>
      <trkpt lat="43.6635" lon="3.6284">
        <ele>364.48</ele>
        <time>2015-06-14T07:32:20Z</time>
      </trkpt>
      <trkpt lat="43.66359" lon="3.62813">
        <ele>364.48</ele>
        <time>2015-06-14T07:32:28Z</time>
      </trkpt>
      <trkpt lat="43.66376" lon="3.62788">
        <ele>364.48</ele>
        <time>2015-06-14T07:32:37Z</time>
      </trkpt>
      <trkpt lat="43.66389" lon="3.62766">
        <ele>363.52</ele>
        <time>2015-06-14T07:32:44Z</time>
      </trkpt>
      <trkpt lat="43.66405" lon="3.62752">
        <ele>361.11</ele>
        <time>2015-06-14T07:32:49Z</time>
      </trkpt>
      <trkpt lat="43.66409" lon="3.62747">
        <ele>361.11</ele>
        <time>2015-06-14T07:32:50Z</time>
      </trkpt>
      <trkpt lat="43.66411" lon="3.62743">
        <ele>360.15</ele>
        <time>2015-06-14T07:32:51Z</time>
      </trkpt>
      <trkpt lat="43.66421" lon="3.62722">
        <ele>358.23</ele>
        <time>2015-06-14T07:32:54Z</time>
      </trkpt>
      <trkpt lat="43.66428" lon="3.62709">
        <ele>356.79</ele>
        <time>2015-06-14T07:32:56Z</time>
      </trkpt>
      <trkpt lat="43.66431" lon="3.62701">
        <ele>355.83</ele>
        <time>2015-06-14T07:32:57Z</time>
      </trkpt>
      <trkpt lat="43.66438" lon="3.62684">
        <ele>354.38</ele>
        <time>2015-06-14T07:32:59Z</time>
      </trkpt>
      <trkpt lat="43.66442" lon="3.62676">
        <ele>352.94</ele>
        <time>2015-06-14T07:33:00Z</time>
      </trkpt>
      <trkpt lat="43.66447" lon="3.62669">
        <ele>351.5</ele>
        <time>2015-06-14T07:33:01Z</time>
      </trkpt>
      <trkpt lat="43.66451" lon="3.62662">
        <ele>350.06</ele>
        <time>2015-06-14T07:33:02Z</time>
      </trkpt>
      <trkpt lat="43.66454" lon="3.62655">
        <ele>350.06</ele>
        <time>2015-06-14T07:33:03Z</time>
      </trkpt>
      <trkpt lat="43.66457" lon="3.62648">
        <ele>348.62</ele>
        <time>2015-06-14T07:33:04Z</time>
      </trkpt>
      <trkpt lat="43.66459" lon="3.6264">
        <ele>347.65</ele>
        <time>2015-06-14T07:33:05Z</time>
      </trkpt>
      <trkpt lat="43.66462" lon="3.62613">
        <ele>343.81</ele>
        <time>2015-06-14T07:33:08Z</time>
      </trkpt>
      <trkpt lat="43.66463" lon="3.62605">
        <ele>343.33</ele>
        <time>2015-06-14T07:33:09Z</time>
      </trkpt>
      <trkpt lat="43.66465" lon="3.62597">
        <ele>341.89</ele>
        <time>2015-06-14T07:33:10Z</time>
      </trkpt>
      <trkpt lat="43.66467" lon="3.6259">
        <ele>341.41</ele>
        <time>2015-06-14T07:33:11Z</time>
      </trkpt>
      <trkpt lat="43.66467" lon="3.62583">
        <ele>339.96</ele>
        <time>2015-06-14T07:33:12Z</time>
      </trkpt>
      <trkpt lat="43.66465" lon="3.62575">
        <ele>339</ele>
        <time>2015-06-14T07:33:13Z</time>
      </trkpt>
      <trkpt lat="43.66463" lon="3.62566">
        <ele>338.04</ele>
        <time>2015-06-14T07:33:14Z</time>
      </trkpt>
      <trkpt lat="43.6646" lon="3.6255">
        <ele>336.12</ele>
        <time>2015-06-14T07:33:16Z</time>
      </trkpt>
      <trkpt lat="43.66462" lon="3.62544">
        <ele>335.64</ele>
        <time>2015-06-14T07:33:17Z</time>
      </trkpt>
      <trkpt lat="43.66465" lon="3.62538">
        <ele>334.68</ele>
        <time>2015-06-14T07:33:18Z</time>
      </trkpt>
      <trkpt lat="43.66469" lon="3.62532">
        <ele>333.71</ele>
        <time>2015-06-14T07:33:19Z</time>
      </trkpt>
      <trkpt lat="43.66473" lon="3.62526">
        <ele>333.23</ele>
        <time>2015-06-14T07:33:20Z</time>
      </trkpt>
      <trkpt lat="43.66476" lon="3.62521">
        <ele>332.27</ele>
        <time>2015-06-14T07:33:21Z</time>
      </trkpt>
      <trkpt lat="43.6648" lon="3.62516">
        <ele>331.79</ele>
        <time>2015-06-14T07:33:22Z</time>
      </trkpt>
      <trkpt lat="43.66484" lon="3.62512">
        <ele>331.31</ele>
        <time>2015-06-14T07:33:23Z</time>
      </trkpt>
      <trkpt lat="43.66486" lon="3.62509">
        <ele>331.31</ele>
        <time>2015-06-14T07:33:24Z</time>
      </trkpt>
      <trkpt lat="43.66486" lon="3.62506">
        <ele>330.83</ele>
        <time>2015-06-14T07:33:25Z</time>
      </trkpt>
      <trkpt lat="43.66485" lon="3.62505">
        <ele>330.83</ele>
        <time>2015-06-14T07:33:26Z</time>
      </trkpt>
      <trkpt lat="43.66484" lon="3.62503">
        <ele>330.83</ele>
        <time>2015-06-14T07:33:27Z</time>
      </trkpt>
      <trkpt lat="43.66483" lon="3.625">
        <ele>330.35</ele>
        <time>2015-06-14T07:33:28Z</time>
      </trkpt>
      <trkpt lat="43.66475" lon="3.62495">
        <ele>329.87</ele>
        <time>2015-06-14T07:33:33Z</time>
      </trkpt>
      <trkpt lat="43.66473" lon="3.62493">
        <ele>329.87</ele>
        <time>2015-06-14T07:33:38Z</time>
      </trkpt>
      <trkpt lat="43.66471" lon="3.62488">
        <ele>328.91</ele>
        <time>2015-06-14T07:33:43Z</time>
      </trkpt>
      <trkpt lat="43.66468" lon="3.62486">
        <ele>328.43</ele>
        <time>2015-06-14T07:33:46Z</time>
      </trkpt>
      <trkpt lat="43.66454" lon="3.62486">
        <ele>327.95</ele>
        <time>2015-06-14T07:33:53Z</time>
      </trkpt>
      <trkpt lat="43.66447" lon="3.62484">
        <ele>327.95</ele>
        <time>2015-06-14T07:33:58Z</time>
      </trkpt>
      <trkpt lat="43.66447" lon="3.62478">
        <ele>326.99</ele>
        <time>2015-06-14T07:34:01Z</time>
      </trkpt>
      <trkpt lat="43.66446" lon="3.62474">
        <ele>326.99</ele>
        <time>2015-06-14T07:34:03Z</time>
      </trkpt>
      <trkpt lat="43.6645" lon="3.62468">
        <ele>325.54</ele>
        <time>2015-06-14T07:34:06Z</time>
      </trkpt>
      <trkpt lat="43.66452" lon="3.62454">
        <ele>324.1</ele>
        <time>2015-06-14T07:34:09Z</time>
      </trkpt>
      <trkpt lat="43.66455" lon="3.62446">
        <ele>323.14</ele>
        <time>2015-06-14T07:34:11Z</time>
      </trkpt>
      <trkpt lat="43.66464" lon="3.6243">
        <ele>321.22</ele>
        <time>2015-06-14T07:34:16Z</time>
      </trkpt>
      <trkpt lat="43.66468" lon="3.62423">
        <ele>320.74</ele>
        <time>2015-06-14T07:34:18Z</time>
      </trkpt>
      <trkpt lat="43.66469" lon="3.62418">
        <ele>320.26</ele>
        <time>2015-06-14T07:34:20Z</time>
      </trkpt>
      <trkpt lat="43.66474" lon="3.62397">
        <ele>318.33</ele>
        <time>2015-06-14T07:34:26Z</time>
      </trkpt>
      <trkpt lat="43.66477" lon="3.62384">
        <ele>316.41</ele>
        <time>2015-06-14T07:34:29Z</time>
      </trkpt>
      <trkpt lat="43.66477" lon="3.62369">
        <ele>314.49</ele>
        <time>2015-06-14T07:34:34Z</time>
      </trkpt>
      <trkpt lat="43.66477" lon="3.62359">
        <ele>313.05</ele>
        <time>2015-06-14T07:34:38Z</time>
      </trkpt>
      <trkpt lat="43.66472" lon="3.62355">
        <ele>313.05</ele>
        <time>2015-06-14T07:34:43Z</time>
      </trkpt>
      <trkpt lat="43.66472" lon="3.62354">
        <ele>313.05</ele>
        <time>2015-06-14T07:34:54Z</time>
      </trkpt>
      <trkpt lat="43.66471" lon="3.62341">
        <ele>311.12</ele>
        <time>2015-06-14T07:35:00Z</time>
      </trkpt>
      <trkpt lat="43.66469" lon="3.62335">
        <ele>310.16</ele>
        <time>2015-06-14T07:35:04Z</time>
      </trkpt>
      <trkpt lat="43.66471" lon="3.62329">
        <ele>309.68</ele>
        <time>2015-06-14T07:35:10Z</time>
      </trkpt>
      <trkpt lat="43.66473" lon="3.62315">
        <ele>307.28</ele>
        <time>2015-06-14T07:35:15Z</time>
      </trkpt>
      <trkpt lat="43.66474" lon="3.62312">
        <ele>306.8</ele>
        <time>2015-06-14T07:35:16Z</time>
      </trkpt>
      <trkpt lat="43.66479" lon="3.62301">
        <ele>305.84</ele>
        <time>2015-06-14T07:35:19Z</time>
      </trkpt>
      <trkpt lat="43.66476" lon="3.62289">
        <ele>303.91</ele>
        <time>2015-06-14T07:35:23Z</time>
      </trkpt>
      <trkpt lat="43.66475" lon="3.62271">
        <ele>301.51</ele>
        <time>2015-06-14T07:35:28Z</time>
      </trkpt>
      <trkpt lat="43.66485" lon="3.62259">
        <ele>299.59</ele>
        <time>2015-06-14T07:35:31Z</time>
      </trkpt>
      <trkpt lat="43.66484" lon="3.62242">
        <ele>297.67</ele>
        <time>2015-06-14T07:35:35Z</time>
      </trkpt>
      <trkpt lat="43.66486" lon="3.6224">
        <ele>297.67</ele>
        <time>2015-06-14T07:35:36Z</time>
      </trkpt>
      <trkpt lat="43.66497" lon="3.62224">
        <ele>295.26</ele>
        <time>2015-06-14T07:35:41Z</time>
      </trkpt>
      <trkpt lat="43.66504" lon="3.62213">
        <ele>292.86</ele>
        <time>2015-06-14T07:35:44Z</time>
      </trkpt>
      <trkpt lat="43.66518" lon="3.62211">
        <ele>290.94</ele>
        <time>2015-06-14T07:35:48Z</time>
      </trkpt>
      <trkpt lat="43.66523" lon="3.62211">
        <ele>290.94</ele>
        <time>2015-06-14T07:35:49Z</time>
      </trkpt>
      <trkpt lat="43.66527" lon="3.62212">
        <ele>290.46</ele>
        <time>2015-06-14T07:35:50Z</time>
      </trkpt>
      <trkpt lat="43.66536" lon="3.62213">
        <ele>289.97</ele>
        <time>2015-06-14T07:35:53Z</time>
      </trkpt>
      <trkpt lat="43.66536" lon="3.6221">
        <ele>289.49</ele>
        <time>2015-06-14T07:35:54Z</time>
      </trkpt>
      <trkpt lat="43.66535" lon="3.62206">
        <ele>289.49</ele>
        <time>2015-06-14T07:35:55Z</time>
      </trkpt>
      <trkpt lat="43.66535" lon="3.62201">
        <ele>288.53</ele>
        <time>2015-06-14T07:35:56Z</time>
      </trkpt>
      <trkpt lat="43.66535" lon="3.62195">
        <ele>287.57</ele>
        <time>2015-06-14T07:35:57Z</time>
      </trkpt>
      <trkpt lat="43.66534" lon="3.62189">
        <ele>286.61</ele>
        <time>2015-06-14T07:35:58Z</time>
      </trkpt>
      <trkpt lat="43.66535" lon="3.62183">
        <ele>285.65</ele>
        <time>2015-06-14T07:35:59Z</time>
      </trkpt>
      <trkpt lat="43.66539" lon="3.62171">
        <ele>283.25</ele>
        <time>2015-06-14T07:36:01Z</time>
      </trkpt>
      <trkpt lat="43.66539" lon="3.62165">
        <ele>282.28</ele>
        <time>2015-06-14T07:36:02Z</time>
      </trkpt>
      <trkpt lat="43.66538" lon="3.62159">
        <ele>281.32</ele>
        <time>2015-06-14T07:36:03Z</time>
      </trkpt>
      <trkpt lat="43.66539" lon="3.62152">
        <ele>280.36</ele>
        <time>2015-06-14T07:36:04Z</time>
      </trkpt>
      <trkpt lat="43.6654" lon="3.62147">
        <ele>279.4</ele>
        <time>2015-06-14T07:36:05Z</time>
      </trkpt>
      <trkpt lat="43.66541" lon="3.62141">
        <ele>278.44</ele>
        <time>2015-06-14T07:36:06Z</time>
      </trkpt>
      <trkpt lat="43.66543" lon="3.62135">
        <ele>277.48</ele>
        <time>2015-06-14T07:36:07Z</time>
      </trkpt>
      <trkpt lat="43.66546" lon="3.6213">
        <ele>276.04</ele>
        <time>2015-06-14T07:36:08Z</time>
      </trkpt>
      <trkpt lat="43.66548" lon="3.62125">
        <ele>275.07</ele>
        <time>2015-06-14T07:36:09Z</time>
      </trkpt>
      <trkpt lat="43.66548" lon="3.62121">
        <ele>274.11</ele>
        <time>2015-06-14T07:36:10Z</time>
      </trkpt>
      <trkpt lat="43.66548" lon="3.62117">
        <ele>274.11</ele>
        <time>2015-06-14T07:36:11Z</time>
      </trkpt>
      <trkpt lat="43.6655" lon="3.62113">
        <ele>273.15</ele>
        <time>2015-06-14T07:36:12Z</time>
      </trkpt>
      <trkpt lat="43.66553" lon="3.62108">
        <ele>271.23</ele>
        <time>2015-06-14T07:36:13Z</time>
      </trkpt>
      <trkpt lat="43.66558" lon="3.62092">
        <ele>269.31</ele>
        <time>2015-06-14T07:36:16Z</time>
      </trkpt>
      <trkpt lat="43.66563" lon="3.62079">
        <ele>266.42</ele>
        <time>2015-06-14T07:36:18Z</time>
      </trkpt>
      <trkpt lat="43.66564" lon="3.62073">
        <ele>265.46</ele>
        <time>2015-06-14T07:36:19Z</time>
      </trkpt>
      <trkpt lat="43.66565" lon="3.62067">
        <ele>264.98</ele>
        <time>2015-06-14T07:36:20Z</time>
      </trkpt>
      <trkpt lat="43.66566" lon="3.62058">
        <ele>263.06</ele>
        <time>2015-06-14T07:36:22Z</time>
      </trkpt>
      <trkpt lat="43.66567" lon="3.62053">
        <ele>262.58</ele>
        <time>2015-06-14T07:36:23Z</time>
      </trkpt>
      <trkpt lat="43.66569" lon="3.62046">
        <ele>261.14</ele>
        <time>2015-06-14T07:36:24Z</time>
      </trkpt>
      <trkpt lat="43.66571" lon="3.62041">
        <ele>260.17</ele>
        <time>2015-06-14T07:36:25Z</time>
      </trkpt>
      <trkpt lat="43.66573" lon="3.62036">
        <ele>259.21</ele>
        <time>2015-06-14T07:36:26Z</time>
      </trkpt>
      <trkpt lat="43.66575" lon="3.6203">
        <ele>259.21</ele>
        <time>2015-06-14T07:36:27Z</time>
      </trkpt>
      <trkpt lat="43.66576" lon="3.62024">
        <ele>257.77</ele>
        <time>2015-06-14T07:36:28Z</time>
      </trkpt>
      <trkpt lat="43.66577" lon="3.62017">
        <ele>256.33</ele>
        <time>2015-06-14T07:36:29Z</time>
      </trkpt>
      <trkpt lat="43.66579" lon="3.62011">
        <ele>256.33</ele>
        <time>2015-06-14T07:36:30Z</time>
      </trkpt>
      <trkpt lat="43.66582" lon="3.62006">
        <ele>254.89</ele>
        <time>2015-06-14T07:36:31Z</time>
      </trkpt>
      <trkpt lat="43.66585" lon="3.62">
        <ele>253.93</ele>
        <time>2015-06-14T07:36:32Z</time>
      </trkpt>
      <trkpt lat="43.66587" lon="3.61995">
        <ele>253.44</ele>
        <time>2015-06-14T07:36:33Z</time>
      </trkpt>
      <trkpt lat="43.66591" lon="3.61992">
        <ele>253.44</ele>
        <time>2015-06-14T07:36:34Z</time>
      </trkpt>
      <trkpt lat="43.66594" lon="3.61987">
        <ele>252.96</ele>
        <time>2015-06-14T07:36:35Z</time>
      </trkpt>
      <trkpt lat="43.66596" lon="3.61981">
        <ele>252</ele>
        <time>2015-06-14T07:36:36Z</time>
      </trkpt>
      <trkpt lat="43.66598" lon="3.61975">
        <ele>251.52</ele>
        <time>2015-06-14T07:36:37Z</time>
      </trkpt>
      <trkpt lat="43.66602" lon="3.6197">
        <ele>251.04</ele>
        <time>2015-06-14T07:36:38Z</time>
      </trkpt>
      <trkpt lat="43.66606" lon="3.61966">
        <ele>250.56</ele>
        <time>2015-06-14T07:36:39Z</time>
      </trkpt>
      <trkpt lat="43.66608" lon="3.61962">
        <ele>250.56</ele>
        <time>2015-06-14T07:36:40Z</time>
      </trkpt>
      <trkpt lat="43.66609" lon="3.61958">
        <ele>250.56</ele>
        <time>2015-06-14T07:36:41Z</time>
      </trkpt>
      <trkpt lat="43.66611" lon="3.61955">
        <ele>249.6</ele>
        <time>2015-06-14T07:36:42Z</time>
      </trkpt>
      <trkpt lat="43.66612" lon="3.61952">
        <ele>249.6</ele>
        <time>2015-06-14T07:36:43Z</time>
      </trkpt>
      <trkpt lat="43.66614" lon="3.61947">
        <ele>249.12</ele>
        <time>2015-06-14T07:36:44Z</time>
      </trkpt>
      <trkpt lat="43.66616" lon="3.61942">
        <ele>248.16</ele>
        <time>2015-06-14T07:36:45Z</time>
      </trkpt>
      <trkpt lat="43.66618" lon="3.61935">
        <ele>247.2</ele>
        <time>2015-06-14T07:36:46Z</time>
      </trkpt>
      <trkpt lat="43.66621" lon="3.61927">
        <ele>246.72</ele>
        <time>2015-06-14T07:36:47Z</time>
      </trkpt>
      <trkpt lat="43.66623" lon="3.61911">
        <ele>245.27</ele>
        <time>2015-06-14T07:36:51Z</time>
      </trkpt>
      <trkpt lat="43.66624" lon="3.61902">
        <ele>244.31</ele>
        <time>2015-06-14T07:36:53Z</time>
      </trkpt>
      <trkpt lat="43.66624" lon="3.61884">
        <ele>242.39</ele>
        <time>2015-06-14T07:36:56Z</time>
      </trkpt>
      <trkpt lat="43.66619" lon="3.61868">
        <ele>239.51</ele>
        <time>2015-06-14T07:36:59Z</time>
      </trkpt>
      <trkpt lat="43.6662" lon="3.61831">
        <ele>234.22</ele>
        <time>2015-06-14T07:37:04Z</time>
      </trkpt>
      <trkpt lat="43.6662" lon="3.61802">
        <ele>230.85</ele>
        <time>2015-06-14T07:37:08Z</time>
      </trkpt>
      <trkpt lat="43.66623" lon="3.6178">
        <ele>227.97</ele>
        <time>2015-06-14T07:37:11Z</time>
      </trkpt>
      <trkpt lat="43.6663" lon="3.61752">
        <ele>224.12</ele>
        <time>2015-06-14T07:37:15Z</time>
      </trkpt>
      <trkpt lat="43.66639" lon="3.61731">
        <ele>222.2</ele>
        <time>2015-06-14T07:37:18Z</time>
      </trkpt>
      <trkpt lat="43.66645" lon="3.61719">
        <ele>220.28</ele>
        <time>2015-06-14T07:37:20Z</time>
      </trkpt>
      <trkpt lat="43.66663" lon="3.61698">
        <ele>217.4</ele>
        <time>2015-06-14T07:37:24Z</time>
      </trkpt>
      <trkpt lat="43.66669" lon="3.61687">
        <ele>215.95</ele>
        <time>2015-06-14T07:37:26Z</time>
      </trkpt>
      <trkpt lat="43.66671" lon="3.61683">
        <ele>214.99</ele>
        <time>2015-06-14T07:37:27Z</time>
      </trkpt>
      <trkpt lat="43.66672" lon="3.61676">
        <ele>214.03</ele>
        <time>2015-06-14T07:37:29Z</time>
      </trkpt>
      <trkpt lat="43.66684" lon="3.61666">
        <ele>210.67</ele>
        <time>2015-06-14T07:37:34Z</time>
      </trkpt>
      <trkpt lat="43.66686" lon="3.61662">
        <ele>209.7</ele>
        <time>2015-06-14T07:37:36Z</time>
      </trkpt>
      <trkpt lat="43.66695" lon="3.61646">
        <ele>204.9</ele>
        <time>2015-06-14T07:37:42Z</time>
      </trkpt>
      <trkpt lat="43.66702" lon="3.61633">
        <ele>202.01</ele>
        <time>2015-06-14T07:37:46Z</time>
      </trkpt>
      <trkpt lat="43.66703" lon="3.61629">
        <ele>202.01</ele>
        <time>2015-06-14T07:37:47Z</time>
      </trkpt>
      <trkpt lat="43.66702" lon="3.61611">
        <ele>199.61</ele>
        <time>2015-06-14T07:37:51Z</time>
      </trkpt>
      <trkpt lat="43.66703" lon="3.61608">
        <ele>199.61</ele>
        <time>2015-06-14T07:37:52Z</time>
      </trkpt>
      <trkpt lat="43.66705" lon="3.61589">
        <ele>194.32</ele>
        <time>2015-06-14T07:37:57Z</time>
      </trkpt>
      <trkpt lat="43.66706" lon="3.61578">
        <ele>191.92</ele>
        <time>2015-06-14T07:38:00Z</time>
      </trkpt>
      <trkpt lat="43.66707" lon="3.61568">
        <ele>188.56</ele>
        <time>2015-06-14T07:38:05Z</time>
      </trkpt>
      <trkpt lat="43.66708" lon="3.61566">
        <ele>188.56</ele>
        <time>2015-06-14T07:38:14Z</time>
      </trkpt>
      <trkpt lat="43.66709" lon="3.61564">
        <ele>188.56</ele>
        <time>2015-06-14T07:38:21Z</time>
      </trkpt>
      <trkpt lat="43.66707" lon="3.61554">
        <ele>187.59</ele>
        <time>2015-06-14T07:38:26Z</time>
      </trkpt>
      <trkpt lat="43.66707" lon="3.61546">
        <ele>185.67</ele>
        <time>2015-06-14T07:38:29Z</time>
      </trkpt>
      <trkpt lat="43.66716" lon="3.61544">
        <ele>183.75</ele>
        <time>2015-06-14T07:38:32Z</time>
      </trkpt>
      <trkpt lat="43.6672" lon="3.61544">
        <ele>183.27</ele>
        <time>2015-06-14T07:38:33Z</time>
      </trkpt>
      <trkpt lat="43.66723" lon="3.61544">
        <ele>183.27</ele>
        <time>2015-06-14T07:38:34Z</time>
      </trkpt>
      <trkpt lat="43.66726" lon="3.61544">
        <ele>182.79</ele>
        <time>2015-06-14T07:38:35Z</time>
      </trkpt>
      <trkpt lat="43.6673" lon="3.61544">
        <ele>181.83</ele>
        <time>2015-06-14T07:38:36Z</time>
      </trkpt>
      <trkpt lat="43.66734" lon="3.61545">
        <ele>181.35</ele>
        <time>2015-06-14T07:38:37Z</time>
      </trkpt>
      <trkpt lat="43.66736" lon="3.61548">
        <ele>180.87</ele>
        <time>2015-06-14T07:38:38Z</time>
      </trkpt>
      <trkpt lat="43.66737" lon="3.6155">
        <ele>180.87</ele>
        <time>2015-06-14T07:38:39Z</time>
      </trkpt>
      <trkpt lat="43.66738" lon="3.61553">
        <ele>181.35</ele>
        <time>2015-06-14T07:38:44Z</time>
      </trkpt>
      <trkpt lat="43.66738" lon="3.61552">
        <ele>181.35</ele>
        <time>2015-06-14T07:38:56Z</time>
      </trkpt>
      <trkpt lat="43.66738" lon="3.61552">
        <ele>181.35</ele>
        <time>2015-06-14T07:39:04Z</time>
      </trkpt>
      <trkpt lat="43.66739" lon="3.61552">
        <ele>181.35</ele>
        <time>2015-06-14T07:39:19Z</time>
      </trkpt>
      <trkpt lat="43.6674" lon="3.61551">
        <ele>181.35</ele>
        <time>2015-06-14T07:39:33Z</time>
      </trkpt>
      <trkpt lat="43.66741" lon="3.61552">
        <ele>181.35</ele>
        <time>2015-06-14T07:39:40Z</time>
      </trkpt>
      <trkpt lat="43.6674" lon="3.61552">
        <ele>181.35</ele>
        <time>2015-06-14T07:39:55Z</time>
      </trkpt>
      <trkpt lat="43.66741" lon="3.61555">
        <ele>182.31</ele>
        <time>2015-06-14T07:40:02Z</time>
      </trkpt>
      <trkpt lat="43.66741" lon="3.61554">
        <ele>182.31</ele>
        <time>2015-06-14T07:40:17Z</time>
      </trkpt>
      <trkpt lat="43.66741" lon="3.61557">
        <ele>182.31</ele>
        <time>2015-06-14T07:40:24Z</time>
      </trkpt>
      <trkpt lat="43.66744" lon="3.61567">
        <ele>183.27</ele>
        <time>2015-06-14T07:40:31Z</time>
      </trkpt>
      <trkpt lat="43.66745" lon="3.61574">
        <ele>183.75</ele>
        <time>2015-06-14T07:40:38Z</time>
      </trkpt>
      <trkpt lat="43.66745" lon="3.61581">
        <ele>183.75</ele>
        <time>2015-06-14T07:40:44Z</time>
      </trkpt>
      <trkpt lat="43.66744" lon="3.61581">
        <ele>184.23</ele>
        <time>2015-06-14T07:40:50Z</time>
      </trkpt>
      <trkpt lat="43.66745" lon="3.61579">
        <ele>184.23</ele>
        <time>2015-06-14T07:41:03Z</time>
      </trkpt>
      <trkpt lat="43.66745" lon="3.61579">
        <ele>184.23</ele>
        <time>2015-06-14T07:41:16Z</time>
      </trkpt>
      <trkpt lat="43.66744" lon="3.61579">
        <ele>184.23</ele>
        <time>2015-06-14T07:41:28Z</time>
      </trkpt>
      <trkpt lat="43.66744" lon="3.6158">
        <ele>184.23</ele>
        <time>2015-06-14T07:41:41Z</time>
      </trkpt>
      <trkpt lat="43.66744" lon="3.61581">
        <ele>184.23</ele>
        <time>2015-06-14T07:41:50Z</time>
      </trkpt>
      <trkpt lat="43.66744" lon="3.61587">
        <ele>184.23</ele>
        <time>2015-06-14T07:41:57Z</time>
      </trkpt>
      <trkpt lat="43.66746" lon="3.61596">
        <ele>185.67</ele>
        <time>2015-06-14T07:42:03Z</time>
      </trkpt>
      <trkpt lat="43.66746" lon="3.61598">
        <ele>185.67</ele>
        <time>2015-06-14T07:42:04Z</time>
      </trkpt>
      <trkpt lat="43.66746" lon="3.616">
        <ele>186.15</ele>
        <time>2015-06-14T07:42:05Z</time>
      </trkpt>
      <trkpt lat="43.66746" lon="3.61601">
        <ele>186.15</ele>
        <time>2015-06-14T07:42:06Z</time>
      </trkpt>
      <trkpt lat="43.66746" lon="3.61603">
        <ele>186.15</ele>
        <time>2015-06-14T07:42:07Z</time>
      </trkpt>
      <trkpt lat="43.66746" lon="3.61605">
        <ele>186.15</ele>
        <time>2015-06-14T07:42:08Z</time>
      </trkpt>
      <trkpt lat="43.66748" lon="3.61624">
        <ele>187.59</ele>
        <time>2015-06-14T07:42:17Z</time>
      </trkpt>
      <trkpt lat="43.66751" lon="3.61643">
        <ele>189.04</ele>
        <time>2015-06-14T07:42:25Z</time>
      </trkpt>
      <trkpt lat="43.66752" lon="3.61654">
        <ele>190</ele>
        <time>2015-06-14T07:42:30Z</time>
      </trkpt>
      <trkpt lat="43.66755" lon="3.61673">
        <ele>191.44</ele>
        <time>2015-06-14T07:42:39Z</time>
      </trkpt>
      <trkpt lat="43.66758" lon="3.61689">
        <ele>192.88</ele>
        <time>2015-06-14T07:42:47Z</time>
      </trkpt>
      <trkpt lat="43.66761" lon="3.61702">
        <ele>194.32</ele>
        <time>2015-06-14T07:42:54Z</time>
      </trkpt>
      <trkpt lat="43.66764" lon="3.61719">
        <ele>194.8</ele>
        <time>2015-06-14T07:43:03Z</time>
      </trkpt>
      <trkpt lat="43.66768" lon="3.61733">
        <ele>196.73</ele>
        <time>2015-06-14T07:43:10Z</time>
      </trkpt>
      <trkpt lat="43.66772" lon="3.61749">
        <ele>198.17</ele>
        <time>2015-06-14T07:43:19Z</time>
      </trkpt>
      <trkpt lat="43.66772" lon="3.61755">
        <ele>198.65</ele>
        <time>2015-06-14T07:43:22Z</time>
      </trkpt>
      <trkpt lat="43.66772" lon="3.61757">
        <ele>198.65</ele>
        <time>2015-06-14T07:43:23Z</time>
      </trkpt>
      <trkpt lat="43.66772" lon="3.61759">
        <ele>198.65</ele>
        <time>2015-06-14T07:43:24Z</time>
      </trkpt>
      <trkpt lat="43.66773" lon="3.61773">
        <ele>199.13</ele>
        <time>2015-06-14T07:43:31Z</time>
      </trkpt>
      <trkpt lat="43.66775" lon="3.61785">
        <ele>201.05</ele>
        <time>2015-06-14T07:43:38Z</time>
      </trkpt>
      <trkpt lat="43.66777" lon="3.61806">
        <ele>202.49</ele>
        <time>2015-06-14T07:43:48Z</time>
      </trkpt>
      <trkpt lat="43.66778" lon="3.61825">
        <ele>204.42</ele>
        <time>2015-06-14T07:43:58Z</time>
      </trkpt>
      <trkpt lat="43.66778" lon="3.61829">
        <ele>204.42</ele>
        <time>2015-06-14T07:44:00Z</time>
      </trkpt>
      <trkpt lat="43.66778" lon="3.61831">
        <ele>204.42</ele>
        <time>2015-06-14T07:44:01Z</time>
      </trkpt>
      <trkpt lat="43.66778" lon="3.61833">
        <ele>204.42</ele>
        <time>2015-06-14T07:44:02Z</time>
      </trkpt>
      <trkpt lat="43.66779" lon="3.61835">
        <ele>204.42</ele>
        <time>2015-06-14T07:44:03Z</time>
      </trkpt>
      <trkpt lat="43.66779" lon="3.61836">
        <ele>204.42</ele>
        <time>2015-06-14T07:44:04Z</time>
      </trkpt>
      <trkpt lat="43.66779" lon="3.61838">
        <ele>204.9</ele>
        <time>2015-06-14T07:44:05Z</time>
      </trkpt>
      <trkpt lat="43.66779" lon="3.6184">
        <ele>204.9</ele>
        <time>2015-06-14T07:44:06Z</time>
      </trkpt>
      <trkpt lat="43.66779" lon="3.61852">
        <ele>205.86</ele>
        <time>2015-06-14T07:44:13Z</time>
      </trkpt>
      <trkpt lat="43.6678" lon="3.61865">
        <ele>206.34</ele>
        <time>2015-06-14T07:44:21Z</time>
      </trkpt>
      <trkpt lat="43.6678" lon="3.61867">
        <ele>206.34</ele>
        <time>2015-06-14T07:44:22Z</time>
      </trkpt>
      <trkpt lat="43.6678" lon="3.61869">
        <ele>206.82</ele>
        <time>2015-06-14T07:44:23Z</time>
      </trkpt>
      <trkpt lat="43.6678" lon="3.61871">
        <ele>206.82</ele>
        <time>2015-06-14T07:44:24Z</time>
      </trkpt>
      <trkpt lat="43.6678" lon="3.61873">
        <ele>206.82</ele>
        <time>2015-06-14T07:44:25Z</time>
      </trkpt>
      <trkpt lat="43.6678" lon="3.61874">
        <ele>206.82</ele>
        <time>2015-06-14T07:44:26Z</time>
      </trkpt>
      <trkpt lat="43.6678" lon="3.61876">
        <ele>206.82</ele>
        <time>2015-06-14T07:44:27Z</time>
      </trkpt>
      <trkpt lat="43.6678" lon="3.61878">
        <ele>207.3</ele>
        <time>2015-06-14T07:44:28Z</time>
      </trkpt>
      <trkpt lat="43.6678" lon="3.6188">
        <ele>207.3</ele>
        <time>2015-06-14T07:44:29Z</time>
      </trkpt>
      <trkpt lat="43.66779" lon="3.61882">
        <ele>207.3</ele>
        <time>2015-06-14T07:44:30Z</time>
      </trkpt>
      <trkpt lat="43.66779" lon="3.61883">
        <ele>207.3</ele>
        <time>2015-06-14T07:44:31Z</time>
      </trkpt>
      <trkpt lat="43.66777" lon="3.61898">
        <ele>208.26</ele>
        <time>2015-06-14T07:44:39Z</time>
      </trkpt>
      <trkpt lat="43.66777" lon="3.619">
        <ele>208.74</ele>
        <time>2015-06-14T07:44:40Z</time>
      </trkpt>
      <trkpt lat="43.66777" lon="3.61901">
        <ele>206.82</ele>
        <time>2015-06-14T07:44:41Z</time>
      </trkpt>
      <trkpt lat="43.66776" lon="3.61903">
        <ele>206.82</ele>
        <time>2015-06-14T07:44:42Z</time>
      </trkpt>
      <trkpt lat="43.66777" lon="3.61905">
        <ele>209.22</ele>
        <time>2015-06-14T07:44:44Z</time>
      </trkpt>
      <trkpt lat="43.66777" lon="3.6192">
        <ele>209.7</ele>
        <time>2015-06-14T07:44:52Z</time>
      </trkpt>
      <trkpt lat="43.66777" lon="3.6193">
        <ele>211.15</ele>
        <time>2015-06-14T07:44:57Z</time>
      </trkpt>
      <trkpt lat="43.66777" lon="3.6194">
        <ele>212.59</ele>
        <time>2015-06-14T07:45:03Z</time>
      </trkpt>
      <trkpt lat="43.66776" lon="3.61942">
        <ele>212.59</ele>
        <time>2015-06-14T07:45:04Z</time>
      </trkpt>
      <trkpt lat="43.66776" lon="3.61943">
        <ele>212.59</ele>
        <time>2015-06-14T07:45:05Z</time>
      </trkpt>
      <trkpt lat="43.66776" lon="3.61945">
        <ele>212.59</ele>
        <time>2015-06-14T07:45:06Z</time>
      </trkpt>
      <trkpt lat="43.66776" lon="3.61947">
        <ele>213.07</ele>
        <time>2015-06-14T07:45:07Z</time>
      </trkpt>
      <trkpt lat="43.66776" lon="3.61948">
        <ele>213.07</ele>
        <time>2015-06-14T07:45:08Z</time>
      </trkpt>
      <trkpt lat="43.66776" lon="3.61952">
        <ele>213.07</ele>
        <time>2015-06-14T07:45:10Z</time>
      </trkpt>
      <trkpt lat="43.66776" lon="3.61954">
        <ele>213.55</ele>
        <time>2015-06-14T07:45:11Z</time>
      </trkpt>
      <trkpt lat="43.66776" lon="3.61955">
        <ele>213.55</ele>
        <time>2015-06-14T07:45:12Z</time>
      </trkpt>
      <trkpt lat="43.66775" lon="3.61957">
        <ele>213.55</ele>
        <time>2015-06-14T07:45:13Z</time>
      </trkpt>
      <trkpt lat="43.66775" lon="3.61959">
        <ele>213.55</ele>
        <time>2015-06-14T07:45:14Z</time>
      </trkpt>
      <trkpt lat="43.66775" lon="3.6196">
        <ele>213.55</ele>
        <time>2015-06-14T07:45:15Z</time>
      </trkpt>
      <trkpt lat="43.66775" lon="3.61962">
        <ele>214.51</ele>
        <time>2015-06-14T07:45:16Z</time>
      </trkpt>
      <trkpt lat="43.66773" lon="3.61978">
        <ele>214.99</ele>
        <time>2015-06-14T07:45:25Z</time>
      </trkpt>
      <trkpt lat="43.66772" lon="3.61991">
        <ele>215.95</ele>
        <time>2015-06-14T07:45:33Z</time>
      </trkpt>
      <trkpt lat="43.66771" lon="3.61994">
        <ele>215.95</ele>
        <time>2015-06-14T07:45:35Z</time>
      </trkpt>
      <trkpt lat="43.66771" lon="3.61996">
        <ele>216.43</ele>
        <time>2015-06-14T07:45:36Z</time>
      </trkpt>
      <trkpt lat="43.66771" lon="3.61998">
        <ele>216.43</ele>
        <time>2015-06-14T07:45:37Z</time>
      </trkpt>
      <trkpt lat="43.66771" lon="3.61999">
        <ele>216.43</ele>
        <time>2015-06-14T07:45:38Z</time>
      </trkpt>
      <trkpt lat="43.66771" lon="3.62001">
        <ele>216.91</ele>
        <time>2015-06-14T07:45:39Z</time>
      </trkpt>
      <trkpt lat="43.66771" lon="3.62003">
        <ele>216.91</ele>
        <time>2015-06-14T07:45:40Z</time>
      </trkpt>
      <trkpt lat="43.66771" lon="3.62004">
        <ele>216.91</ele>
        <time>2015-06-14T07:45:41Z</time>
      </trkpt>
      <trkpt lat="43.66771" lon="3.62006">
        <ele>217.4</ele>
        <time>2015-06-14T07:45:42Z</time>
      </trkpt>
      <trkpt lat="43.6677" lon="3.62007">
        <ele>217.4</ele>
        <time>2015-06-14T07:45:43Z</time>
      </trkpt>
      <trkpt lat="43.6677" lon="3.62017">
        <ele>217.4</ele>
        <time>2015-06-14T07:45:47Z</time>
      </trkpt>
      <trkpt lat="43.66769" lon="3.62029">
        <ele>218.84</ele>
        <time>2015-06-14T07:45:53Z</time>
      </trkpt>
      <trkpt lat="43.66769" lon="3.62031">
        <ele>218.84</ele>
        <time>2015-06-14T07:45:54Z</time>
      </trkpt>
      <trkpt lat="43.66769" lon="3.62033">
        <ele>219.32</ele>
        <time>2015-06-14T07:45:55Z</time>
      </trkpt>
      <trkpt lat="43.66768" lon="3.62048">
        <ele>219.8</ele>
        <time>2015-06-14T07:46:03Z</time>
      </trkpt>
      <trkpt lat="43.66768" lon="3.62052">
        <ele>220.28</ele>
        <time>2015-06-14T07:46:05Z</time>
      </trkpt>
      <trkpt lat="43.66767" lon="3.62054">
        <ele>220.28</ele>
        <time>2015-06-14T07:46:06Z</time>
      </trkpt>
      <trkpt lat="43.66767" lon="3.62056">
        <ele>220.76</ele>
        <time>2015-06-14T07:46:07Z</time>
      </trkpt>
      <trkpt lat="43.66767" lon="3.62058">
        <ele>220.76</ele>
        <time>2015-06-14T07:46:08Z</time>
      </trkpt>
      <trkpt lat="43.66766" lon="3.6206">
        <ele>217.88</ele>
        <time>2015-06-14T07:46:09Z</time>
      </trkpt>
      <trkpt lat="43.66766" lon="3.62061">
        <ele>223.16</ele>
        <time>2015-06-14T07:46:10Z</time>
      </trkpt>
      <trkpt lat="43.66766" lon="3.62063">
        <ele>223.64</ele>
        <time>2015-06-14T07:46:11Z</time>
      </trkpt>
      <trkpt lat="43.66766" lon="3.62065">
        <ele>221.24</ele>
        <time>2015-06-14T07:46:12Z</time>
      </trkpt>
      <trkpt lat="43.66766" lon="3.62067">
        <ele>221.24</ele>
        <time>2015-06-14T07:46:13Z</time>
      </trkpt>
      <trkpt lat="43.66764" lon="3.62082">
        <ele>222.68</ele>
        <time>2015-06-14T07:46:21Z</time>
      </trkpt>
      <trkpt lat="43.66762" lon="3.62096">
        <ele>222.68</ele>
        <time>2015-06-14T07:46:28Z</time>
      </trkpt>
      <trkpt lat="43.66759" lon="3.6211">
        <ele>223.64</ele>
        <time>2015-06-14T07:46:35Z</time>
      </trkpt>
      <trkpt lat="43.66759" lon="3.62111">
        <ele>223.64</ele>
        <time>2015-06-14T07:46:36Z</time>
      </trkpt>
      <trkpt lat="43.66759" lon="3.62113">
        <ele>223.64</ele>
        <time>2015-06-14T07:46:37Z</time>
      </trkpt>
      <trkpt lat="43.66759" lon="3.62115">
        <ele>223.64</ele>
        <time>2015-06-14T07:46:38Z</time>
      </trkpt>
      <trkpt lat="43.66759" lon="3.62117">
        <ele>224.12</ele>
        <time>2015-06-14T07:46:39Z</time>
      </trkpt>
      <trkpt lat="43.66754" lon="3.62137">
        <ele>225.57</ele>
        <time>2015-06-14T07:46:49Z</time>
      </trkpt>
      <trkpt lat="43.6675" lon="3.62156">
        <ele>227.01</ele>
        <time>2015-06-14T07:46:58Z</time>
      </trkpt>
      <trkpt lat="43.66749" lon="3.62158">
        <ele>227.01</ele>
        <time>2015-06-14T07:46:59Z</time>
      </trkpt>
      <trkpt lat="43.66749" lon="3.62161">
        <ele>227.01</ele>
        <time>2015-06-14T07:47:00Z</time>
      </trkpt>
      <trkpt lat="43.66745" lon="3.62177">
        <ele>228.45</ele>
        <time>2015-06-14T07:47:08Z</time>
      </trkpt>
      <trkpt lat="43.6674" lon="3.62196">
        <ele>229.41</ele>
        <time>2015-06-14T07:47:18Z</time>
      </trkpt>
      <trkpt lat="43.66738" lon="3.62211">
        <ele>230.85</ele>
        <time>2015-06-14T07:47:26Z</time>
      </trkpt>
      <trkpt lat="43.66736" lon="3.62228">
        <ele>231.81</ele>
        <time>2015-06-14T07:47:34Z</time>
      </trkpt>
      <trkpt lat="43.66735" lon="3.62244">
        <ele>233.26</ele>
        <time>2015-06-14T07:47:42Z</time>
      </trkpt>
      <trkpt lat="43.66735" lon="3.62263">
        <ele>234.22</ele>
        <time>2015-06-14T07:47:51Z</time>
      </trkpt>
      <trkpt lat="43.66735" lon="3.62264">
        <ele>234.22</ele>
        <time>2015-06-14T07:47:52Z</time>
      </trkpt>
      <trkpt lat="43.66735" lon="3.62266">
        <ele>234.22</ele>
        <time>2015-06-14T07:47:53Z</time>
      </trkpt>
      <trkpt lat="43.66735" lon="3.62268">
        <ele>234.7</ele>
        <time>2015-06-14T07:47:54Z</time>
      </trkpt>
      <trkpt lat="43.66737" lon="3.62288">
        <ele>236.62</ele>
        <time>2015-06-14T07:48:04Z</time>
      </trkpt>
      <trkpt lat="43.66737" lon="3.62305">
        <ele>237.58</ele>
        <time>2015-06-14T07:48:12Z</time>
      </trkpt>
      <trkpt lat="43.66737" lon="3.62306">
        <ele>237.58</ele>
        <time>2015-06-14T07:48:13Z</time>
      </trkpt>
      <trkpt lat="43.66738" lon="3.62308">
        <ele>237.58</ele>
        <time>2015-06-14T07:48:14Z</time>
      </trkpt>
      <trkpt lat="43.66738" lon="3.62309">
        <ele>238.06</ele>
        <time>2015-06-14T07:48:15Z</time>
      </trkpt>
      <trkpt lat="43.66738" lon="3.62312">
        <ele>238.06</ele>
        <time>2015-06-14T07:48:16Z</time>
      </trkpt>
      <trkpt lat="43.66738" lon="3.62314">
        <ele>238.06</ele>
        <time>2015-06-14T07:48:17Z</time>
      </trkpt>
      <trkpt lat="43.66738" lon="3.62317">
        <ele>238.54</ele>
        <time>2015-06-14T07:48:18Z</time>
      </trkpt>
      <trkpt lat="43.66738" lon="3.62319">
        <ele>238.54</ele>
        <time>2015-06-14T07:48:19Z</time>
      </trkpt>
      <trkpt lat="43.66738" lon="3.62321">
        <ele>239.02</ele>
        <time>2015-06-14T07:48:20Z</time>
      </trkpt>
      <trkpt lat="43.66738" lon="3.62323">
        <ele>239.02</ele>
        <time>2015-06-14T07:48:21Z</time>
      </trkpt>
      <trkpt lat="43.66738" lon="3.62325">
        <ele>239.51</ele>
        <time>2015-06-14T07:48:22Z</time>
      </trkpt>
      <trkpt lat="43.66738" lon="3.62328">
        <ele>239.51</ele>
        <time>2015-06-14T07:48:23Z</time>
      </trkpt>
      <trkpt lat="43.66738" lon="3.6233">
        <ele>239.51</ele>
        <time>2015-06-14T07:48:24Z</time>
      </trkpt>
      <trkpt lat="43.66738" lon="3.62345">
        <ele>240.47</ele>
        <time>2015-06-14T07:48:32Z</time>
      </trkpt>
      <trkpt lat="43.66738" lon="3.6236">
        <ele>241.91</ele>
        <time>2015-06-14T07:48:39Z</time>
      </trkpt>
      <trkpt lat="43.66737" lon="3.6238">
        <ele>242.39</ele>
        <time>2015-06-14T07:48:47Z</time>
      </trkpt>
      <trkpt lat="43.66735" lon="3.62395">
        <ele>242.87</ele>
        <time>2015-06-14T07:48:55Z</time>
      </trkpt>
      <trkpt lat="43.66733" lon="3.62409">
        <ele>244.31</ele>
        <time>2015-06-14T07:49:03Z</time>
      </trkpt>
      <trkpt lat="43.66733" lon="3.62425">
        <ele>245.27</ele>
        <time>2015-06-14T07:49:12Z</time>
      </trkpt>
      <trkpt lat="43.66731" lon="3.62443">
        <ele>246.23</ele>
        <time>2015-06-14T07:49:21Z</time>
      </trkpt>
      <trkpt lat="43.66731" lon="3.6245">
        <ele>246.72</ele>
        <time>2015-06-14T07:49:25Z</time>
      </trkpt>
      <trkpt lat="43.66731" lon="3.62451">
        <ele>247.2</ele>
        <time>2015-06-14T07:49:26Z</time>
      </trkpt>
      <trkpt lat="43.66731" lon="3.62453">
        <ele>247.2</ele>
        <time>2015-06-14T07:49:27Z</time>
      </trkpt>
      <trkpt lat="43.66731" lon="3.62455">
        <ele>247.2</ele>
        <time>2015-06-14T07:49:28Z</time>
      </trkpt>
      <trkpt lat="43.66731" lon="3.62457">
        <ele>247.68</ele>
        <time>2015-06-14T07:49:29Z</time>
      </trkpt>
      <trkpt lat="43.6673" lon="3.62459">
        <ele>247.68</ele>
        <time>2015-06-14T07:49:30Z</time>
      </trkpt>
      <trkpt lat="43.66728" lon="3.62476">
        <ele>248.16</ele>
        <time>2015-06-14T07:49:37Z</time>
      </trkpt>
      <trkpt lat="43.66725" lon="3.62492">
        <ele>249.12</ele>
        <time>2015-06-14T07:49:44Z</time>
      </trkpt>
      <trkpt lat="43.66721" lon="3.62512">
        <ele>249.12</ele>
        <time>2015-06-14T07:49:52Z</time>
      </trkpt>
      <trkpt lat="43.66716" lon="3.62531">
        <ele>249.6</ele>
        <time>2015-06-14T07:49:59Z</time>
      </trkpt>
      <trkpt lat="43.6671" lon="3.62561">
        <ele>249.6</ele>
        <time>2015-06-14T07:50:09Z</time>
      </trkpt>
      <trkpt lat="43.66708" lon="3.62586">
        <ele>249.6</ele>
        <time>2015-06-14T07:50:17Z</time>
      </trkpt>
      <trkpt lat="43.66706" lon="3.62612">
        <ele>249.6</ele>
        <time>2015-06-14T07:50:23Z</time>
      </trkpt>
      <trkpt lat="43.66707" lon="3.62627">
        <ele>248.16</ele>
        <time>2015-06-14T07:50:26Z</time>
      </trkpt>
      <trkpt lat="43.66709" lon="3.62664">
        <ele>246.23</ele>
        <time>2015-06-14T07:50:33Z</time>
      </trkpt>
      <trkpt lat="43.66708" lon="3.62671">
        <ele>246.23</ele>
        <time>2015-06-14T07:50:34Z</time>
      </trkpt>
      <trkpt lat="43.66707" lon="3.62677">
        <ele>246.23</ele>
        <time>2015-06-14T07:50:35Z</time>
      </trkpt>
      <trkpt lat="43.66704" lon="3.62696">
        <ele>245.27</ele>
        <time>2015-06-14T07:50:38Z</time>
      </trkpt>
      <trkpt lat="43.66703" lon="3.62702">
        <ele>245.27</ele>
        <time>2015-06-14T07:50:39Z</time>
      </trkpt>
      <trkpt lat="43.66694" lon="3.62749">
        <ele>245.75</ele>
        <time>2015-06-14T07:50:48Z</time>
      </trkpt>
      <trkpt lat="43.66687" lon="3.62779">
        <ele>245.75</ele>
        <time>2015-06-14T07:50:56Z</time>
      </trkpt>
      <trkpt lat="43.66681" lon="3.62806">
        <ele>245.75</ele>
        <time>2015-06-14T07:51:04Z</time>
      </trkpt>
      <trkpt lat="43.66679" lon="3.6281">
        <ele>245.75</ele>
        <time>2015-06-14T07:51:07Z</time>
      </trkpt>
      <trkpt lat="43.66677" lon="3.62811">
        <ele>245.75</ele>
        <time>2015-06-14T07:51:09Z</time>
      </trkpt>
      <trkpt lat="43.66676" lon="3.6281">
        <ele>245.75</ele>
        <time>2015-06-14T07:51:10Z</time>
      </trkpt>
      <trkpt lat="43.66675" lon="3.62808">
        <ele>245.75</ele>
        <time>2015-06-14T07:51:11Z</time>
      </trkpt>
      <trkpt lat="43.66673" lon="3.62801">
        <ele>247.2</ele>
        <time>2015-06-14T07:51:16Z</time>
      </trkpt>
      <trkpt lat="43.66672" lon="3.62787">
        <ele>248.16</ele>
        <time>2015-06-14T07:51:24Z</time>
      </trkpt>
      <trkpt lat="43.66671" lon="3.62783">
        <ele>248.64</ele>
        <time>2015-06-14T07:51:27Z</time>
      </trkpt>
      <trkpt lat="43.66671" lon="3.62781">
        <ele>249.12</ele>
        <time>2015-06-14T07:51:28Z</time>
      </trkpt>
      <trkpt lat="43.6667" lon="3.62779">
        <ele>248.64</ele>
        <time>2015-06-14T07:51:29Z</time>
      </trkpt>
      <trkpt lat="43.66665" lon="3.62768">
        <ele>250.08</ele>
        <time>2015-06-14T07:51:37Z</time>
      </trkpt>
      <trkpt lat="43.6666" lon="3.62754">
        <ele>252.48</ele>
        <time>2015-06-14T07:51:46Z</time>
      </trkpt>
      <trkpt lat="43.66656" lon="3.62743">
        <ele>254.41</ele>
        <time>2015-06-14T07:51:54Z</time>
      </trkpt>
      <trkpt lat="43.66655" lon="3.62741">
        <ele>254.41</ele>
        <time>2015-06-14T07:51:55Z</time>
      </trkpt>
      <trkpt lat="43.66655" lon="3.6274">
        <ele>254.89</ele>
        <time>2015-06-14T07:51:56Z</time>
      </trkpt>
      <trkpt lat="43.66655" lon="3.62738">
        <ele>254.89</ele>
        <time>2015-06-14T07:51:57Z</time>
      </trkpt>
      <trkpt lat="43.66651" lon="3.62727">
        <ele>256.33</ele>
        <time>2015-06-14T07:52:05Z</time>
      </trkpt>
      <trkpt lat="43.66648" lon="3.62711">
        <ele>257.77</ele>
        <time>2015-06-14T07:52:14Z</time>
      </trkpt>
      <trkpt lat="43.66648" lon="3.6271">
        <ele>258.25</ele>
        <time>2015-06-14T07:52:15Z</time>
      </trkpt>
      <trkpt lat="43.66648" lon="3.62708">
        <ele>258.25</ele>
        <time>2015-06-14T07:52:16Z</time>
      </trkpt>
      <trkpt lat="43.66648" lon="3.62706">
        <ele>258.25</ele>
        <time>2015-06-14T07:52:17Z</time>
      </trkpt>
      <trkpt lat="43.66649" lon="3.62692">
        <ele>260.17</ele>
        <time>2015-06-14T07:52:27Z</time>
      </trkpt>
      <trkpt lat="43.6665" lon="3.62681">
        <ele>261.14</ele>
        <time>2015-06-14T07:52:33Z</time>
      </trkpt>
      <trkpt lat="43.66651" lon="3.6268">
        <ele>261.62</ele>
        <time>2015-06-14T07:52:34Z</time>
      </trkpt>
      <trkpt lat="43.66651" lon="3.62678">
        <ele>261.62</ele>
        <time>2015-06-14T07:52:35Z</time>
      </trkpt>
      <trkpt lat="43.66652" lon="3.62676">
        <ele>261.62</ele>
        <time>2015-06-14T07:52:36Z</time>
      </trkpt>
      <trkpt lat="43.66652" lon="3.62674">
        <ele>261.62</ele>
        <time>2015-06-14T07:52:37Z</time>
      </trkpt>
      <trkpt lat="43.66653" lon="3.62672">
        <ele>261.62</ele>
        <time>2015-06-14T07:52:38Z</time>
      </trkpt>
      <trkpt lat="43.66654" lon="3.6267">
        <ele>262.1</ele>
        <time>2015-06-14T07:52:39Z</time>
      </trkpt>
      <trkpt lat="43.66655" lon="3.62669">
        <ele>262.1</ele>
        <time>2015-06-14T07:52:40Z</time>
      </trkpt>
      <trkpt lat="43.66655" lon="3.62667">
        <ele>262.58</ele>
        <time>2015-06-14T07:52:41Z</time>
      </trkpt>
      <trkpt lat="43.66659" lon="3.62663">
        <ele>263.06</ele>
        <time>2015-06-14T07:52:45Z</time>
      </trkpt>
      <trkpt lat="43.6666" lon="3.62662">
        <ele>263.06</ele>
        <time>2015-06-14T07:52:46Z</time>
      </trkpt>
      <trkpt lat="43.66661" lon="3.62662">
        <ele>263.54</ele>
        <time>2015-06-14T07:52:47Z</time>
      </trkpt>
      <trkpt lat="43.66662" lon="3.6266">
        <ele>263.54</ele>
        <time>2015-06-14T07:52:48Z</time>
      </trkpt>
      <trkpt lat="43.66662" lon="3.62659">
        <ele>264.02</ele>
        <time>2015-06-14T07:52:49Z</time>
      </trkpt>
      <trkpt lat="43.66663" lon="3.62658">
        <ele>264.02</ele>
        <time>2015-06-14T07:52:50Z</time>
      </trkpt>
      <trkpt lat="43.66663" lon="3.62656">
        <ele>264.02</ele>
        <time>2015-06-14T07:52:51Z</time>
      </trkpt>
      <trkpt lat="43.66662" lon="3.62654">
        <ele>264.02</ele>
        <time>2015-06-14T07:52:52Z</time>
      </trkpt>
      <trkpt lat="43.66662" lon="3.62653">
        <ele>264.98</ele>
        <time>2015-06-14T07:52:53Z</time>
      </trkpt>
      <trkpt lat="43.66661" lon="3.62651">
        <ele>264.98</ele>
        <time>2015-06-14T07:52:54Z</time>
      </trkpt>
      <trkpt lat="43.6666" lon="3.62651">
        <ele>264.98</ele>
        <time>2015-06-14T07:52:55Z</time>
      </trkpt>
      <trkpt lat="43.66658" lon="3.62651">
        <ele>265.46</ele>
        <time>2015-06-14T07:52:56Z</time>
      </trkpt>
      <trkpt lat="43.66655" lon="3.62651">
        <ele>265.94</ele>
        <time>2015-06-14T07:52:59Z</time>
      </trkpt>
      <trkpt lat="43.66653" lon="3.62652">
        <ele>265.94</ele>
        <time>2015-06-14T07:53:00Z</time>
      </trkpt>
      <trkpt lat="43.66652" lon="3.62653">
        <ele>265.94</ele>
        <time>2015-06-14T07:53:01Z</time>
      </trkpt>
      <trkpt lat="43.66645" lon="3.62661">
        <ele>267.38</ele>
        <time>2015-06-14T07:53:09Z</time>
      </trkpt>
      <trkpt lat="43.66643" lon="3.62665">
        <ele>267.38</ele>
        <time>2015-06-14T07:53:12Z</time>
      </trkpt>
      <trkpt lat="43.66635" lon="3.62674">
        <ele>268.35</ele>
        <time>2015-06-14T07:53:20Z</time>
      </trkpt>
      <trkpt lat="43.66626" lon="3.62689">
        <ele>269.79</ele>
        <time>2015-06-14T07:53:29Z</time>
      </trkpt>
      <trkpt lat="43.66618" lon="3.62703">
        <ele>270.75</ele>
        <time>2015-06-14T07:53:37Z</time>
      </trkpt>
      <trkpt lat="43.6661" lon="3.62718">
        <ele>272.67</ele>
        <time>2015-06-14T07:53:46Z</time>
      </trkpt>
      <trkpt lat="43.6661" lon="3.62719">
        <ele>272.19</ele>
        <time>2015-06-14T07:53:47Z</time>
      </trkpt>
      <trkpt lat="43.66609" lon="3.62721">
        <ele>272.67</ele>
        <time>2015-06-14T07:53:48Z</time>
      </trkpt>
      <trkpt lat="43.66608" lon="3.62723">
        <ele>272.67</ele>
        <time>2015-06-14T07:53:49Z</time>
      </trkpt>
      <trkpt lat="43.66607" lon="3.62724">
        <ele>272.67</ele>
        <time>2015-06-14T07:53:50Z</time>
      </trkpt>
      <trkpt lat="43.66607" lon="3.62726">
        <ele>272.67</ele>
        <time>2015-06-14T07:53:51Z</time>
      </trkpt>
      <trkpt lat="43.66606" lon="3.62728">
        <ele>273.63</ele>
        <time>2015-06-14T07:53:52Z</time>
      </trkpt>
      <trkpt lat="43.666" lon="3.6274">
        <ele>274.59</ele>
        <time>2015-06-14T07:54:00Z</time>
      </trkpt>
      <trkpt lat="43.66595" lon="3.62756">
        <ele>276.52</ele>
        <time>2015-06-14T07:54:10Z</time>
      </trkpt>
      <trkpt lat="43.66588" lon="3.62776">
        <ele>278.44</ele>
        <time>2015-06-14T07:54:21Z</time>
      </trkpt>
      <trkpt lat="43.66583" lon="3.62787">
        <ele>279.88</ele>
        <time>2015-06-14T07:54:28Z</time>
      </trkpt>
      <trkpt lat="43.66576" lon="3.62802">
        <ele>281.32</ele>
        <time>2015-06-14T07:54:37Z</time>
      </trkpt>
      <trkpt lat="43.66569" lon="3.62819">
        <ele>283.25</ele>
        <time>2015-06-14T07:54:47Z</time>
      </trkpt>
      <trkpt lat="43.66561" lon="3.62834">
        <ele>284.21</ele>
        <time>2015-06-14T07:54:56Z</time>
      </trkpt>
      <trkpt lat="43.66553" lon="3.62847">
        <ele>286.13</ele>
        <time>2015-06-14T07:55:04Z</time>
      </trkpt>
      <trkpt lat="43.66546" lon="3.62859">
        <ele>287.09</ele>
        <time>2015-06-14T07:55:12Z</time>
      </trkpt>
      <trkpt lat="43.66537" lon="3.62872">
        <ele>288.53</ele>
        <time>2015-06-14T07:55:20Z</time>
      </trkpt>
      <trkpt lat="43.66526" lon="3.6289">
        <ele>289.97</ele>
        <time>2015-06-14T07:55:31Z</time>
      </trkpt>
      <trkpt lat="43.66517" lon="3.62903">
        <ele>291.42</ele>
        <time>2015-06-14T07:55:39Z</time>
      </trkpt>
      <trkpt lat="43.66508" lon="3.62914">
        <ele>292.86</ele>
        <time>2015-06-14T07:55:48Z</time>
      </trkpt>
      <trkpt lat="43.66496" lon="3.6293">
        <ele>294.78</ele>
        <time>2015-06-14T07:55:59Z</time>
      </trkpt>
      <trkpt lat="43.6649" lon="3.62936">
        <ele>295.26</ele>
        <time>2015-06-14T07:56:05Z</time>
      </trkpt>
      <trkpt lat="43.66482" lon="3.62947">
        <ele>296.7</ele>
        <time>2015-06-14T07:56:14Z</time>
      </trkpt>
      <trkpt lat="43.66475" lon="3.62958">
        <ele>298.15</ele>
        <time>2015-06-14T07:56:22Z</time>
      </trkpt>
      <trkpt lat="43.66465" lon="3.62971">
        <ele>299.11</ele>
        <time>2015-06-14T07:56:32Z</time>
      </trkpt>
      <trkpt lat="43.66456" lon="3.62981">
        <ele>300.55</ele>
        <time>2015-06-14T07:56:39Z</time>
      </trkpt>
      <trkpt lat="43.66448" lon="3.6299">
        <ele>301.51</ele>
        <time>2015-06-14T07:56:46Z</time>
      </trkpt>
      <trkpt lat="43.66437" lon="3.63002">
        <ele>301.99</ele>
        <time>2015-06-14T07:56:55Z</time>
      </trkpt>
      <trkpt lat="43.66426" lon="3.63012">
        <ele>303.43</ele>
        <time>2015-06-14T07:57:03Z</time>
      </trkpt>
      <trkpt lat="43.66413" lon="3.63025">
        <ele>304.88</ele>
        <time>2015-06-14T07:57:12Z</time>
      </trkpt>
      <trkpt lat="43.66402" lon="3.63037">
        <ele>306.32</ele>
        <time>2015-06-14T07:57:20Z</time>
      </trkpt>
      <trkpt lat="43.66389" lon="3.63049">
        <ele>307.76</ele>
        <time>2015-06-14T07:57:30Z</time>
      </trkpt>
      <trkpt lat="43.66378" lon="3.63055">
        <ele>309.2</ele>
        <time>2015-06-14T07:57:39Z</time>
      </trkpt>
      <trkpt lat="43.66371" lon="3.63057">
        <ele>309.68</ele>
        <time>2015-06-14T07:57:45Z</time>
      </trkpt>
      <trkpt lat="43.66375" lon="3.63064">
        <ele>308.24</ele>
        <time>2015-06-14T07:57:51Z</time>
      </trkpt>
      <trkpt lat="43.66377" lon="3.63064">
        <ele>307.76</ele>
        <time>2015-06-14T07:57:55Z</time>
      </trkpt>
      <trkpt lat="43.66377" lon="3.63064">
        <ele>307.76</ele>
        <time>2015-06-14T07:58:09Z</time>
      </trkpt>
      <trkpt lat="43.66378" lon="3.63064">
        <ele>307.28</ele>
        <time>2015-06-14T07:58:20Z</time>
      </trkpt>
      <trkpt lat="43.66379" lon="3.63063">
        <ele>307.28</ele>
        <time>2015-06-14T07:58:24Z</time>
      </trkpt>
      <trkpt lat="43.66388" lon="3.63064">
        <ele>306.32</ele>
        <time>2015-06-14T07:58:31Z</time>
      </trkpt>
      <trkpt lat="43.66397" lon="3.63067">
        <ele>303.91</ele>
        <time>2015-06-14T07:58:36Z</time>
      </trkpt>
      <trkpt lat="43.66402" lon="3.63067">
        <ele>302.47</ele>
        <time>2015-06-14T07:58:39Z</time>
      </trkpt>
      <trkpt lat="43.66412" lon="3.63066">
        <ele>298.63</ele>
        <time>2015-06-14T07:58:43Z</time>
      </trkpt>
      <trkpt lat="43.66427" lon="3.63056">
        <ele>294.3</ele>
        <time>2015-06-14T07:58:48Z</time>
      </trkpt>
      <trkpt lat="43.66434" lon="3.63048">
        <ele>293.34</ele>
        <time>2015-06-14T07:58:50Z</time>
      </trkpt>
      <trkpt lat="43.66443" lon="3.63036">
        <ele>291.9</ele>
        <time>2015-06-14T07:58:54Z</time>
      </trkpt>
      <trkpt lat="43.66453" lon="3.63025">
        <ele>289.49</ele>
        <time>2015-06-14T07:58:58Z</time>
      </trkpt>
      <trkpt lat="43.6646" lon="3.6302">
        <ele>288.05</ele>
        <time>2015-06-14T07:59:00Z</time>
      </trkpt>
      <trkpt lat="43.66467" lon="3.63015">
        <ele>286.61</ele>
        <time>2015-06-14T07:59:02Z</time>
      </trkpt>
      <trkpt lat="43.66484" lon="3.62997">
        <ele>281.8</ele>
        <time>2015-06-14T07:59:07Z</time>
      </trkpt>
      <trkpt lat="43.66496" lon="3.62988">
        <ele>277.96</ele>
        <time>2015-06-14T07:59:11Z</time>
      </trkpt>
      <trkpt lat="43.66498" lon="3.62986">
        <ele>277.96</ele>
        <time>2015-06-14T07:59:12Z</time>
      </trkpt>
      <trkpt lat="43.66505" lon="3.62982">
        <ele>275.56</ele>
        <time>2015-06-14T07:59:14Z</time>
      </trkpt>
      <trkpt lat="43.66514" lon="3.62992">
        <ele>270.27</ele>
        <time>2015-06-14T07:59:18Z</time>
      </trkpt>
      <trkpt lat="43.6652" lon="3.62997">
        <ele>267.38</ele>
        <time>2015-06-14T07:59:20Z</time>
      </trkpt>
      <trkpt lat="43.66528" lon="3.63008">
        <ele>262.58</ele>
        <time>2015-06-14T07:59:24Z</time>
      </trkpt>
      <trkpt lat="43.66532" lon="3.63012">
        <ele>259.69</ele>
        <time>2015-06-14T07:59:26Z</time>
      </trkpt>
      <trkpt lat="43.66549" lon="3.63007">
        <ele>254.41</ele>
        <time>2015-06-14T07:59:31Z</time>
      </trkpt>
      <trkpt lat="43.66558" lon="3.6299">
        <ele>255.37</ele>
        <time>2015-06-14T07:59:35Z</time>
      </trkpt>
      <trkpt lat="43.66573" lon="3.62984">
        <ele>253.44</ele>
        <time>2015-06-14T07:59:39Z</time>
      </trkpt>
      <trkpt lat="43.66583" lon="3.6299">
        <ele>250.56</ele>
        <time>2015-06-14T07:59:41Z</time>
      </trkpt>
      <trkpt lat="43.66597" lon="3.63006">
        <ele>248.64</ele>
        <time>2015-06-14T07:59:45Z</time>
      </trkpt>
      <trkpt lat="43.66613" lon="3.6302">
        <ele>246.23</ele>
        <time>2015-06-14T07:59:49Z</time>
      </trkpt>
      <trkpt lat="43.66634" lon="3.63025">
        <ele>246.23</ele>
        <time>2015-06-14T07:59:54Z</time>
      </trkpt>
      <trkpt lat="43.66641" lon="3.6302">
        <ele>244.79</ele>
        <time>2015-06-14T07:59:56Z</time>
      </trkpt>
      <trkpt lat="43.66669" lon="3.62999">
        <ele>241.43</ele>
        <time>2015-06-14T08:00:02Z</time>
      </trkpt>
      <trkpt lat="43.66678" lon="3.63005">
        <ele>240.47</ele>
        <time>2015-06-14T08:00:05Z</time>
      </trkpt>
      <trkpt lat="43.6668" lon="3.6301">
        <ele>239.99</ele>
        <time>2015-06-14T08:00:06Z</time>
      </trkpt>
      <trkpt lat="43.66687" lon="3.63022">
        <ele>239.51</ele>
        <time>2015-06-14T08:00:09Z</time>
      </trkpt>
      <trkpt lat="43.66692" lon="3.63027">
        <ele>239.02</ele>
        <time>2015-06-14T08:00:10Z</time>
      </trkpt>
      <trkpt lat="43.66696" lon="3.6303">
        <ele>238.54</ele>
        <time>2015-06-14T08:00:11Z</time>
      </trkpt>
      <trkpt lat="43.66701" lon="3.63035">
        <ele>237.1</ele>
        <time>2015-06-14T08:00:12Z</time>
      </trkpt>
      <trkpt lat="43.66706" lon="3.63041">
        <ele>236.14</ele>
        <time>2015-06-14T08:00:13Z</time>
      </trkpt>
      <trkpt lat="43.6671" lon="3.6305">
        <ele>235.18</ele>
        <time>2015-06-14T08:00:14Z</time>
      </trkpt>
      <trkpt lat="43.66713" lon="3.6306">
        <ele>233.74</ele>
        <time>2015-06-14T08:00:15Z</time>
      </trkpt>
      <trkpt lat="43.66714" lon="3.63069">
        <ele>232.78</ele>
        <time>2015-06-14T08:00:16Z</time>
      </trkpt>
      <trkpt lat="43.66713" lon="3.6308">
        <ele>231.81</ele>
        <time>2015-06-14T08:00:17Z</time>
      </trkpt>
      <trkpt lat="43.66711" lon="3.63091">
        <ele>230.85</ele>
        <time>2015-06-14T08:00:18Z</time>
      </trkpt>
      <trkpt lat="43.66709" lon="3.63102">
        <ele>229.89</ele>
        <time>2015-06-14T08:00:19Z</time>
      </trkpt>
      <trkpt lat="43.66707" lon="3.63112">
        <ele>229.89</ele>
        <time>2015-06-14T08:00:20Z</time>
      </trkpt>
      <trkpt lat="43.66701" lon="3.63151">
        <ele>228.93</ele>
        <time>2015-06-14T08:00:24Z</time>
      </trkpt>
      <trkpt lat="43.66697" lon="3.63169">
        <ele>228.45</ele>
        <time>2015-06-14T08:00:27Z</time>
      </trkpt>
      <trkpt lat="43.66698" lon="3.63171">
        <ele>228.45</ele>
        <time>2015-06-14T08:00:28Z</time>
      </trkpt>
      <trkpt lat="43.667" lon="3.63173">
        <ele>228.45</ele>
        <time>2015-06-14T08:00:29Z</time>
      </trkpt>
      <trkpt lat="43.66712" lon="3.63177">
        <ele>226.53</ele>
        <time>2015-06-14T08:00:33Z</time>
      </trkpt>
      <trkpt lat="43.66721" lon="3.63192">
        <ele>225.57</ele>
        <time>2015-06-14T08:00:37Z</time>
      </trkpt>
      <trkpt lat="43.66729" lon="3.63196">
        <ele>222.2</ele>
        <time>2015-06-14T08:00:40Z</time>
      </trkpt>
      <trkpt lat="43.66735" lon="3.63196">
        <ele>220.76</ele>
        <time>2015-06-14T08:00:43Z</time>
      </trkpt>
      <trkpt lat="43.66756" lon="3.63201">
        <ele>216.43</ele>
        <time>2015-06-14T08:00:48Z</time>
      </trkpt>
      <trkpt lat="43.66764" lon="3.63203">
        <ele>214.03</ele>
        <time>2015-06-14T08:00:50Z</time>
      </trkpt>
      <trkpt lat="43.66769" lon="3.63201">
        <ele>213.07</ele>
        <time>2015-06-14T08:00:51Z</time>
      </trkpt>
      <trkpt lat="43.6678" lon="3.63197">
        <ele>211.63</ele>
        <time>2015-06-14T08:00:53Z</time>
      </trkpt>
      <trkpt lat="43.66793" lon="3.6319">
        <ele>209.22</ele>
        <time>2015-06-14T08:00:55Z</time>
      </trkpt>
      <trkpt lat="43.66822" lon="3.63173">
        <ele>208.74</ele>
        <time>2015-06-14T08:01:00Z</time>
      </trkpt>
      <trkpt lat="43.66838" lon="3.63164">
        <ele>207.78</ele>
        <time>2015-06-14T08:01:03Z</time>
      </trkpt>
      <trkpt lat="43.66845" lon="3.63163">
        <ele>206.82</ele>
        <time>2015-06-14T08:01:04Z</time>
      </trkpt>
      <trkpt lat="43.66859" lon="3.6316">
        <ele>205.38</ele>
        <time>2015-06-14T08:01:06Z</time>
      </trkpt>
      <trkpt lat="43.66865" lon="3.63156">
        <ele>205.38</ele>
        <time>2015-06-14T08:01:07Z</time>
      </trkpt>
      <trkpt lat="43.66871" lon="3.63151">
        <ele>204.42</ele>
        <time>2015-06-14T08:01:08Z</time>
      </trkpt>
      <trkpt lat="43.66893" lon="3.63128">
        <ele>203.94</ele>
        <time>2015-06-14T08:01:12Z</time>
      </trkpt>
      <trkpt lat="43.66903" lon="3.63115">
        <ele>203.46</ele>
        <time>2015-06-14T08:01:14Z</time>
      </trkpt>
      <trkpt lat="43.66906" lon="3.63107">
        <ele>203.46</ele>
        <time>2015-06-14T08:01:15Z</time>
      </trkpt>
      <trkpt lat="43.66913" lon="3.63092">
        <ele>202.98</ele>
        <time>2015-06-14T08:01:17Z</time>
      </trkpt>
      <trkpt lat="43.66918" lon="3.63086">
        <ele>202.01</ele>
        <time>2015-06-14T08:01:18Z</time>
      </trkpt>
      <trkpt lat="43.66923" lon="3.6308">
        <ele>202.01</ele>
        <time>2015-06-14T08:01:19Z</time>
      </trkpt>
      <trkpt lat="43.66934" lon="3.63068">
        <ele>199.61</ele>
        <time>2015-06-14T08:01:21Z</time>
      </trkpt>
      <trkpt lat="43.66941" lon="3.63064">
        <ele>199.13</ele>
        <time>2015-06-14T08:01:22Z</time>
      </trkpt>
      <trkpt lat="43.6697" lon="3.63046">
        <ele>195.28</ele>
        <time>2015-06-14T08:01:26Z</time>
      </trkpt>
      <trkpt lat="43.67002" lon="3.63023">
        <ele>192.4</ele>
        <time>2015-06-14T08:01:30Z</time>
      </trkpt>
      <trkpt lat="43.6702" lon="3.63011">
        <ele>191.44</ele>
        <time>2015-06-14T08:01:33Z</time>
      </trkpt>
      <trkpt lat="43.67025" lon="3.6301">
        <ele>191.44</ele>
        <time>2015-06-14T08:01:34Z</time>
      </trkpt>
      <trkpt lat="43.67034" lon="3.63017">
        <ele>191.44</ele>
        <time>2015-06-14T08:01:37Z</time>
      </trkpt>
      <trkpt lat="43.67037" lon="3.63019">
        <ele>191.44</ele>
        <time>2015-06-14T08:01:38Z</time>
      </trkpt>
      <trkpt lat="43.67059" lon="3.63022">
        <ele>189.52</ele>
        <time>2015-06-14T08:01:46Z</time>
      </trkpt>
      <trkpt lat="43.67063" lon="3.63021">
        <ele>187.59</ele>
        <time>2015-06-14T08:01:47Z</time>
      </trkpt>
      <trkpt lat="43.67068" lon="3.63019">
        <ele>185.67</ele>
        <time>2015-06-14T08:01:48Z</time>
      </trkpt>
      <trkpt lat="43.67071" lon="3.63017">
        <ele>185.19</ele>
        <time>2015-06-14T08:01:49Z</time>
      </trkpt>
      <trkpt lat="43.67073" lon="3.63016">
        <ele>185.19</ele>
        <time>2015-06-14T08:01:50Z</time>
      </trkpt>
      <trkpt lat="43.67075" lon="3.63016">
        <ele>185.19</ele>
        <time>2015-06-14T08:01:51Z</time>
      </trkpt>
      <trkpt lat="43.67076" lon="3.63017">
        <ele>185.19</ele>
        <time>2015-06-14T08:01:52Z</time>
      </trkpt>
      <trkpt lat="43.67077" lon="3.6302">
        <ele>185.19</ele>
        <time>2015-06-14T08:01:53Z</time>
      </trkpt>
      <trkpt lat="43.67077" lon="3.63021">
        <ele>185.19</ele>
        <time>2015-06-14T08:01:54Z</time>
      </trkpt>
      <trkpt lat="43.67078" lon="3.63025">
        <ele>185.19</ele>
        <time>2015-06-14T08:01:55Z</time>
      </trkpt>
      <trkpt lat="43.67077" lon="3.63028">
        <ele>184.71</ele>
        <time>2015-06-14T08:01:56Z</time>
      </trkpt>
      <trkpt lat="43.67075" lon="3.6303">
        <ele>184.71</ele>
        <time>2015-06-14T08:01:57Z</time>
      </trkpt>
      <trkpt lat="43.67074" lon="3.63033">
        <ele>184.71</ele>
        <time>2015-06-14T08:01:58Z</time>
      </trkpt>
      <trkpt lat="43.67073" lon="3.63036">
        <ele>184.71</ele>
        <time>2015-06-14T08:01:59Z</time>
      </trkpt>
      <trkpt lat="43.67071" lon="3.63039">
        <ele>184.71</ele>
        <time>2015-06-14T08:02:00Z</time>
      </trkpt>
      <trkpt lat="43.6707" lon="3.63042">
        <ele>184.71</ele>
        <time>2015-06-14T08:02:01Z</time>
      </trkpt>
      <trkpt lat="43.6706" lon="3.63062">
        <ele>184.71</ele>
        <time>2015-06-14T08:02:08Z</time>
      </trkpt>
      <trkpt lat="43.67047" lon="3.6309">
        <ele>184.71</ele>
        <time>2015-06-14T08:02:17Z</time>
      </trkpt>
      <trkpt lat="43.67036" lon="3.63113">
        <ele>184.71</ele>
        <time>2015-06-14T08:02:25Z</time>
      </trkpt>
      <trkpt lat="43.67031" lon="3.63126">
        <ele>184.71</ele>
        <time>2015-06-14T08:02:32Z</time>
      </trkpt>
      <trkpt lat="43.67026" lon="3.63131">
        <ele>184.71</ele>
        <time>2015-06-14T08:02:42Z</time>
      </trkpt>
      <trkpt lat="43.67018" lon="3.63146">
        <ele>184.71</ele>
        <time>2015-06-14T08:02:48Z</time>
      </trkpt>
      <trkpt lat="43.67004" lon="3.63174">
        <ele>184.71</ele>
        <time>2015-06-14T08:02:57Z</time>
      </trkpt>
      <trkpt lat="43.66995" lon="3.63191">
        <ele>184.71</ele>
        <time>2015-06-14T08:03:03Z</time>
      </trkpt>
      <trkpt lat="43.66986" lon="3.63209">
        <ele>185.67</ele>
        <time>2015-06-14T08:03:10Z</time>
      </trkpt>
      <trkpt lat="43.6697" lon="3.63242">
        <ele>186.15</ele>
        <time>2015-06-14T08:03:21Z</time>
      </trkpt>
      <trkpt lat="43.66954" lon="3.63274">
        <ele>186.15</ele>
        <time>2015-06-14T08:03:31Z</time>
      </trkpt>
      <trkpt lat="43.66944" lon="3.63293">
        <ele>186.15</ele>
        <time>2015-06-14T08:03:37Z</time>
      </trkpt>
      <trkpt lat="43.6693" lon="3.63322">
        <ele>186.15</ele>
        <time>2015-06-14T08:03:46Z</time>
      </trkpt>
      <trkpt lat="43.66912" lon="3.63357">
        <ele>186.63</ele>
        <time>2015-06-14T08:03:57Z</time>
      </trkpt>
      <trkpt lat="43.66897" lon="3.63389">
        <ele>187.11</ele>
        <time>2015-06-14T08:04:07Z</time>
      </trkpt>
      <trkpt lat="43.66885" lon="3.63414">
        <ele>187.59</ele>
        <time>2015-06-14T08:04:15Z</time>
      </trkpt>
      <trkpt lat="43.66873" lon="3.63438">
        <ele>188.08</ele>
        <time>2015-06-14T08:04:23Z</time>
      </trkpt>
      <trkpt lat="43.66858" lon="3.63468">
        <ele>188.56</ele>
        <time>2015-06-14T08:04:33Z</time>
      </trkpt>
      <trkpt lat="43.6684" lon="3.63501">
        <ele>190</ele>
        <time>2015-06-14T08:04:45Z</time>
      </trkpt>
      <trkpt lat="43.6683" lon="3.63522">
        <ele>190.48</ele>
        <time>2015-06-14T08:04:52Z</time>
      </trkpt>
      <trkpt lat="43.66819" lon="3.63542">
        <ele>190.96</ele>
        <time>2015-06-14T08:05:00Z</time>
      </trkpt>
      <trkpt lat="43.66813" lon="3.63554">
        <ele>191.44</ele>
        <time>2015-06-14T08:05:05Z</time>
      </trkpt>
      <trkpt lat="43.66801" lon="3.63576">
        <ele>191.92</ele>
        <time>2015-06-14T08:05:13Z</time>
      </trkpt>
      <trkpt lat="43.66785" lon="3.63607">
        <ele>191.92</ele>
        <time>2015-06-14T08:05:23Z</time>
      </trkpt>
      <trkpt lat="43.66772" lon="3.63634">
        <ele>191.92</ele>
        <time>2015-06-14T08:05:32Z</time>
      </trkpt>
      <trkpt lat="43.66761" lon="3.6366">
        <ele>192.88</ele>
        <time>2015-06-14T08:05:41Z</time>
      </trkpt>
      <trkpt lat="43.66751" lon="3.63688">
        <ele>193.84</ele>
        <time>2015-06-14T08:05:50Z</time>
      </trkpt>
      <trkpt lat="43.66755" lon="3.63701">
        <ele>193.84</ele>
        <time>2015-06-14T08:05:54Z</time>
      </trkpt>
      <trkpt lat="43.66758" lon="3.63701">
        <ele>193.84</ele>
        <time>2015-06-14T08:05:55Z</time>
      </trkpt>
      <trkpt lat="43.6676" lon="3.637">
        <ele>193.84</ele>
        <time>2015-06-14T08:05:56Z</time>
      </trkpt>
      <trkpt lat="43.66788" lon="3.63682">
        <ele>193.84</ele>
        <time>2015-06-14T08:06:05Z</time>
      </trkpt>
      <trkpt lat="43.66806" lon="3.6367">
        <ele>192.4</ele>
        <time>2015-06-14T08:06:10Z</time>
      </trkpt>
      <trkpt lat="43.66835" lon="3.6365">
        <ele>191.92</ele>
        <time>2015-06-14T08:06:17Z</time>
      </trkpt>
      <trkpt lat="43.66866" lon="3.63632">
        <ele>190.96</ele>
        <time>2015-06-14T08:06:25Z</time>
      </trkpt>
      <trkpt lat="43.66901" lon="3.63616">
        <ele>190</ele>
        <time>2015-06-14T08:06:34Z</time>
      </trkpt>
      <trkpt lat="43.66935" lon="3.636">
        <ele>189.52</ele>
        <time>2015-06-14T08:06:42Z</time>
      </trkpt>
      <trkpt lat="43.66969" lon="3.63591">
        <ele>188.08</ele>
        <time>2015-06-14T08:06:50Z</time>
      </trkpt>
      <trkpt lat="43.66973" lon="3.63589">
        <ele>188.08</ele>
        <time>2015-06-14T08:06:51Z</time>
      </trkpt>
      <trkpt lat="43.67014" lon="3.63579">
        <ele>187.11</ele>
        <time>2015-06-14T08:07:00Z</time>
      </trkpt>
      <trkpt lat="43.67046" lon="3.63574">
        <ele>186.15</ele>
        <time>2015-06-14T08:07:08Z</time>
      </trkpt>
      <trkpt lat="43.67067" lon="3.63573">
        <ele>186.15</ele>
        <time>2015-06-14T08:07:13Z</time>
      </trkpt>
      <trkpt lat="43.67071" lon="3.63573">
        <ele>186.15</ele>
        <time>2015-06-14T08:07:14Z</time>
      </trkpt>
      <trkpt lat="43.67107" lon="3.63571">
        <ele>185.19</ele>
        <time>2015-06-14T08:07:23Z</time>
      </trkpt>
      <trkpt lat="43.67129" lon="3.63571">
        <ele>184.71</ele>
        <time>2015-06-14T08:07:28Z</time>
      </trkpt>
      <trkpt lat="43.67133" lon="3.63571">
        <ele>184.23</ele>
        <time>2015-06-14T08:07:29Z</time>
      </trkpt>
      <trkpt lat="43.67167" lon="3.63572">
        <ele>183.27</ele>
        <time>2015-06-14T08:07:36Z</time>
      </trkpt>
      <trkpt lat="43.67189" lon="3.63573">
        <ele>183.27</ele>
        <time>2015-06-14T08:07:41Z</time>
      </trkpt>
      <trkpt lat="43.67193" lon="3.63573">
        <ele>182.31</ele>
        <time>2015-06-14T08:07:42Z</time>
      </trkpt>
      <trkpt lat="43.67231" lon="3.63581">
        <ele>181.35</ele>
        <time>2015-06-14T08:07:51Z</time>
      </trkpt>
      <trkpt lat="43.67273" lon="3.63588">
        <ele>180.38</ele>
        <time>2015-06-14T08:08:01Z</time>
      </trkpt>
      <trkpt lat="43.67308" lon="3.63592">
        <ele>179.9</ele>
        <time>2015-06-14T08:08:09Z</time>
      </trkpt>
      <trkpt lat="43.67347" lon="3.63596">
        <ele>178.94</ele>
        <time>2015-06-14T08:08:18Z</time>
      </trkpt>
      <trkpt lat="43.67364" lon="3.63597">
        <ele>178.94</ele>
        <time>2015-06-14T08:08:22Z</time>
      </trkpt>
      <trkpt lat="43.67395" lon="3.63598">
        <ele>177.5</ele>
        <time>2015-06-14T08:08:30Z</time>
      </trkpt>
      <trkpt lat="43.67418" lon="3.63593">
        <ele>177.5</ele>
        <time>2015-06-14T08:08:37Z</time>
      </trkpt>
      <trkpt lat="43.6743" lon="3.63589">
        <ele>177.5</ele>
        <time>2015-06-14T08:08:43Z</time>
      </trkpt>
      <trkpt lat="43.67437" lon="3.6359">
        <ele>177.02</ele>
        <time>2015-06-14T08:08:51Z</time>
      </trkpt>
      <trkpt lat="43.67457" lon="3.63592">
        <ele>177.02</ele>
        <time>2015-06-14T08:08:56Z</time>
      </trkpt>
      <trkpt lat="43.67497" lon="3.63582">
        <ele>174.62</ele>
        <time>2015-06-14T08:09:04Z</time>
      </trkpt>
      <trkpt lat="43.67531" lon="3.63565">
        <ele>174.14</ele>
        <time>2015-06-14T08:09:12Z</time>
      </trkpt>
      <trkpt lat="43.6757" lon="3.63542">
        <ele>173.17</ele>
        <time>2015-06-14T08:09:22Z</time>
      </trkpt>
      <trkpt lat="43.67594" lon="3.63523">
        <ele>172.69</ele>
        <time>2015-06-14T08:09:30Z</time>
      </trkpt>
      <trkpt lat="43.67625" lon="3.63501">
        <ele>171.73</ele>
        <time>2015-06-14T08:09:39Z</time>
      </trkpt>
      <trkpt lat="43.67629" lon="3.635">
        <ele>171.73</ele>
        <time>2015-06-14T08:09:40Z</time>
      </trkpt>
      <trkpt lat="43.67633" lon="3.63498">
        <ele>171.73</ele>
        <time>2015-06-14T08:09:41Z</time>
      </trkpt>
      <trkpt lat="43.67655" lon="3.63478">
        <ele>171.25</ele>
        <time>2015-06-14T08:09:48Z</time>
      </trkpt>
      <trkpt lat="43.67675" lon="3.63459">
        <ele>170.29</ele>
        <time>2015-06-14T08:09:54Z</time>
      </trkpt>
      <trkpt lat="43.67702" lon="3.63436">
        <ele>169.81</ele>
        <time>2015-06-14T08:10:02Z</time>
      </trkpt>
      <trkpt lat="43.67724" lon="3.63413">
        <ele>169.33</ele>
        <time>2015-06-14T08:10:10Z</time>
      </trkpt>
      <trkpt lat="43.6774" lon="3.63394">
        <ele>168.85</ele>
        <time>2015-06-14T08:10:16Z</time>
      </trkpt>
      <trkpt lat="43.67767" lon="3.63357">
        <ele>167.89</ele>
        <time>2015-06-14T08:10:27Z</time>
      </trkpt>
      <trkpt lat="43.67783" lon="3.63335">
        <ele>166.93</ele>
        <time>2015-06-14T08:10:34Z</time>
      </trkpt>
      <trkpt lat="43.678" lon="3.63309">
        <ele>166.45</ele>
        <time>2015-06-14T08:10:44Z</time>
      </trkpt>
      <trkpt lat="43.67813" lon="3.63288">
        <ele>165.96</ele>
        <time>2015-06-14T08:10:51Z</time>
      </trkpt>
      <trkpt lat="43.67826" lon="3.63259">
        <ele>165.48</ele>
        <time>2015-06-14T08:11:00Z</time>
      </trkpt>
      <trkpt lat="43.67836" lon="3.63239">
        <ele>165.48</ele>
        <time>2015-06-14T08:11:07Z</time>
      </trkpt>
      <trkpt lat="43.67845" lon="3.6322">
        <ele>165</ele>
        <time>2015-06-14T08:11:14Z</time>
      </trkpt>
      <trkpt lat="43.67849" lon="3.6321">
        <ele>165</ele>
        <time>2015-06-14T08:11:19Z</time>
      </trkpt>
      <trkpt lat="43.67857" lon="3.63187">
        <ele>164.04</ele>
        <time>2015-06-14T08:11:25Z</time>
      </trkpt>
      <trkpt lat="43.67868" lon="3.63165">
        <ele>164.04</ele>
        <time>2015-06-14T08:11:32Z</time>
      </trkpt>
      <trkpt lat="43.67876" lon="3.63149">
        <ele>163.08</ele>
        <time>2015-06-14T08:11:37Z</time>
      </trkpt>
      <trkpt lat="43.67888" lon="3.63118">
        <ele>162.12</ele>
        <time>2015-06-14T08:11:44Z</time>
      </trkpt>
      <trkpt lat="43.67897" lon="3.6308">
        <ele>161.64</ele>
        <time>2015-06-14T08:11:52Z</time>
      </trkpt>
      <trkpt lat="43.67896" lon="3.63055">
        <ele>161.64</ele>
        <time>2015-06-14T08:11:57Z</time>
      </trkpt>
      <trkpt lat="43.67899" lon="3.63036">
        <ele>161.64</ele>
        <time>2015-06-14T08:12:01Z</time>
      </trkpt>
      <trkpt lat="43.679" lon="3.63031">
        <ele>161.64</ele>
        <time>2015-06-14T08:12:02Z</time>
      </trkpt>
      <trkpt lat="43.67903" lon="3.63027">
        <ele>161.64</ele>
        <time>2015-06-14T08:12:03Z</time>
      </trkpt>
      <trkpt lat="43.67905" lon="3.63024">
        <ele>161.64</ele>
        <time>2015-06-14T08:12:04Z</time>
      </trkpt>
      <trkpt lat="43.67909" lon="3.63021">
        <ele>161.16</ele>
        <time>2015-06-14T08:12:05Z</time>
      </trkpt>
      <trkpt lat="43.67913" lon="3.63018">
        <ele>161.16</ele>
        <time>2015-06-14T08:12:06Z</time>
      </trkpt>
      <trkpt lat="43.67936" lon="3.62999">
        <ele>160.68</ele>
        <time>2015-06-14T08:12:13Z</time>
      </trkpt>
      <trkpt lat="43.67945" lon="3.62987">
        <ele>159.72</ele>
        <time>2015-06-14T08:12:16Z</time>
      </trkpt>
      <trkpt lat="43.67948" lon="3.62981">
        <ele>159.24</ele>
        <time>2015-06-14T08:12:17Z</time>
      </trkpt>
      <trkpt lat="43.67966" lon="3.62939">
        <ele>158.75</ele>
        <time>2015-06-14T08:12:24Z</time>
      </trkpt>
      <trkpt lat="43.6799" lon="3.62885">
        <ele>157.31</ele>
        <time>2015-06-14T08:12:35Z</time>
      </trkpt>
      <trkpt lat="43.68011" lon="3.62836">
        <ele>156.83</ele>
        <time>2015-06-14T08:12:45Z</time>
      </trkpt>
      <trkpt lat="43.68029" lon="3.62795">
        <ele>155.87</ele>
        <time>2015-06-14T08:12:54Z</time>
      </trkpt>
      <trkpt lat="43.68049" lon="3.62751">
        <ele>154.91</ele>
        <time>2015-06-14T08:13:03Z</time>
      </trkpt>
      <trkpt lat="43.68066" lon="3.6271">
        <ele>153.95</ele>
        <time>2015-06-14T08:13:12Z</time>
      </trkpt>
      <trkpt lat="43.68088" lon="3.62661">
        <ele>152.99</ele>
        <time>2015-06-14T08:13:23Z</time>
      </trkpt>
      <trkpt lat="43.68107" lon="3.62616">
        <ele>151.54</ele>
        <time>2015-06-14T08:13:33Z</time>
      </trkpt>
      <trkpt lat="43.68127" lon="3.62571">
        <ele>151.06</ele>
        <time>2015-06-14T08:13:43Z</time>
      </trkpt>
      <trkpt lat="43.68145" lon="3.62532">
        <ele>150.1</ele>
        <time>2015-06-14T08:13:52Z</time>
      </trkpt>
      <trkpt lat="43.68163" lon="3.62492">
        <ele>149.14</ele>
        <time>2015-06-14T08:14:02Z</time>
      </trkpt>
      <trkpt lat="43.68177" lon="3.62458">
        <ele>148.66</ele>
        <time>2015-06-14T08:14:10Z</time>
      </trkpt>
      <trkpt lat="43.68192" lon="3.62412">
        <ele>148.18</ele>
        <time>2015-06-14T08:14:20Z</time>
      </trkpt>
      <trkpt lat="43.68202" lon="3.62378">
        <ele>147.22</ele>
        <time>2015-06-14T08:14:28Z</time>
      </trkpt>
      <trkpt lat="43.68212" lon="3.62336">
        <ele>146.74</ele>
        <time>2015-06-14T08:14:37Z</time>
      </trkpt>
      <trkpt lat="43.68218" lon="3.62303">
        <ele>146.26</ele>
        <time>2015-06-14T08:14:44Z</time>
      </trkpt>
      <trkpt lat="43.68226" lon="3.62255">
        <ele>146.26</ele>
        <time>2015-06-14T08:14:55Z</time>
      </trkpt>
      <trkpt lat="43.68231" lon="3.62224">
        <ele>146.26</ele>
        <time>2015-06-14T08:15:02Z</time>
      </trkpt>
      <trkpt lat="43.68239" lon="3.62185">
        <ele>145.78</ele>
        <time>2015-06-14T08:15:12Z</time>
      </trkpt>
      <trkpt lat="43.68245" lon="3.62155">
        <ele>145.78</ele>
        <time>2015-06-14T08:15:19Z</time>
      </trkpt>
      <trkpt lat="43.6825" lon="3.62125">
        <ele>145.78</ele>
        <time>2015-06-14T08:15:26Z</time>
      </trkpt>
      <trkpt lat="43.68254" lon="3.62093">
        <ele>144.82</ele>
        <time>2015-06-14T08:15:34Z</time>
      </trkpt>
      <trkpt lat="43.68261" lon="3.62046">
        <ele>144.82</ele>
        <time>2015-06-14T08:15:44Z</time>
      </trkpt>
      <trkpt lat="43.68268" lon="3.62">
        <ele>144.82</ele>
        <time>2015-06-14T08:15:54Z</time>
      </trkpt>
      <trkpt lat="43.68274" lon="3.61978">
        <ele>144.82</ele>
        <time>2015-06-14T08:16:00Z</time>
      </trkpt>
      <trkpt lat="43.68276" lon="3.61977">
        <ele>144.82</ele>
        <time>2015-06-14T08:16:01Z</time>
      </trkpt>
      <trkpt lat="43.68278" lon="3.61977">
        <ele>144.82</ele>
        <time>2015-06-14T08:16:02Z</time>
      </trkpt>
      <trkpt lat="43.6828" lon="3.61978">
        <ele>144.82</ele>
        <time>2015-06-14T08:16:03Z</time>
      </trkpt>
      <trkpt lat="43.68281" lon="3.61979">
        <ele>144.82</ele>
        <time>2015-06-14T08:16:04Z</time>
      </trkpt>
      <trkpt lat="43.68281" lon="3.61982">
        <ele>144.82</ele>
        <time>2015-06-14T08:16:05Z</time>
      </trkpt>
      <trkpt lat="43.68281" lon="3.61985">
        <ele>144.82</ele>
        <time>2015-06-14T08:16:06Z</time>
      </trkpt>
      <trkpt lat="43.68281" lon="3.61987">
        <ele>146.26</ele>
        <time>2015-06-14T08:16:07Z</time>
      </trkpt>
      <trkpt lat="43.68282" lon="3.61991">
        <ele>146.74</ele>
        <time>2015-06-14T08:16:08Z</time>
      </trkpt>
      <trkpt lat="43.68282" lon="3.61994">
        <ele>146.74</ele>
        <time>2015-06-14T08:16:09Z</time>
      </trkpt>
      <trkpt lat="43.68282" lon="3.61997">
        <ele>146.74</ele>
        <time>2015-06-14T08:16:10Z</time>
      </trkpt>
      <trkpt lat="43.68282" lon="3.61999">
        <ele>147.22</ele>
        <time>2015-06-14T08:16:11Z</time>
      </trkpt>
      <trkpt lat="43.68281" lon="3.62004">
        <ele>147.7</ele>
        <time>2015-06-14T08:16:13Z</time>
      </trkpt>
      <trkpt lat="43.68281" lon="3.62006">
        <ele>147.7</ele>
        <time>2015-06-14T08:16:14Z</time>
      </trkpt>
      <trkpt lat="43.68281" lon="3.62008">
        <ele>148.18</ele>
        <time>2015-06-14T08:16:15Z</time>
      </trkpt>
      <trkpt lat="43.68281" lon="3.62026">
        <ele>149.62</ele>
        <time>2015-06-14T08:16:23Z</time>
      </trkpt>
      <trkpt lat="43.68281" lon="3.62028">
        <ele>149.62</ele>
        <time>2015-06-14T08:16:24Z</time>
      </trkpt>
      <trkpt lat="43.68281" lon="3.6203">
        <ele>150.1</ele>
        <time>2015-06-14T08:16:25Z</time>
      </trkpt>
      <trkpt lat="43.6828" lon="3.62032">
        <ele>150.1</ele>
        <time>2015-06-14T08:16:26Z</time>
      </trkpt>
      <trkpt lat="43.6828" lon="3.62034">
        <ele>151.06</ele>
        <time>2015-06-14T08:16:27Z</time>
      </trkpt>
      <trkpt lat="43.6828" lon="3.62036">
        <ele>151.06</ele>
        <time>2015-06-14T08:16:28Z</time>
      </trkpt>
      <trkpt lat="43.6828" lon="3.62039">
        <ele>151.06</ele>
        <time>2015-06-14T08:16:29Z</time>
      </trkpt>
      <trkpt lat="43.6828" lon="3.62041">
        <ele>151.54</ele>
        <time>2015-06-14T08:16:30Z</time>
      </trkpt>
      <trkpt lat="43.6828" lon="3.62043">
        <ele>151.54</ele>
        <time>2015-06-14T08:16:31Z</time>
      </trkpt>
      <trkpt lat="43.6828" lon="3.62046">
        <ele>152.03</ele>
        <time>2015-06-14T08:16:32Z</time>
      </trkpt>
      <trkpt lat="43.68279" lon="3.62067">
        <ele>152.51</ele>
        <time>2015-06-14T08:16:39Z</time>
      </trkpt>
      <trkpt lat="43.68285" lon="3.62079">
        <ele>153.95</ele>
        <time>2015-06-14T08:16:45Z</time>
      </trkpt>
      <trkpt lat="43.68299" lon="3.62091">
        <ele>155.39</ele>
        <time>2015-06-14T08:16:54Z</time>
      </trkpt>
      <trkpt lat="43.68317" lon="3.62095">
        <ele>156.35</ele>
        <time>2015-06-14T08:17:03Z</time>
      </trkpt>
      <trkpt lat="43.68338" lon="3.62097">
        <ele>157.31</ele>
        <time>2015-06-14T08:17:13Z</time>
      </trkpt>
      <trkpt lat="43.68355" lon="3.62105">
        <ele>157.79</ele>
        <time>2015-06-14T08:17:22Z</time>
      </trkpt>
      <trkpt lat="43.68366" lon="3.62112">
        <ele>158.27</ele>
        <time>2015-06-14T08:17:28Z</time>
      </trkpt>
      <trkpt lat="43.68384" lon="3.62121">
        <ele>159.24</ele>
        <time>2015-06-14T08:17:37Z</time>
      </trkpt>
      <trkpt lat="43.68398" lon="3.62126">
        <ele>160.2</ele>
        <time>2015-06-14T08:17:44Z</time>
      </trkpt>
      <trkpt lat="43.68413" lon="3.62134">
        <ele>160.68</ele>
        <time>2015-06-14T08:17:52Z</time>
      </trkpt>
      <trkpt lat="43.68427" lon="3.62141">
        <ele>162.6</ele>
        <time>2015-06-14T08:18:01Z</time>
      </trkpt>
      <trkpt lat="43.6844" lon="3.62147">
        <ele>163.56</ele>
        <time>2015-06-14T08:18:09Z</time>
      </trkpt>
      <trkpt lat="43.68453" lon="3.62154">
        <ele>165</ele>
        <time>2015-06-14T08:18:18Z</time>
      </trkpt>
      <trkpt lat="43.68466" lon="3.62162">
        <ele>165.96</ele>
        <time>2015-06-14T08:18:26Z</time>
      </trkpt>
      <trkpt lat="43.68466" lon="3.62164">
        <ele>165.96</ele>
        <time>2015-06-14T08:18:33Z</time>
      </trkpt>
      <trkpt lat="43.68471" lon="3.62168">
        <ele>165.48</ele>
        <time>2015-06-14T08:18:47Z</time>
      </trkpt>
      <trkpt lat="43.68482" lon="3.62172">
        <ele>165.96</ele>
        <time>2015-06-14T08:18:55Z</time>
      </trkpt>
      <trkpt lat="43.68499" lon="3.62181">
        <ele>167.41</ele>
        <time>2015-06-14T08:19:03Z</time>
      </trkpt>
      <trkpt lat="43.68514" lon="3.62189">
        <ele>168.85</ele>
        <time>2015-06-14T08:19:10Z</time>
      </trkpt>
      <trkpt lat="43.68532" lon="3.62196">
        <ele>170.77</ele>
        <time>2015-06-14T08:19:19Z</time>
      </trkpt>
      <trkpt lat="43.68545" lon="3.62205">
        <ele>171.73</ele>
        <time>2015-06-14T08:19:27Z</time>
      </trkpt>
      <trkpt lat="43.68547" lon="3.62206">
        <ele>171.73</ele>
        <time>2015-06-14T08:19:28Z</time>
      </trkpt>
      <trkpt lat="43.68548" lon="3.62207">
        <ele>171.73</ele>
        <time>2015-06-14T08:19:29Z</time>
      </trkpt>
      <trkpt lat="43.68549" lon="3.62208">
        <ele>172.21</ele>
        <time>2015-06-14T08:19:30Z</time>
      </trkpt>
      <trkpt lat="43.6855" lon="3.6221">
        <ele>172.21</ele>
        <time>2015-06-14T08:19:31Z</time>
      </trkpt>
      <trkpt lat="43.68559" lon="3.62222">
        <ele>173.17</ele>
        <time>2015-06-14T08:19:38Z</time>
      </trkpt>
      <trkpt lat="43.68571" lon="3.62244">
        <ele>173.66</ele>
        <time>2015-06-14T08:19:47Z</time>
      </trkpt>
      <trkpt lat="43.68573" lon="3.62245">
        <ele>173.66</ele>
        <time>2015-06-14T08:19:48Z</time>
      </trkpt>
      <trkpt lat="43.68575" lon="3.62246">
        <ele>173.66</ele>
        <time>2015-06-14T08:19:49Z</time>
      </trkpt>
      <trkpt lat="43.68578" lon="3.62247">
        <ele>173.66</ele>
        <time>2015-06-14T08:19:50Z</time>
      </trkpt>
      <trkpt lat="43.68581" lon="3.62247">
        <ele>173.66</ele>
        <time>2015-06-14T08:19:51Z</time>
      </trkpt>
      <trkpt lat="43.68583" lon="3.62245">
        <ele>173.66</ele>
        <time>2015-06-14T08:19:52Z</time>
      </trkpt>
      <trkpt lat="43.68585" lon="3.62243">
        <ele>173.66</ele>
        <time>2015-06-14T08:19:53Z</time>
      </trkpt>
      <trkpt lat="43.68587" lon="3.62241">
        <ele>173.66</ele>
        <time>2015-06-14T08:19:54Z</time>
      </trkpt>
      <trkpt lat="43.68589" lon="3.62239">
        <ele>173.66</ele>
        <time>2015-06-14T08:19:55Z</time>
      </trkpt>
      <trkpt lat="43.686" lon="3.62227">
        <ele>173.66</ele>
        <time>2015-06-14T08:20:02Z</time>
      </trkpt>
      <trkpt lat="43.6861" lon="3.62215">
        <ele>173.66</ele>
        <time>2015-06-14T08:20:08Z</time>
      </trkpt>
      <trkpt lat="43.68621" lon="3.62202">
        <ele>174.14</ele>
        <time>2015-06-14T08:20:14Z</time>
      </trkpt>
      <trkpt lat="43.68635" lon="3.6218">
        <ele>174.62</ele>
        <time>2015-06-14T08:20:22Z</time>
      </trkpt>
      <trkpt lat="43.68649" lon="3.62167">
        <ele>175.1</ele>
        <time>2015-06-14T08:20:29Z</time>
      </trkpt>
      <trkpt lat="43.6867" lon="3.62159">
        <ele>175.1</ele>
        <time>2015-06-14T08:20:36Z</time>
      </trkpt>
      <trkpt lat="43.68703" lon="3.62147">
        <ele>173.17</ele>
        <time>2015-06-14T08:20:45Z</time>
      </trkpt>
      <trkpt lat="43.68735" lon="3.62139">
        <ele>170.77</ele>
        <time>2015-06-14T08:20:51Z</time>
      </trkpt>
      <trkpt lat="43.68749" lon="3.62133">
        <ele>170.29</ele>
        <time>2015-06-14T08:20:54Z</time>
      </trkpt>
      <trkpt lat="43.68752" lon="3.62129">
        <ele>169.33</ele>
        <time>2015-06-14T08:20:55Z</time>
      </trkpt>
      <trkpt lat="43.68755" lon="3.62127">
        <ele>169.33</ele>
        <time>2015-06-14T08:20:56Z</time>
      </trkpt>
      <trkpt lat="43.68758" lon="3.62125">
        <ele>169.33</ele>
        <time>2015-06-14T08:20:57Z</time>
      </trkpt>
      <trkpt lat="43.6876" lon="3.62124">
        <ele>168.85</ele>
        <time>2015-06-14T08:20:58Z</time>
      </trkpt>
      <trkpt lat="43.68762" lon="3.62125">
        <ele>168.37</ele>
        <time>2015-06-14T08:20:59Z</time>
      </trkpt>
      <trkpt lat="43.68765" lon="3.62126">
        <ele>167.89</ele>
        <time>2015-06-14T08:21:00Z</time>
      </trkpt>
      <trkpt lat="43.68767" lon="3.62128">
        <ele>167.41</ele>
        <time>2015-06-14T08:21:01Z</time>
      </trkpt>
      <trkpt lat="43.68769" lon="3.62129">
        <ele>167.41</ele>
        <time>2015-06-14T08:21:02Z</time>
      </trkpt>
      <trkpt lat="43.68771" lon="3.62129">
        <ele>167.41</ele>
        <time>2015-06-14T08:21:03Z</time>
      </trkpt>
      <trkpt lat="43.68774" lon="3.62129">
        <ele>166.93</ele>
        <time>2015-06-14T08:21:04Z</time>
      </trkpt>
      <trkpt lat="43.68777" lon="3.6213">
        <ele>166.45</ele>
        <time>2015-06-14T08:21:05Z</time>
      </trkpt>
      <trkpt lat="43.68787" lon="3.62132">
        <ele>163.08</ele>
        <time>2015-06-14T08:21:07Z</time>
      </trkpt>
      <trkpt lat="43.68792" lon="3.62133">
        <ele>162.6</ele>
        <time>2015-06-14T08:21:08Z</time>
      </trkpt>
      <trkpt lat="43.68794" lon="3.62133">
        <ele>164.04</ele>
        <time>2015-06-14T08:21:09Z</time>
      </trkpt>
      <trkpt lat="43.68798" lon="3.62133">
        <ele>164.04</ele>
        <time>2015-06-14T08:21:10Z</time>
      </trkpt>
      <trkpt lat="43.68803" lon="3.62131">
        <ele>163.08</ele>
        <time>2015-06-14T08:21:11Z</time>
      </trkpt>
      <trkpt lat="43.68808" lon="3.62128">
        <ele>162.6</ele>
        <time>2015-06-14T08:21:12Z</time>
      </trkpt>
      <trkpt lat="43.68822" lon="3.62121">
        <ele>163.08</ele>
        <time>2015-06-14T08:21:15Z</time>
      </trkpt>
      <trkpt lat="43.6884" lon="3.62118">
        <ele>164.52</ele>
        <time>2015-06-14T08:21:20Z</time>
      </trkpt>
      <trkpt lat="43.68866" lon="3.62125">
        <ele>165.96</ele>
        <time>2015-06-14T08:21:28Z</time>
      </trkpt>
      <trkpt lat="43.68892" lon="3.62128">
        <ele>167.41</ele>
        <time>2015-06-14T08:21:36Z</time>
      </trkpt>
      <trkpt lat="43.6891" lon="3.62114">
        <ele>168.85</ele>
        <time>2015-06-14T08:21:43Z</time>
      </trkpt>
      <trkpt lat="43.68923" lon="3.62084">
        <ele>169.33</ele>
        <time>2015-06-14T08:21:51Z</time>
      </trkpt>
      <trkpt lat="43.68934" lon="3.6206">
        <ele>170.29</ele>
        <time>2015-06-14T08:21:58Z</time>
      </trkpt>
      <trkpt lat="43.68947" lon="3.62054">
        <ele>171.73</ele>
        <time>2015-06-14T08:22:03Z</time>
      </trkpt>
      <trkpt lat="43.68968" lon="3.62044">
        <ele>173.17</ele>
        <time>2015-06-14T08:22:11Z</time>
      </trkpt>
      <trkpt lat="43.68976" lon="3.6202">
        <ele>173.66</ele>
        <time>2015-06-14T08:22:17Z</time>
      </trkpt>
      <trkpt lat="43.68982" lon="3.6198">
        <ele>173.66</ele>
        <time>2015-06-14T08:22:26Z</time>
      </trkpt>
      <trkpt lat="43.68989" lon="3.61944">
        <ele>176.06</ele>
        <time>2015-06-14T08:22:35Z</time>
      </trkpt>
      <trkpt lat="43.68996" lon="3.61916">
        <ele>177.02</ele>
        <time>2015-06-14T08:22:43Z</time>
      </trkpt>
      <trkpt lat="43.6901" lon="3.61885">
        <ele>177.02</ele>
        <time>2015-06-14T08:22:52Z</time>
      </trkpt>
      <trkpt lat="43.6903" lon="3.61853">
        <ele>177.5</ele>
        <time>2015-06-14T08:23:02Z</time>
      </trkpt>
      <trkpt lat="43.6905" lon="3.6183">
        <ele>178.46</ele>
        <time>2015-06-14T08:23:10Z</time>
      </trkpt>
      <trkpt lat="43.69072" lon="3.61816">
        <ele>179.42</ele>
        <time>2015-06-14T08:23:18Z</time>
      </trkpt>
      <trkpt lat="43.69097" lon="3.61804">
        <ele>180.87</ele>
        <time>2015-06-14T08:23:27Z</time>
      </trkpt>
      <trkpt lat="43.69123" lon="3.61788">
        <ele>181.83</ele>
        <time>2015-06-14T08:23:37Z</time>
      </trkpt>
      <trkpt lat="43.69151" lon="3.61764">
        <ele>182.31</ele>
        <time>2015-06-14T08:23:48Z</time>
      </trkpt>
      <trkpt lat="43.69173" lon="3.61759">
        <ele>182.31</ele>
        <time>2015-06-14T08:23:55Z</time>
      </trkpt>
      <trkpt lat="43.69195" lon="3.61771">
        <ele>182.31</ele>
        <time>2015-06-14T08:24:03Z</time>
      </trkpt>
      <trkpt lat="43.69212" lon="3.61783">
        <ele>180.87</ele>
        <time>2015-06-14T08:24:09Z</time>
      </trkpt>
      <trkpt lat="43.69229" lon="3.61797">
        <ele>179.42</ele>
        <time>2015-06-14T08:24:15Z</time>
      </trkpt>
      <trkpt lat="43.69232" lon="3.618">
        <ele>179.42</ele>
        <time>2015-06-14T08:24:16Z</time>
      </trkpt>
      <trkpt lat="43.69236" lon="3.61804">
        <ele>178.94</ele>
        <time>2015-06-14T08:24:17Z</time>
      </trkpt>
      <trkpt lat="43.69238" lon="3.61809">
        <ele>178.94</ele>
        <time>2015-06-14T08:24:18Z</time>
      </trkpt>
      <trkpt lat="43.69241" lon="3.61813">
        <ele>178.94</ele>
        <time>2015-06-14T08:24:19Z</time>
      </trkpt>
      <trkpt lat="43.69243" lon="3.61819">
        <ele>178.94</ele>
        <time>2015-06-14T08:24:20Z</time>
      </trkpt>
      <trkpt lat="43.69245" lon="3.61824">
        <ele>178.94</ele>
        <time>2015-06-14T08:24:21Z</time>
      </trkpt>
      <trkpt lat="43.69252" lon="3.61856">
        <ele>178.94</ele>
        <time>2015-06-14T08:24:28Z</time>
      </trkpt>
      <trkpt lat="43.69264" lon="3.61882">
        <ele>178.94</ele>
        <time>2015-06-14T08:24:35Z</time>
      </trkpt>
      <trkpt lat="43.69268" lon="3.61883">
        <ele>178.94</ele>
        <time>2015-06-14T08:24:36Z</time>
      </trkpt>
      <trkpt lat="43.69271" lon="3.61882">
        <ele>178.94</ele>
        <time>2015-06-14T08:24:37Z</time>
      </trkpt>
      <trkpt lat="43.69275" lon="3.6188">
        <ele>178.94</ele>
        <time>2015-06-14T08:24:38Z</time>
      </trkpt>
      <trkpt lat="43.69278" lon="3.61878">
        <ele>178.94</ele>
        <time>2015-06-14T08:24:39Z</time>
      </trkpt>
      <trkpt lat="43.6928" lon="3.61875">
        <ele>178.94</ele>
        <time>2015-06-14T08:24:40Z</time>
      </trkpt>
      <trkpt lat="43.69283" lon="3.61872">
        <ele>178.94</ele>
        <time>2015-06-14T08:24:41Z</time>
      </trkpt>
      <trkpt lat="43.69285" lon="3.61869">
        <ele>178.94</ele>
        <time>2015-06-14T08:24:42Z</time>
      </trkpt>
      <trkpt lat="43.69287" lon="3.61865">
        <ele>178.94</ele>
        <time>2015-06-14T08:24:43Z</time>
      </trkpt>
      <trkpt lat="43.69301" lon="3.61845">
        <ele>180.87</ele>
        <time>2015-06-14T08:24:50Z</time>
      </trkpt>
      <trkpt lat="43.69322" lon="3.61824">
        <ele>181.35</ele>
        <time>2015-06-14T08:24:59Z</time>
      </trkpt>
      <trkpt lat="43.69346" lon="3.61803">
        <ele>182.79</ele>
        <time>2015-06-14T08:25:09Z</time>
      </trkpt>
      <trkpt lat="43.69375" lon="3.61779">
        <ele>185.19</ele>
        <time>2015-06-14T08:25:21Z</time>
      </trkpt>
      <trkpt lat="43.69401" lon="3.61758">
        <ele>187.11</ele>
        <time>2015-06-14T08:25:32Z</time>
      </trkpt>
      <trkpt lat="43.6942" lon="3.6175">
        <ele>188.08</ele>
        <time>2015-06-14T08:25:40Z</time>
      </trkpt>
      <trkpt lat="43.69432" lon="3.61743">
        <ele>188.56</ele>
        <time>2015-06-14T08:25:47Z</time>
      </trkpt>
      <trkpt lat="43.69435" lon="3.61742">
        <ele>189.04</ele>
        <time>2015-06-14T08:25:53Z</time>
      </trkpt>
      <trkpt lat="43.69436" lon="3.61742">
        <ele>189.04</ele>
        <time>2015-06-14T08:26:06Z</time>
      </trkpt>
      <trkpt lat="43.69439" lon="3.61738">
        <ele>189.04</ele>
        <time>2015-06-14T08:26:09Z</time>
      </trkpt>
      <trkpt lat="43.69454" lon="3.6173">
        <ele>189.04</ele>
        <time>2015-06-14T08:26:17Z</time>
      </trkpt>
      <trkpt lat="43.69455" lon="3.61728">
        <ele>189.04</ele>
        <time>2015-06-14T08:26:18Z</time>
      </trkpt>
      <trkpt lat="43.69457" lon="3.61726">
        <ele>189.04</ele>
        <time>2015-06-14T08:26:19Z</time>
      </trkpt>
      <trkpt lat="43.69458" lon="3.61724">
        <ele>189.04</ele>
        <time>2015-06-14T08:26:20Z</time>
      </trkpt>
      <trkpt lat="43.6946" lon="3.61721">
        <ele>187.59</ele>
        <time>2015-06-14T08:26:21Z</time>
      </trkpt>
      <trkpt lat="43.69462" lon="3.61712">
        <ele>186.63</ele>
        <time>2015-06-14T08:26:23Z</time>
      </trkpt>
      <trkpt lat="43.69464" lon="3.61707">
        <ele>186.15</ele>
        <time>2015-06-14T08:26:24Z</time>
      </trkpt>
      <trkpt lat="43.69466" lon="3.61701">
        <ele>185.67</ele>
        <time>2015-06-14T08:26:25Z</time>
      </trkpt>
      <trkpt lat="43.69467" lon="3.61693">
        <ele>184.23</ele>
        <time>2015-06-14T08:26:26Z</time>
      </trkpt>
      <trkpt lat="43.69468" lon="3.61686">
        <ele>184.23</ele>
        <time>2015-06-14T08:26:27Z</time>
      </trkpt>
      <trkpt lat="43.69468" lon="3.61677">
        <ele>183.27</ele>
        <time>2015-06-14T08:26:28Z</time>
      </trkpt>
      <trkpt lat="43.69469" lon="3.61669">
        <ele>183.27</ele>
        <time>2015-06-14T08:26:29Z</time>
      </trkpt>
      <trkpt lat="43.69472" lon="3.61653">
        <ele>183.27</ele>
        <time>2015-06-14T08:26:31Z</time>
      </trkpt>
      <trkpt lat="43.6948" lon="3.61625">
        <ele>182.31</ele>
        <time>2015-06-14T08:26:35Z</time>
      </trkpt>
      <trkpt lat="43.69483" lon="3.61619">
        <ele>182.31</ele>
        <time>2015-06-14T08:26:36Z</time>
      </trkpt>
      <trkpt lat="43.69489" lon="3.61607">
        <ele>180.87</ele>
        <time>2015-06-14T08:26:38Z</time>
      </trkpt>
      <trkpt lat="43.69492" lon="3.61602">
        <ele>179.9</ele>
        <time>2015-06-14T08:26:39Z</time>
      </trkpt>
      <trkpt lat="43.69495" lon="3.61596">
        <ele>178.46</ele>
        <time>2015-06-14T08:26:40Z</time>
      </trkpt>
      <trkpt lat="43.69498" lon="3.61589">
        <ele>177.98</ele>
        <time>2015-06-14T08:26:41Z</time>
      </trkpt>
      <trkpt lat="43.69501" lon="3.61583">
        <ele>176.54</ele>
        <time>2015-06-14T08:26:42Z</time>
      </trkpt>
      <trkpt lat="43.69504" lon="3.61575">
        <ele>175.58</ele>
        <time>2015-06-14T08:26:43Z</time>
      </trkpt>
      <trkpt lat="43.69505" lon="3.61567">
        <ele>175.1</ele>
        <time>2015-06-14T08:26:44Z</time>
      </trkpt>
      <trkpt lat="43.69505" lon="3.61558">
        <ele>173.17</ele>
        <time>2015-06-14T08:26:45Z</time>
      </trkpt>
      <trkpt lat="43.69504" lon="3.61549">
        <ele>172.69</ele>
        <time>2015-06-14T08:26:46Z</time>
      </trkpt>
      <trkpt lat="43.69501" lon="3.61541">
        <ele>171.25</ele>
        <time>2015-06-14T08:26:47Z</time>
      </trkpt>
      <trkpt lat="43.69498" lon="3.61532">
        <ele>170.29</ele>
        <time>2015-06-14T08:26:48Z</time>
      </trkpt>
      <trkpt lat="43.69494" lon="3.61525">
        <ele>169.33</ele>
        <time>2015-06-14T08:26:49Z</time>
      </trkpt>
      <trkpt lat="43.6949" lon="3.61518">
        <ele>168.37</ele>
        <time>2015-06-14T08:26:50Z</time>
      </trkpt>
      <trkpt lat="43.69484" lon="3.61513">
        <ele>167.89</ele>
        <time>2015-06-14T08:26:51Z</time>
      </trkpt>
      <trkpt lat="43.69479" lon="3.61507">
        <ele>167.41</ele>
        <time>2015-06-14T08:26:52Z</time>
      </trkpt>
      <trkpt lat="43.69474" lon="3.615">
        <ele>166.45</ele>
        <time>2015-06-14T08:26:53Z</time>
      </trkpt>
      <trkpt lat="43.6947" lon="3.61491">
        <ele>165.48</ele>
        <time>2015-06-14T08:26:54Z</time>
      </trkpt>
      <trkpt lat="43.69467" lon="3.61482">
        <ele>164.52</ele>
        <time>2015-06-14T08:26:55Z</time>
      </trkpt>
      <trkpt lat="43.69465" lon="3.61474">
        <ele>163.56</ele>
        <time>2015-06-14T08:26:56Z</time>
      </trkpt>
      <trkpt lat="43.69463" lon="3.61466">
        <ele>163.08</ele>
        <time>2015-06-14T08:26:57Z</time>
      </trkpt>
      <trkpt lat="43.69459" lon="3.61459">
        <ele>161.64</ele>
        <time>2015-06-14T08:26:58Z</time>
      </trkpt>
      <trkpt lat="43.69454" lon="3.61452">
        <ele>160.68</ele>
        <time>2015-06-14T08:26:59Z</time>
      </trkpt>
      <trkpt lat="43.69449" lon="3.61447">
        <ele>160.2</ele>
        <time>2015-06-14T08:27:00Z</time>
      </trkpt>
      <trkpt lat="43.69445" lon="3.6144">
        <ele>159.24</ele>
        <time>2015-06-14T08:27:01Z</time>
      </trkpt>
      <trkpt lat="43.69443" lon="3.61432">
        <ele>158.75</ele>
        <time>2015-06-14T08:27:02Z</time>
      </trkpt>
      <trkpt lat="43.69442" lon="3.61425">
        <ele>157.79</ele>
        <time>2015-06-14T08:27:03Z</time>
      </trkpt>
      <trkpt lat="43.6944" lon="3.61418">
        <ele>155.87</ele>
        <time>2015-06-14T08:27:04Z</time>
      </trkpt>
      <trkpt lat="43.69438" lon="3.61412">
        <ele>155.39</ele>
        <time>2015-06-14T08:27:05Z</time>
      </trkpt>
      <trkpt lat="43.69436" lon="3.61405">
        <ele>154.43</ele>
        <time>2015-06-14T08:27:06Z</time>
      </trkpt>
      <trkpt lat="43.69426" lon="3.61372">
        <ele>151.06</ele>
        <time>2015-06-14T08:27:10Z</time>
      </trkpt>
      <trkpt lat="43.69425" lon="3.61363">
        <ele>150.1</ele>
        <time>2015-06-14T08:27:11Z</time>
      </trkpt>
      <trkpt lat="43.69424" lon="3.61353">
        <ele>148.18</ele>
        <time>2015-06-14T08:27:12Z</time>
      </trkpt>
      <trkpt lat="43.69424" lon="3.61343">
        <ele>147.7</ele>
        <time>2015-06-14T08:27:13Z</time>
      </trkpt>
      <trkpt lat="43.69423" lon="3.61332">
        <ele>146.74</ele>
        <time>2015-06-14T08:27:14Z</time>
      </trkpt>
      <trkpt lat="43.69422" lon="3.61322">
        <ele>145.3</ele>
        <time>2015-06-14T08:27:15Z</time>
      </trkpt>
      <trkpt lat="43.69419" lon="3.61276">
        <ele>140.97</ele>
        <time>2015-06-14T08:27:19Z</time>
      </trkpt>
      <trkpt lat="43.69418" lon="3.61264">
        <ele>139.53</ele>
        <time>2015-06-14T08:27:20Z</time>
      </trkpt>
      <trkpt lat="43.69417" lon="3.61252">
        <ele>138.57</ele>
        <time>2015-06-14T08:27:21Z</time>
      </trkpt>
      <trkpt lat="43.69418" lon="3.61241">
        <ele>138.09</ele>
        <time>2015-06-14T08:27:22Z</time>
      </trkpt>
      <trkpt lat="43.69419" lon="3.6123">
        <ele>136.64</ele>
        <time>2015-06-14T08:27:23Z</time>
      </trkpt>
      <trkpt lat="43.6942" lon="3.61218">
        <ele>135.68</ele>
        <time>2015-06-14T08:27:24Z</time>
      </trkpt>
      <trkpt lat="43.69421" lon="3.61206">
        <ele>134.72</ele>
        <time>2015-06-14T08:27:25Z</time>
      </trkpt>
      <trkpt lat="43.69423" lon="3.61183">
        <ele>134.24</ele>
        <time>2015-06-14T08:27:27Z</time>
      </trkpt>
      <trkpt lat="43.69425" lon="3.61172">
        <ele>132.32</ele>
        <time>2015-06-14T08:27:28Z</time>
      </trkpt>
      <trkpt lat="43.69428" lon="3.6116">
        <ele>131.36</ele>
        <time>2015-06-14T08:27:29Z</time>
      </trkpt>
      <trkpt lat="43.69433" lon="3.61138">
        <ele>129.92</ele>
        <time>2015-06-14T08:27:31Z</time>
      </trkpt>
      <trkpt lat="43.69434" lon="3.61129">
        <ele>128.95</ele>
        <time>2015-06-14T08:27:32Z</time>
      </trkpt>
      <trkpt lat="43.69437" lon="3.61121">
        <ele>128.47</ele>
        <time>2015-06-14T08:27:33Z</time>
      </trkpt>
      <trkpt lat="43.69437" lon="3.61112">
        <ele>127.03</ele>
        <time>2015-06-14T08:27:34Z</time>
      </trkpt>
      <trkpt lat="43.69436" lon="3.61104">
        <ele>126.55</ele>
        <time>2015-06-14T08:27:35Z</time>
      </trkpt>
      <trkpt lat="43.69434" lon="3.61098">
        <ele>126.55</ele>
        <time>2015-06-14T08:27:36Z</time>
      </trkpt>
      <trkpt lat="43.69432" lon="3.61092">
        <ele>126.55</ele>
        <time>2015-06-14T08:27:37Z</time>
      </trkpt>
      <trkpt lat="43.69431" lon="3.61086">
        <ele>127.51</ele>
        <time>2015-06-14T08:27:38Z</time>
      </trkpt>
      <trkpt lat="43.6943" lon="3.61078">
        <ele>126.07</ele>
        <time>2015-06-14T08:27:39Z</time>
      </trkpt>
      <trkpt lat="43.6943" lon="3.6107">
        <ele>125.59</ele>
        <time>2015-06-14T08:27:40Z</time>
      </trkpt>
      <trkpt lat="43.6943" lon="3.6106">
        <ele>124.15</ele>
        <time>2015-06-14T08:27:41Z</time>
      </trkpt>
      <trkpt lat="43.69428" lon="3.6105">
        <ele>123.19</ele>
        <time>2015-06-14T08:27:42Z</time>
      </trkpt>
      <trkpt lat="43.69426" lon="3.61041">
        <ele>122.22</ele>
        <time>2015-06-14T08:27:43Z</time>
      </trkpt>
      <trkpt lat="43.69423" lon="3.61032">
        <ele>122.22</ele>
        <time>2015-06-14T08:27:44Z</time>
      </trkpt>
      <trkpt lat="43.69417" lon="3.61014">
        <ele>119.82</ele>
        <time>2015-06-14T08:27:46Z</time>
      </trkpt>
      <trkpt lat="43.69412" lon="3.61006">
        <ele>119.82</ele>
        <time>2015-06-14T08:27:47Z</time>
      </trkpt>
      <trkpt lat="43.69379" lon="3.60968">
        <ele>118.38</ele>
        <time>2015-06-14T08:27:53Z</time>
      </trkpt>
      <trkpt lat="43.69373" lon="3.6096">
        <ele>118.38</ele>
        <time>2015-06-14T08:27:54Z</time>
      </trkpt>
      <trkpt lat="43.69352" lon="3.60932">
        <ele>115.5</ele>
        <time>2015-06-14T08:27:58Z</time>
      </trkpt>
      <trkpt lat="43.69352" lon="3.60925">
        <ele>115.98</ele>
        <time>2015-06-14T08:27:59Z</time>
      </trkpt>
      <trkpt lat="43.69354" lon="3.60917">
        <ele>115.98</ele>
        <time>2015-06-14T08:28:00Z</time>
      </trkpt>
      <trkpt lat="43.69357" lon="3.60909">
        <ele>115.01</ele>
        <time>2015-06-14T08:28:01Z</time>
      </trkpt>
      <trkpt lat="43.69358" lon="3.60899">
        <ele>114.05</ele>
        <time>2015-06-14T08:28:02Z</time>
      </trkpt>
      <trkpt lat="43.69358" lon="3.60888">
        <ele>111.65</ele>
        <time>2015-06-14T08:28:03Z</time>
      </trkpt>
      <trkpt lat="43.69361" lon="3.60867">
        <ele>110.21</ele>
        <time>2015-06-14T08:28:05Z</time>
      </trkpt>
      <trkpt lat="43.69365" lon="3.60844">
        <ele>106.84</ele>
        <time>2015-06-14T08:28:07Z</time>
      </trkpt>
      <trkpt lat="43.69371" lon="3.60819">
        <ele>105.4</ele>
        <time>2015-06-14T08:28:09Z</time>
      </trkpt>
      <trkpt lat="43.69381" lon="3.60783">
        <ele>101.56</ele>
        <time>2015-06-14T08:28:12Z</time>
      </trkpt>
      <trkpt lat="43.6939" lon="3.60728">
        <ele>97.71</ele>
        <time>2015-06-14T08:28:16Z</time>
      </trkpt>
      <trkpt lat="43.69393" lon="3.60683">
        <ele>93.87</ele>
        <time>2015-06-14T08:28:19Z</time>
      </trkpt>
      <trkpt lat="43.69396" lon="3.60641">
        <ele>92.42</ele>
        <time>2015-06-14T08:28:23Z</time>
      </trkpt>
      <trkpt lat="43.69399" lon="3.60633">
        <ele>93.39</ele>
        <time>2015-06-14T08:28:25Z</time>
      </trkpt>
      <trkpt lat="43.69401" lon="3.60632">
        <ele>94.35</ele>
        <time>2015-06-14T08:28:27Z</time>
      </trkpt>
      <trkpt lat="43.69402" lon="3.60631">
        <ele>94.35</ele>
        <time>2015-06-14T08:28:28Z</time>
      </trkpt>
      <trkpt lat="43.69394" lon="3.60617">
        <ele>95.31</ele>
        <time>2015-06-14T08:28:35Z</time>
      </trkpt>
      <trkpt lat="43.69391" lon="3.60611">
        <ele>95.31</ele>
        <time>2015-06-14T08:28:40Z</time>
      </trkpt>
      <trkpt lat="43.69392" lon="3.60612">
        <ele>95.31</ele>
        <time>2015-06-14T08:28:51Z</time>
      </trkpt>
      <trkpt lat="43.69391" lon="3.60612">
        <ele>95.31</ele>
        <time>2015-06-14T08:29:06Z</time>
      </trkpt>
      <trkpt lat="43.6939" lon="3.60611">
        <ele>94.83</ele>
        <time>2015-06-14T08:29:14Z</time>
      </trkpt>
      <trkpt lat="43.69391" lon="3.60611">
        <ele>94.83</ele>
        <time>2015-06-14T08:29:24Z</time>
      </trkpt>
      <trkpt lat="43.69391" lon="3.60611">
        <ele>95.31</ele>
        <time>2015-06-14T08:29:32Z</time>
      </trkpt>
      <trkpt lat="43.69391" lon="3.6061">
        <ele>95.31</ele>
        <time>2015-06-14T08:29:39Z</time>
      </trkpt>
      <trkpt lat="43.69392" lon="3.60608">
        <ele>95.31</ele>
        <time>2015-06-14T08:29:56Z</time>
      </trkpt>
      <trkpt lat="43.69391" lon="3.60608">
        <ele>95.31</ele>
        <time>2015-06-14T08:30:16Z</time>
      </trkpt>
      <trkpt lat="43.69392" lon="3.60608">
        <ele>95.31</ele>
        <time>2015-06-14T08:30:29Z</time>
      </trkpt>
      <trkpt lat="43.69391" lon="3.60608">
        <ele>95.31</ele>
        <time>2015-06-14T08:30:48Z</time>
      </trkpt>
      <trkpt lat="43.6939" lon="3.60609">
        <ele>94.83</ele>
        <time>2015-06-14T08:31:07Z</time>
      </trkpt>
      <trkpt lat="43.69389" lon="3.60609">
        <ele>94.83</ele>
        <time>2015-06-14T08:31:17Z</time>
      </trkpt>
      <trkpt lat="43.69384" lon="3.60599">
        <ele>94.83</ele>
        <time>2015-06-14T08:31:23Z</time>
      </trkpt>
      <trkpt lat="43.69372" lon="3.60578">
        <ele>94.83</ele>
        <time>2015-06-14T08:31:32Z</time>
      </trkpt>
      <trkpt lat="43.69356" lon="3.60553">
        <ele>95.31</ele>
        <time>2015-06-14T08:31:43Z</time>
      </trkpt>
      <trkpt lat="43.69357" lon="3.60554">
        <ele>95.31</ele>
        <time>2015-06-14T08:31:48Z</time>
      </trkpt>
      <trkpt lat="43.69352" lon="3.60547">
        <ele>95.31</ele>
        <time>2015-06-14T08:31:54Z</time>
      </trkpt>
      <trkpt lat="43.69344" lon="3.60535">
        <ele>95.31</ele>
        <time>2015-06-14T08:32:01Z</time>
      </trkpt>
      <trkpt lat="43.69328" lon="3.60509">
        <ele>93.87</ele>
        <time>2015-06-14T08:32:11Z</time>
      </trkpt>
      <trkpt lat="43.69308" lon="3.60475">
        <ele>92.9</ele>
        <time>2015-06-14T08:32:22Z</time>
      </trkpt>
      <trkpt lat="43.6929" lon="3.60438">
        <ele>92.42</ele>
        <time>2015-06-14T08:32:32Z</time>
      </trkpt>
      <trkpt lat="43.69283" lon="3.60404">
        <ele>92.42</ele>
        <time>2015-06-14T08:32:40Z</time>
      </trkpt>
      <trkpt lat="43.69281" lon="3.60354">
        <ele>91.46</ele>
        <time>2015-06-14T08:32:51Z</time>
      </trkpt>
      <trkpt lat="43.69287" lon="3.60313">
        <ele>91.46</ele>
        <time>2015-06-14T08:33:01Z</time>
      </trkpt>
      <trkpt lat="43.69296" lon="3.60275">
        <ele>90.98</ele>
        <time>2015-06-14T08:33:11Z</time>
      </trkpt>
      <trkpt lat="43.69309" lon="3.60243">
        <ele>90.98</ele>
        <time>2015-06-14T08:33:20Z</time>
      </trkpt>
      <trkpt lat="43.69324" lon="3.60221">
        <ele>90.98</ele>
        <time>2015-06-14T08:33:27Z</time>
      </trkpt>
      <trkpt lat="43.6933" lon="3.60216">
        <ele>90.02</ele>
        <time>2015-06-14T08:33:29Z</time>
      </trkpt>
      <trkpt lat="43.69334" lon="3.60216">
        <ele>90.02</ele>
        <time>2015-06-14T08:33:30Z</time>
      </trkpt>
      <trkpt lat="43.69339" lon="3.60216">
        <ele>89.54</ele>
        <time>2015-06-14T08:33:31Z</time>
      </trkpt>
      <trkpt lat="43.69343" lon="3.60217">
        <ele>89.54</ele>
        <time>2015-06-14T08:33:32Z</time>
      </trkpt>
      <trkpt lat="43.69347" lon="3.60218">
        <ele>89.54</ele>
        <time>2015-06-14T08:33:33Z</time>
      </trkpt>
      <trkpt lat="43.6935" lon="3.6022">
        <ele>89.54</ele>
        <time>2015-06-14T08:33:34Z</time>
      </trkpt>
      <trkpt lat="43.69353" lon="3.60221">
        <ele>89.54</ele>
        <time>2015-06-14T08:33:35Z</time>
      </trkpt>
      <trkpt lat="43.69356" lon="3.60223">
        <ele>89.54</ele>
        <time>2015-06-14T08:33:36Z</time>
      </trkpt>
      <trkpt lat="43.6938" lon="3.60228">
        <ele>89.54</ele>
        <time>2015-06-14T08:33:44Z</time>
      </trkpt>
      <trkpt lat="43.69404" lon="3.60232">
        <ele>91.46</ele>
        <time>2015-06-14T08:33:53Z</time>
      </trkpt>
      <trkpt lat="43.69427" lon="3.60231">
        <ele>91.94</ele>
        <time>2015-06-14T08:34:01Z</time>
      </trkpt>
      <trkpt lat="43.6945" lon="3.60224">
        <ele>91.94</ele>
        <time>2015-06-14T08:34:09Z</time>
      </trkpt>
      <trkpt lat="43.69473" lon="3.60216">
        <ele>91.94</ele>
        <time>2015-06-14T08:34:17Z</time>
      </trkpt>
      <trkpt lat="43.69499" lon="3.60206">
        <ele>92.9</ele>
        <time>2015-06-14T08:34:26Z</time>
      </trkpt>
      <trkpt lat="43.69523" lon="3.60188">
        <ele>93.39</ele>
        <time>2015-06-14T08:34:35Z</time>
      </trkpt>
      <trkpt lat="43.69548" lon="3.60168">
        <ele>92.9</ele>
        <time>2015-06-14T08:34:44Z</time>
      </trkpt>
      <trkpt lat="43.69571" lon="3.60156">
        <ele>92.9</ele>
        <time>2015-06-14T08:34:52Z</time>
      </trkpt>
      <trkpt lat="43.69593" lon="3.60143">
        <ele>92.9</ele>
        <time>2015-06-14T08:35:00Z</time>
      </trkpt>
      <trkpt lat="43.6961" lon="3.60126">
        <ele>92.9</ele>
        <time>2015-06-14T08:35:06Z</time>
      </trkpt>
      <trkpt lat="43.69628" lon="3.60114">
        <ele>92.9</ele>
        <time>2015-06-14T08:35:12Z</time>
      </trkpt>
      <trkpt lat="43.69643" lon="3.601">
        <ele>93.87</ele>
        <time>2015-06-14T08:35:18Z</time>
      </trkpt>
      <trkpt lat="43.6966" lon="3.60103">
        <ele>94.83</ele>
        <time>2015-06-14T08:35:24Z</time>
      </trkpt>
      <trkpt lat="43.69688" lon="3.60117">
        <ele>94.83</ele>
        <time>2015-06-14T08:35:34Z</time>
      </trkpt>
      <trkpt lat="43.69708" lon="3.60126">
        <ele>95.31</ele>
        <time>2015-06-14T08:35:41Z</time>
      </trkpt>
      <trkpt lat="43.69736" lon="3.60138">
        <ele>96.27</ele>
        <time>2015-06-14T08:35:51Z</time>
      </trkpt>
      <trkpt lat="43.69759" lon="3.6014">
        <ele>97.23</ele>
        <time>2015-06-14T08:35:59Z</time>
      </trkpt>
      <trkpt lat="43.69789" lon="3.60136">
        <ele>97.71</ele>
        <time>2015-06-14T08:36:09Z</time>
      </trkpt>
      <trkpt lat="43.69819" lon="3.60131">
        <ele>98.67</ele>
        <time>2015-06-14T08:36:19Z</time>
      </trkpt>
      <trkpt lat="43.69839" lon="3.60118">
        <ele>98.67</ele>
        <time>2015-06-14T08:36:26Z</time>
      </trkpt>
      <trkpt lat="43.69862" lon="3.60088">
        <ele>98.67</ele>
        <time>2015-06-14T08:36:36Z</time>
      </trkpt>
      <trkpt lat="43.6988" lon="3.60062">
        <ele>98.67</ele>
        <time>2015-06-14T08:36:44Z</time>
      </trkpt>
      <trkpt lat="43.699" lon="3.60035">
        <ele>98.67</ele>
        <time>2015-06-14T08:36:52Z</time>
      </trkpt>
      <trkpt lat="43.69922" lon="3.60012">
        <ele>99.15</ele>
        <time>2015-06-14T08:37:00Z</time>
      </trkpt>
      <trkpt lat="43.69942" lon="3.59995">
        <ele>100.11</ele>
        <time>2015-06-14T08:37:09Z</time>
      </trkpt>
      <trkpt lat="43.69944" lon="3.59993">
        <ele>100.11</ele>
        <time>2015-06-14T08:37:10Z</time>
      </trkpt>
      <trkpt lat="43.69945" lon="3.59989">
        <ele>100.11</ele>
        <time>2015-06-14T08:37:11Z</time>
      </trkpt>
      <trkpt lat="43.69946" lon="3.59985">
        <ele>100.11</ele>
        <time>2015-06-14T08:37:12Z</time>
      </trkpt>
      <trkpt lat="43.69946" lon="3.59981">
        <ele>100.11</ele>
        <time>2015-06-14T08:37:13Z</time>
      </trkpt>
      <trkpt lat="43.69947" lon="3.59978">
        <ele>100.11</ele>
        <time>2015-06-14T08:37:14Z</time>
      </trkpt>
      <trkpt lat="43.69954" lon="3.5996">
        <ele>101.08</ele>
        <time>2015-06-14T08:37:20Z</time>
      </trkpt>
      <trkpt lat="43.69965" lon="3.59942">
        <ele>102.04</ele>
        <time>2015-06-14T08:37:28Z</time>
      </trkpt>
      <trkpt lat="43.69977" lon="3.59923">
        <ele>103.96</ele>
        <time>2015-06-14T08:37:38Z</time>
      </trkpt>
      <trkpt lat="43.69985" lon="3.59911">
        <ele>105.4</ele>
        <time>2015-06-14T08:37:45Z</time>
      </trkpt>
      <trkpt lat="43.69995" lon="3.59903">
        <ele>107.32</ele>
        <time>2015-06-14T08:37:52Z</time>
      </trkpt>
      <trkpt lat="43.7" lon="3.59899">
        <ele>108.29</ele>
        <time>2015-06-14T08:37:57Z</time>
      </trkpt>
      <trkpt lat="43.70002" lon="3.59899">
        <ele>108.77</ele>
        <time>2015-06-14T08:37:58Z</time>
      </trkpt>
      <trkpt lat="43.70003" lon="3.59898">
        <ele>108.77</ele>
        <time>2015-06-14T08:37:59Z</time>
      </trkpt>
      <trkpt lat="43.70004" lon="3.59898">
        <ele>108.77</ele>
        <time>2015-06-14T08:38:00Z</time>
      </trkpt>
      <trkpt lat="43.70013" lon="3.59892">
        <ele>110.21</ele>
        <time>2015-06-14T08:38:07Z</time>
      </trkpt>
      <trkpt lat="43.70022" lon="3.59889">
        <ele>111.17</ele>
        <time>2015-06-14T08:38:13Z</time>
      </trkpt>
      <trkpt lat="43.70023" lon="3.59888">
        <ele>111.65</ele>
        <time>2015-06-14T08:38:14Z</time>
      </trkpt>
      <trkpt lat="43.70025" lon="3.59887">
        <ele>112.13</ele>
        <time>2015-06-14T08:38:15Z</time>
      </trkpt>
      <trkpt lat="43.70026" lon="3.59886">
        <ele>112.13</ele>
        <time>2015-06-14T08:38:16Z</time>
      </trkpt>
      <trkpt lat="43.70027" lon="3.59886">
        <ele>112.61</ele>
        <time>2015-06-14T08:38:17Z</time>
      </trkpt>
      <trkpt lat="43.70028" lon="3.59885">
        <ele>112.61</ele>
        <time>2015-06-14T08:38:18Z</time>
      </trkpt>
      <trkpt lat="43.70038" lon="3.59878">
        <ele>114.05</ele>
        <time>2015-06-14T08:38:26Z</time>
      </trkpt>
      <trkpt lat="43.70051" lon="3.59872">
        <ele>115.98</ele>
        <time>2015-06-14T08:38:35Z</time>
      </trkpt>
      <trkpt lat="43.70059" lon="3.59869">
        <ele>116.94</ele>
        <time>2015-06-14T08:38:41Z</time>
      </trkpt>
      <trkpt lat="43.70063" lon="3.59863">
        <ele>117.42</ele>
        <time>2015-06-14T08:38:49Z</time>
      </trkpt>
      <trkpt lat="43.70064" lon="3.59862">
        <ele>117.9</ele>
        <time>2015-06-14T08:38:55Z</time>
      </trkpt>
      <trkpt lat="43.70065" lon="3.59863">
        <ele>117.9</ele>
        <time>2015-06-14T08:38:56Z</time>
      </trkpt>
      <trkpt lat="43.70067" lon="3.59864">
        <ele>117.9</ele>
        <time>2015-06-14T08:38:57Z</time>
      </trkpt>
      <trkpt lat="43.7007" lon="3.59865">
        <ele>116.46</ele>
        <time>2015-06-14T08:38:58Z</time>
      </trkpt>
      <trkpt lat="43.70073" lon="3.59866">
        <ele>116.46</ele>
        <time>2015-06-14T08:38:59Z</time>
      </trkpt>
      <trkpt lat="43.70076" lon="3.59865">
        <ele>115.98</ele>
        <time>2015-06-14T08:39:00Z</time>
      </trkpt>
      <trkpt lat="43.7008" lon="3.59864">
        <ele>115.98</ele>
        <time>2015-06-14T08:39:01Z</time>
      </trkpt>
      <trkpt lat="43.70109" lon="3.59857">
        <ele>115.5</ele>
        <time>2015-06-14T08:39:09Z</time>
      </trkpt>
      <trkpt lat="43.70126" lon="3.5986">
        <ele>115.5</ele>
        <time>2015-06-14T08:39:17Z</time>
      </trkpt>
      <trkpt lat="43.7013" lon="3.5986">
        <ele>115.5</ele>
        <time>2015-06-14T08:39:19Z</time>
      </trkpt>
      <trkpt lat="43.70133" lon="3.59858">
        <ele>116.94</ele>
        <time>2015-06-14T08:39:21Z</time>
      </trkpt>
      <trkpt lat="43.70149" lon="3.59849">
        <ele>117.42</ele>
        <time>2015-06-14T08:39:28Z</time>
      </trkpt>
      <trkpt lat="43.70165" lon="3.59839">
        <ele>118.86</ele>
        <time>2015-06-14T08:39:36Z</time>
      </trkpt>
      <trkpt lat="43.70185" lon="3.59827">
        <ele>119.34</ele>
        <time>2015-06-14T08:39:46Z</time>
      </trkpt>
      <trkpt lat="43.70199" lon="3.59819">
        <ele>120.3</ele>
        <time>2015-06-14T08:39:54Z</time>
      </trkpt>
      <trkpt lat="43.70215" lon="3.59811">
        <ele>120.3</ele>
        <time>2015-06-14T08:40:02Z</time>
      </trkpt>
      <trkpt lat="43.70234" lon="3.59799">
        <ele>120.78</ele>
        <time>2015-06-14T08:40:11Z</time>
      </trkpt>
      <trkpt lat="43.70248" lon="3.59789">
        <ele>121.26</ele>
        <time>2015-06-14T08:40:19Z</time>
      </trkpt>
      <trkpt lat="43.70259" lon="3.59781">
        <ele>121.74</ele>
        <time>2015-06-14T08:40:26Z</time>
      </trkpt>
      <trkpt lat="43.70268" lon="3.59774">
        <ele>122.22</ele>
        <time>2015-06-14T08:40:33Z</time>
      </trkpt>
      <trkpt lat="43.70289" lon="3.5977">
        <ele>122.71</ele>
        <time>2015-06-14T08:40:43Z</time>
      </trkpt>
      <trkpt lat="43.70309" lon="3.59768">
        <ele>123.19</ele>
        <time>2015-06-14T08:40:52Z</time>
      </trkpt>
      <trkpt lat="43.70329" lon="3.59769">
        <ele>124.15</ele>
        <time>2015-06-14T08:41:02Z</time>
      </trkpt>
      <trkpt lat="43.70347" lon="3.59771">
        <ele>124.63</ele>
        <time>2015-06-14T08:41:11Z</time>
      </trkpt>
      <trkpt lat="43.70359" lon="3.59773">
        <ele>125.59</ele>
        <time>2015-06-14T08:41:19Z</time>
      </trkpt>
      <trkpt lat="43.70363" lon="3.59771">
        <ele>126.07</ele>
        <time>2015-06-14T08:41:27Z</time>
      </trkpt>
      <trkpt lat="43.70365" lon="3.59773">
        <ele>125.59</ele>
        <time>2015-06-14T08:41:33Z</time>
      </trkpt>
      <trkpt lat="43.70366" lon="3.59773">
        <ele>126.07</ele>
        <time>2015-06-14T08:41:39Z</time>
      </trkpt>
      <trkpt lat="43.70366" lon="3.59773">
        <ele>126.07</ele>
        <time>2015-06-14T08:41:48Z</time>
      </trkpt>
      <trkpt lat="43.70368" lon="3.59773">
        <ele>127.03</ele>
        <time>2015-06-14T08:41:57Z</time>
      </trkpt>
      <trkpt lat="43.70368" lon="3.59772">
        <ele>127.03</ele>
        <time>2015-06-14T08:41:58Z</time>
      </trkpt>
      <trkpt lat="43.70375" lon="3.59756">
        <ele>127.03</ele>
        <time>2015-06-14T08:42:09Z</time>
      </trkpt>
      <trkpt lat="43.70376" lon="3.59752">
        <ele>127.03</ele>
        <time>2015-06-14T08:42:11Z</time>
      </trkpt>
      <trkpt lat="43.7038" lon="3.59739">
        <ele>127.99</ele>
        <time>2015-06-14T08:42:19Z</time>
      </trkpt>
      <trkpt lat="43.70384" lon="3.59723">
        <ele>128.95</ele>
        <time>2015-06-14T08:42:28Z</time>
      </trkpt>
      <trkpt lat="43.70396" lon="3.59716">
        <ele>129.92</ele>
        <time>2015-06-14T08:42:38Z</time>
      </trkpt>
      <trkpt lat="43.70407" lon="3.59711">
        <ele>130.4</ele>
        <time>2015-06-14T08:42:46Z</time>
      </trkpt>
      <trkpt lat="43.70408" lon="3.5971">
        <ele>130.4</ele>
        <time>2015-06-14T08:42:47Z</time>
      </trkpt>
      <trkpt lat="43.70412" lon="3.59706">
        <ele>130.88</ele>
        <time>2015-06-14T08:42:51Z</time>
      </trkpt>
      <trkpt lat="43.7042" lon="3.59701">
        <ele>131.84</ele>
        <time>2015-06-14T08:42:59Z</time>
      </trkpt>
      <trkpt lat="43.70423" lon="3.59701">
        <ele>131.84</ele>
        <time>2015-06-14T08:43:06Z</time>
      </trkpt>
      <trkpt lat="43.70432" lon="3.59705">
        <ele>132.32</ele>
        <time>2015-06-14T08:43:14Z</time>
      </trkpt>
      <trkpt lat="43.70442" lon="3.59721">
        <ele>133.28</ele>
        <time>2015-06-14T08:43:22Z</time>
      </trkpt>
      <trkpt lat="43.70456" lon="3.59747">
        <ele>133.76</ele>
        <time>2015-06-14T08:43:32Z</time>
      </trkpt>
      <trkpt lat="43.7047" lon="3.59771">
        <ele>135.2</ele>
        <time>2015-06-14T08:43:40Z</time>
      </trkpt>
      <trkpt lat="43.70483" lon="3.59795">
        <ele>135.68</ele>
        <time>2015-06-14T08:43:48Z</time>
      </trkpt>
      <trkpt lat="43.70498" lon="3.59825">
        <ele>136.64</ele>
        <time>2015-06-14T08:43:58Z</time>
      </trkpt>
      <trkpt lat="43.7051" lon="3.59844">
        <ele>137.61</ele>
        <time>2015-06-14T08:44:05Z</time>
      </trkpt>
      <trkpt lat="43.70529" lon="3.59881">
        <ele>138.57</ele>
        <time>2015-06-14T08:44:17Z</time>
      </trkpt>
      <trkpt lat="43.7055" lon="3.59918">
        <ele>140.97</ele>
        <time>2015-06-14T08:44:29Z</time>
      </trkpt>
      <trkpt lat="43.70573" lon="3.5996">
        <ele>143.37</ele>
        <time>2015-06-14T08:44:42Z</time>
      </trkpt>
      <trkpt lat="43.70591" lon="3.59993">
        <ele>145.78</ele>
        <time>2015-06-14T08:44:52Z</time>
      </trkpt>
      <trkpt lat="43.70613" lon="3.60034">
        <ele>148.18</ele>
        <time>2015-06-14T08:45:04Z</time>
      </trkpt>
      <trkpt lat="43.70628" lon="3.6006">
        <ele>150.1</ele>
        <time>2015-06-14T08:45:12Z</time>
      </trkpt>
      <trkpt lat="43.70644" lon="3.6009">
        <ele>152.03</ele>
        <time>2015-06-14T08:45:21Z</time>
      </trkpt>
      <trkpt lat="43.70661" lon="3.60121">
        <ele>153.47</ele>
        <time>2015-06-14T08:45:31Z</time>
      </trkpt>
      <trkpt lat="43.70679" lon="3.60153">
        <ele>153.95</ele>
        <time>2015-06-14T08:45:41Z</time>
      </trkpt>
      <trkpt lat="43.70701" lon="3.60194">
        <ele>153.95</ele>
        <time>2015-06-14T08:45:53Z</time>
      </trkpt>
      <trkpt lat="43.70721" lon="3.60228">
        <ele>153.95</ele>
        <time>2015-06-14T08:46:02Z</time>
      </trkpt>
      <trkpt lat="43.70751" lon="3.60266">
        <ele>153.95</ele>
        <time>2015-06-14T08:46:13Z</time>
      </trkpt>
      <trkpt lat="43.70779" lon="3.60297">
        <ele>154.43</ele>
        <time>2015-06-14T08:46:22Z</time>
      </trkpt>
      <trkpt lat="43.70811" lon="3.60334">
        <ele>154.43</ele>
        <time>2015-06-14T08:46:32Z</time>
      </trkpt>
      <trkpt lat="43.70841" lon="3.60369">
        <ele>154.43</ele>
        <time>2015-06-14T08:46:41Z</time>
      </trkpt>
      <trkpt lat="43.70878" lon="3.60411">
        <ele>154.43</ele>
        <time>2015-06-14T08:46:52Z</time>
      </trkpt>
      <trkpt lat="43.7091" lon="3.60447">
        <ele>152.99</ele>
        <time>2015-06-14T08:47:01Z</time>
      </trkpt>
      <trkpt lat="43.70947" lon="3.60484">
        <ele>152.99</ele>
        <time>2015-06-14T08:47:11Z</time>
      </trkpt>
      <trkpt lat="43.70987" lon="3.60517">
        <ele>152.03</ele>
        <time>2015-06-14T08:47:21Z</time>
      </trkpt>
      <trkpt lat="43.71019" lon="3.60559">
        <ele>150.1</ele>
        <time>2015-06-14T08:47:29Z</time>
      </trkpt>
      <trkpt lat="43.71048" lon="3.60612">
        <ele>148.18</ele>
        <time>2015-06-14T08:47:37Z</time>
      </trkpt>
      <trkpt lat="43.71085" lon="3.60683">
        <ele>145.3</ele>
        <time>2015-06-14T08:47:46Z</time>
      </trkpt>
      <trkpt lat="43.71116" lon="3.60753">
        <ele>141.45</ele>
        <time>2015-06-14T08:47:54Z</time>
      </trkpt>
      <trkpt lat="43.7112" lon="3.60762">
        <ele>141.45</ele>
        <time>2015-06-14T08:47:55Z</time>
      </trkpt>
      <trkpt lat="43.71147" lon="3.60823">
        <ele>141.93</ele>
        <time>2015-06-14T08:48:03Z</time>
      </trkpt>
      <trkpt lat="43.7116" lon="3.60849">
        <ele>142.41</ele>
        <time>2015-06-14T08:48:08Z</time>
      </trkpt>
      <trkpt lat="43.71187" lon="3.60883">
        <ele>144.82</ele>
        <time>2015-06-14T08:48:17Z</time>
      </trkpt>
      <trkpt lat="43.71214" lon="3.60917">
        <ele>145.78</ele>
        <time>2015-06-14T08:48:25Z</time>
      </trkpt>
      <trkpt lat="43.71248" lon="3.60967">
        <ele>148.18</ele>
        <time>2015-06-14T08:48:33Z</time>
      </trkpt>
      <trkpt lat="43.71274" lon="3.6103">
        <ele>150.58</ele>
        <time>2015-06-14T08:48:42Z</time>
      </trkpt>
      <trkpt lat="43.71291" lon="3.61073">
        <ele>152.99</ele>
        <time>2015-06-14T08:48:50Z</time>
      </trkpt>
      <trkpt lat="43.71311" lon="3.61122">
        <ele>155.39</ele>
        <time>2015-06-14T08:49:01Z</time>
      </trkpt>
      <trkpt lat="43.71332" lon="3.61174">
        <ele>157.31</ele>
        <time>2015-06-14T08:49:13Z</time>
      </trkpt>
      <trkpt lat="43.71345" lon="3.61214">
        <ele>158.27</ele>
        <time>2015-06-14T08:49:22Z</time>
      </trkpt>
      <trkpt lat="43.71346" lon="3.61251">
        <ele>159.72</ele>
        <time>2015-06-14T08:49:30Z</time>
      </trkpt>
      <trkpt lat="43.71337" lon="3.61284">
        <ele>161.16</ele>
        <time>2015-06-14T08:49:38Z</time>
      </trkpt>
      <trkpt lat="43.7132" lon="3.61314">
        <ele>162.6</ele>
        <time>2015-06-14T08:49:46Z</time>
      </trkpt>
      <trkpt lat="43.71308" lon="3.61333">
        <ele>163.56</ele>
        <time>2015-06-14T08:49:53Z</time>
      </trkpt>
      <trkpt lat="43.71292" lon="3.61359">
        <ele>164.52</ele>
        <time>2015-06-14T08:50:02Z</time>
      </trkpt>
      <trkpt lat="43.71283" lon="3.61377">
        <ele>165.48</ele>
        <time>2015-06-14T08:50:08Z</time>
      </trkpt>
      <trkpt lat="43.71276" lon="3.61399">
        <ele>166.93</ele>
        <time>2015-06-14T08:50:14Z</time>
      </trkpt>
      <trkpt lat="43.7127" lon="3.61417">
        <ele>167.89</ele>
        <time>2015-06-14T08:50:21Z</time>
      </trkpt>
      <trkpt lat="43.71266" lon="3.61431">
        <ele>168.85</ele>
        <time>2015-06-14T08:50:28Z</time>
      </trkpt>
      <trkpt lat="43.71261" lon="3.61453">
        <ele>170.77</ele>
        <time>2015-06-14T08:50:38Z</time>
      </trkpt>
      <trkpt lat="43.71255" lon="3.61474">
        <ele>172.69</ele>
        <time>2015-06-14T08:50:48Z</time>
      </trkpt>
      <trkpt lat="43.71254" lon="3.6149">
        <ele>173.66</ele>
        <time>2015-06-14T08:50:55Z</time>
      </trkpt>
      <trkpt lat="43.71258" lon="3.61506">
        <ele>175.1</ele>
        <time>2015-06-14T08:51:02Z</time>
      </trkpt>
      <trkpt lat="43.71269" lon="3.61529">
        <ele>176.54</ele>
        <time>2015-06-14T08:51:12Z</time>
      </trkpt>
      <trkpt lat="43.71277" lon="3.61544">
        <ele>176.54</ele>
        <time>2015-06-14T08:51:19Z</time>
      </trkpt>
      <trkpt lat="43.71288" lon="3.61558">
        <ele>176.54</ele>
        <time>2015-06-14T08:51:27Z</time>
      </trkpt>
      <trkpt lat="43.713" lon="3.61572">
        <ele>176.54</ele>
        <time>2015-06-14T08:51:35Z</time>
      </trkpt>
      <trkpt lat="43.71317" lon="3.61589">
        <ele>176.54</ele>
        <time>2015-06-14T08:51:43Z</time>
      </trkpt>
      <trkpt lat="43.71334" lon="3.61604">
        <ele>174.62</ele>
        <time>2015-06-14T08:51:49Z</time>
      </trkpt>
      <trkpt lat="43.71338" lon="3.61603">
        <ele>174.14</ele>
        <time>2015-06-14T08:51:50Z</time>
      </trkpt>
      <trkpt lat="43.71341" lon="3.616">
        <ele>174.14</ele>
        <time>2015-06-14T08:51:51Z</time>
      </trkpt>
      <trkpt lat="43.71343" lon="3.61597">
        <ele>174.14</ele>
        <time>2015-06-14T08:51:52Z</time>
      </trkpt>
      <trkpt lat="43.71345" lon="3.61594">
        <ele>174.14</ele>
        <time>2015-06-14T08:51:53Z</time>
      </trkpt>
      <trkpt lat="43.71346" lon="3.61591">
        <ele>176.06</ele>
        <time>2015-06-14T08:51:54Z</time>
      </trkpt>
      <trkpt lat="43.71347" lon="3.61588">
        <ele>176.06</ele>
        <time>2015-06-14T08:51:55Z</time>
      </trkpt>
      <trkpt lat="43.71355" lon="3.61571">
        <ele>177.5</ele>
        <time>2015-06-14T08:52:02Z</time>
      </trkpt>
      <trkpt lat="43.71364" lon="3.6155">
        <ele>178.46</ele>
        <time>2015-06-14T08:52:10Z</time>
      </trkpt>
      <trkpt lat="43.71378" lon="3.61521">
        <ele>179.9</ele>
        <time>2015-06-14T08:52:20Z</time>
      </trkpt>
      <trkpt lat="43.71393" lon="3.61491">
        <ele>180.87</ele>
        <time>2015-06-14T08:52:32Z</time>
      </trkpt>
      <trkpt lat="43.71405" lon="3.61469">
        <ele>180.87</ele>
        <time>2015-06-14T08:52:40Z</time>
      </trkpt>
      <trkpt lat="43.71424" lon="3.61451">
        <ele>180.87</ele>
        <time>2015-06-14T08:52:47Z</time>
      </trkpt>
      <trkpt lat="43.71447" lon="3.61448">
        <ele>180.87</ele>
        <time>2015-06-14T08:52:54Z</time>
      </trkpt>
      <trkpt lat="43.71475" lon="3.61441">
        <ele>180.87</ele>
        <time>2015-06-14T08:53:03Z</time>
      </trkpt>
      <trkpt lat="43.71495" lon="3.61428">
        <ele>180.87</ele>
        <time>2015-06-14T08:53:10Z</time>
      </trkpt>
      <trkpt lat="43.71519" lon="3.61408">
        <ele>180.87</ele>
        <time>2015-06-14T08:53:19Z</time>
      </trkpt>
      <trkpt lat="43.7153" lon="3.61396">
        <ele>180.87</ele>
        <time>2015-06-14T08:53:24Z</time>
      </trkpt>
      <trkpt lat="43.71544" lon="3.61372">
        <ele>177.98</ele>
        <time>2015-06-14T09:01:58Z</time>
      </trkpt>
      <trkpt lat="43.71544" lon="3.61376">
        <ele>177.98</ele>
        <time>2015-06-14T09:01:59Z</time>
      </trkpt>
      <trkpt lat="43.71545" lon="3.61381">
        <ele>177.98</ele>
        <time>2015-06-14T09:02:00Z</time>
      </trkpt>
      <trkpt lat="43.71547" lon="3.61385">
        <ele>179.42</ele>
        <time>2015-06-14T09:02:01Z</time>
      </trkpt>
      <trkpt lat="43.71548" lon="3.61388">
        <ele>180.38</ele>
        <time>2015-06-14T09:02:02Z</time>
      </trkpt>
      <trkpt lat="43.71551" lon="3.6139">
        <ele>180.87</ele>
        <time>2015-06-14T09:02:03Z</time>
      </trkpt>
      <trkpt lat="43.71553" lon="3.61391">
        <ele>180.87</ele>
        <time>2015-06-14T09:02:04Z</time>
      </trkpt>
      <trkpt lat="43.71556" lon="3.61392">
        <ele>180.87</ele>
        <time>2015-06-14T09:02:05Z</time>
      </trkpt>
      <trkpt lat="43.71558" lon="3.61391">
        <ele>181.35</ele>
        <time>2015-06-14T09:02:06Z</time>
      </trkpt>
      <trkpt lat="43.71561" lon="3.61391">
        <ele>181.35</ele>
        <time>2015-06-14T09:02:07Z</time>
      </trkpt>
      <trkpt lat="43.71564" lon="3.6139">
        <ele>181.83</ele>
        <time>2015-06-14T09:02:08Z</time>
      </trkpt>
      <trkpt lat="43.71587" lon="3.61379">
        <ele>182.79</ele>
        <time>2015-06-14T09:02:17Z</time>
      </trkpt>
      <trkpt lat="43.71609" lon="3.61367">
        <ele>184.71</ele>
        <time>2015-06-14T09:02:26Z</time>
      </trkpt>
      <trkpt lat="43.71635" lon="3.61355">
        <ele>185.67</ele>
        <time>2015-06-14T09:02:36Z</time>
      </trkpt>
      <trkpt lat="43.71652" lon="3.61345">
        <ele>187.11</ele>
        <time>2015-06-14T09:02:43Z</time>
      </trkpt>
      <trkpt lat="43.71674" lon="3.61318">
        <ele>188.56</ele>
        <time>2015-06-14T09:02:53Z</time>
      </trkpt>
      <trkpt lat="43.71693" lon="3.61288">
        <ele>189.52</ele>
        <time>2015-06-14T09:03:03Z</time>
      </trkpt>
      <trkpt lat="43.71708" lon="3.61263">
        <ele>190.48</ele>
        <time>2015-06-14T09:03:11Z</time>
      </trkpt>
      <trkpt lat="43.71724" lon="3.61232">
        <ele>190.96</ele>
        <time>2015-06-14T09:03:20Z</time>
      </trkpt>
      <trkpt lat="43.71742" lon="3.61199">
        <ele>192.4</ele>
        <time>2015-06-14T09:03:30Z</time>
      </trkpt>
      <trkpt lat="43.71752" lon="3.61169">
        <ele>192.88</ele>
        <time>2015-06-14T09:03:38Z</time>
      </trkpt>
      <trkpt lat="43.7176" lon="3.61131">
        <ele>193.36</ele>
        <time>2015-06-14T09:03:46Z</time>
      </trkpt>
      <trkpt lat="43.71769" lon="3.61089">
        <ele>194.32</ele>
        <time>2015-06-14T09:03:56Z</time>
      </trkpt>
      <trkpt lat="43.71781" lon="3.61054">
        <ele>195.77</ele>
        <time>2015-06-14T09:04:06Z</time>
      </trkpt>
      <trkpt lat="43.71796" lon="3.61032">
        <ele>196.25</ele>
        <time>2015-06-14T09:04:13Z</time>
      </trkpt>
      <trkpt lat="43.71823" lon="3.61003">
        <ele>196.25</ele>
        <time>2015-06-14T09:04:23Z</time>
      </trkpt>
      <trkpt lat="43.71837" lon="3.60984">
        <ele>195.77</ele>
        <time>2015-06-14T09:04:30Z</time>
      </trkpt>
      <trkpt lat="43.71857" lon="3.60956">
        <ele>194.8</ele>
        <time>2015-06-14T09:04:38Z</time>
      </trkpt>
      <trkpt lat="43.71888" lon="3.60912">
        <ele>193.84</ele>
        <time>2015-06-14T09:04:48Z</time>
      </trkpt>
      <trkpt lat="43.7191" lon="3.60878">
        <ele>193.84</ele>
        <time>2015-06-14T09:04:57Z</time>
      </trkpt>
      <trkpt lat="43.71921" lon="3.60863">
        <ele>193.84</ele>
        <time>2015-06-14T09:05:01Z</time>
      </trkpt>
      <trkpt lat="43.71949" lon="3.60833">
        <ele>195.77</ele>
        <time>2015-06-14T09:05:10Z</time>
      </trkpt>
      <trkpt lat="43.71975" lon="3.60812">
        <ele>196.25</ele>
        <time>2015-06-14T09:05:19Z</time>
      </trkpt>
      <trkpt lat="43.71995" lon="3.60788">
        <ele>196.25</ele>
        <time>2015-06-14T09:05:27Z</time>
      </trkpt>
      <trkpt lat="43.72006" lon="3.60753">
        <ele>196.25</ele>
        <time>2015-06-14T09:05:35Z</time>
      </trkpt>
      <trkpt lat="43.72026" lon="3.60711">
        <ele>194.32</ele>
        <time>2015-06-14T09:05:45Z</time>
      </trkpt>
      <trkpt lat="43.72029" lon="3.60706">
        <ele>194.32</ele>
        <time>2015-06-14T09:05:46Z</time>
      </trkpt>
      <trkpt lat="43.72046" lon="3.60663">
        <ele>193.84</ele>
        <time>2015-06-14T09:05:55Z</time>
      </trkpt>
      <trkpt lat="43.72062" lon="3.6064">
        <ele>193.84</ele>
        <time>2015-06-14T09:06:01Z</time>
      </trkpt>
      <trkpt lat="43.72065" lon="3.60637">
        <ele>193.84</ele>
        <time>2015-06-14T09:06:02Z</time>
      </trkpt>
      <trkpt lat="43.72095" lon="3.60614">
        <ele>193.84</ele>
        <time>2015-06-14T09:06:11Z</time>
      </trkpt>
      <trkpt lat="43.72107" lon="3.60601">
        <ele>195.28</ele>
        <time>2015-06-14T09:06:15Z</time>
      </trkpt>
      <trkpt lat="43.72138" lon="3.6057">
        <ele>196.73</ele>
        <time>2015-06-14T09:06:26Z</time>
      </trkpt>
      <trkpt lat="43.72164" lon="3.60552">
        <ele>198.17</ele>
        <time>2015-06-14T09:06:35Z</time>
      </trkpt>
      <trkpt lat="43.72169" lon="3.60547">
        <ele>198.65</ele>
        <time>2015-06-14T09:06:39Z</time>
      </trkpt>
      <trkpt lat="43.7217" lon="3.60527">
        <ele>198.65</ele>
        <time>2015-06-14T09:06:44Z</time>
      </trkpt>
      <trkpt lat="43.72167" lon="3.60499">
        <ele>199.61</ele>
        <time>2015-06-14T09:06:50Z</time>
      </trkpt>
      <trkpt lat="43.72154" lon="3.60463">
        <ele>200.57</ele>
        <time>2015-06-14T09:06:59Z</time>
      </trkpt>
      <trkpt lat="43.72139" lon="3.60441">
        <ele>201.05</ele>
        <time>2015-06-14T09:07:06Z</time>
      </trkpt>
      <trkpt lat="43.72136" lon="3.60419">
        <ele>202.01</ele>
        <time>2015-06-14T09:07:12Z</time>
      </trkpt>
      <trkpt lat="43.72135" lon="3.60385">
        <ele>203.94</ele>
        <time>2015-06-14T09:07:22Z</time>
      </trkpt>
      <trkpt lat="43.72139" lon="3.6036">
        <ele>204.9</ele>
        <time>2015-06-14T09:07:30Z</time>
      </trkpt>
      <trkpt lat="43.72146" lon="3.60337">
        <ele>205.86</ele>
        <time>2015-06-14T09:07:38Z</time>
      </trkpt>
      <trkpt lat="43.72147" lon="3.60307">
        <ele>206.82</ele>
        <time>2015-06-14T09:07:47Z</time>
      </trkpt>
      <trkpt lat="43.72136" lon="3.6028">
        <ele>207.78</ele>
        <time>2015-06-14T09:07:55Z</time>
      </trkpt>
      <trkpt lat="43.72135" lon="3.60255">
        <ele>208.74</ele>
        <time>2015-06-14T09:08:02Z</time>
      </trkpt>
      <trkpt lat="43.72127" lon="3.60231">
        <ele>209.7</ele>
        <time>2015-06-14T09:08:09Z</time>
      </trkpt>
      <trkpt lat="43.72117" lon="3.60204">
        <ele>210.67</ele>
        <time>2015-06-14T09:08:17Z</time>
      </trkpt>
      <trkpt lat="43.72108" lon="3.60179">
        <ele>210.67</ele>
        <time>2015-06-14T09:08:25Z</time>
      </trkpt>
      <trkpt lat="43.72106" lon="3.60174">
        <ele>210.67</ele>
        <time>2015-06-14T09:08:29Z</time>
      </trkpt>
      <trkpt lat="43.72105" lon="3.60173">
        <ele>210.67</ele>
        <time>2015-06-14T09:08:30Z</time>
      </trkpt>
      <trkpt lat="43.72102" lon="3.6017">
        <ele>209.22</ele>
        <time>2015-06-14T09:08:32Z</time>
      </trkpt>
      <trkpt lat="43.7209" lon="3.60162">
        <ele>207.78</ele>
        <time>2015-06-14T09:08:36Z</time>
      </trkpt>
      <trkpt lat="43.72082" lon="3.60156">
        <ele>207.3</ele>
        <time>2015-06-14T09:08:38Z</time>
      </trkpt>
      <trkpt lat="43.72078" lon="3.60153">
        <ele>206.82</ele>
        <time>2015-06-14T09:08:39Z</time>
      </trkpt>
      <trkpt lat="43.7207" lon="3.60145">
        <ele>204.9</ele>
        <time>2015-06-14T09:08:41Z</time>
      </trkpt>
      <trkpt lat="43.72065" lon="3.6014">
        <ele>204.42</ele>
        <time>2015-06-14T09:08:42Z</time>
      </trkpt>
      <trkpt lat="43.7206" lon="3.60136">
        <ele>203.46</ele>
        <time>2015-06-14T09:08:43Z</time>
      </trkpt>
      <trkpt lat="43.72053" lon="3.60132">
        <ele>202.98</ele>
        <time>2015-06-14T09:08:44Z</time>
      </trkpt>
      <trkpt lat="43.72047" lon="3.60128">
        <ele>202.98</ele>
        <time>2015-06-14T09:08:45Z</time>
      </trkpt>
      <trkpt lat="43.72041" lon="3.60124">
        <ele>201.53</ele>
        <time>2015-06-14T09:08:46Z</time>
      </trkpt>
      <trkpt lat="43.72034" lon="3.60122">
        <ele>201.53</ele>
        <time>2015-06-14T09:08:47Z</time>
      </trkpt>
      <trkpt lat="43.72011" lon="3.60117">
        <ele>199.61</ele>
        <time>2015-06-14T09:08:50Z</time>
      </trkpt>
      <trkpt lat="43.72003" lon="3.60119">
        <ele>198.17</ele>
        <time>2015-06-14T09:08:51Z</time>
      </trkpt>
      <trkpt lat="43.71996" lon="3.60121">
        <ele>198.17</ele>
        <time>2015-06-14T09:08:52Z</time>
      </trkpt>
      <trkpt lat="43.71988" lon="3.60123">
        <ele>198.17</ele>
        <time>2015-06-14T09:08:53Z</time>
      </trkpt>
      <trkpt lat="43.71981" lon="3.60125">
        <ele>198.65</ele>
        <time>2015-06-14T09:08:54Z</time>
      </trkpt>
      <trkpt lat="43.71974" lon="3.60125">
        <ele>198.65</ele>
        <time>2015-06-14T09:08:55Z</time>
      </trkpt>
      <trkpt lat="43.71968" lon="3.60124">
        <ele>198.65</ele>
        <time>2015-06-14T09:08:56Z</time>
      </trkpt>
      <trkpt lat="43.71963" lon="3.60122">
        <ele>198.65</ele>
        <time>2015-06-14T09:08:57Z</time>
      </trkpt>
      <trkpt lat="43.7196" lon="3.60122">
        <ele>198.65</ele>
        <time>2015-06-14T09:08:58Z</time>
      </trkpt>
      <trkpt lat="43.71956" lon="3.60123">
        <ele>198.65</ele>
        <time>2015-06-14T09:08:59Z</time>
      </trkpt>
      <trkpt lat="43.71953" lon="3.60122">
        <ele>198.65</ele>
        <time>2015-06-14T09:09:00Z</time>
      </trkpt>
      <trkpt lat="43.7195" lon="3.60121">
        <ele>198.65</ele>
        <time>2015-06-14T09:09:01Z</time>
      </trkpt>
      <trkpt lat="43.71923" lon="3.60115">
        <ele>198.65</ele>
        <time>2015-06-14T09:09:09Z</time>
      </trkpt>
      <trkpt lat="43.71903" lon="3.6012">
        <ele>200.09</ele>
        <time>2015-06-14T09:09:15Z</time>
      </trkpt>
      <trkpt lat="43.71885" lon="3.6013">
        <ele>202.01</ele>
        <time>2015-06-14T09:09:22Z</time>
      </trkpt>
      <trkpt lat="43.71859" lon="3.60141">
        <ele>202.01</ele>
        <time>2015-06-14T09:09:31Z</time>
      </trkpt>
      <trkpt lat="43.71846" lon="3.60144">
        <ele>201.05</ele>
        <time>2015-06-14T09:09:35Z</time>
      </trkpt>
      <trkpt lat="43.71823" lon="3.6016">
        <ele>201.05</ele>
        <time>2015-06-14T09:09:42Z</time>
      </trkpt>
      <trkpt lat="43.718" lon="3.60177">
        <ele>201.05</ele>
        <time>2015-06-14T09:09:49Z</time>
      </trkpt>
      <trkpt lat="43.7178" lon="3.6018">
        <ele>202.01</ele>
        <time>2015-06-14T09:09:55Z</time>
      </trkpt>
      <trkpt lat="43.71767" lon="3.60186">
        <ele>202.01</ele>
        <time>2015-06-14T09:09:59Z</time>
      </trkpt>
      <trkpt lat="43.71764" lon="3.6019">
        <ele>202.01</ele>
        <time>2015-06-14T09:10:00Z</time>
      </trkpt>
      <trkpt lat="43.71761" lon="3.60194">
        <ele>201.05</ele>
        <time>2015-06-14T09:10:01Z</time>
      </trkpt>
      <trkpt lat="43.71758" lon="3.60199">
        <ele>201.05</ele>
        <time>2015-06-14T09:10:02Z</time>
      </trkpt>
      <trkpt lat="43.71752" lon="3.60209">
        <ele>200.57</ele>
        <time>2015-06-14T09:10:04Z</time>
      </trkpt>
      <trkpt lat="43.71749" lon="3.60213">
        <ele>200.57</ele>
        <time>2015-06-14T09:10:05Z</time>
      </trkpt>
      <trkpt lat="43.71745" lon="3.60215">
        <ele>200.57</ele>
        <time>2015-06-14T09:10:06Z</time>
      </trkpt>
      <trkpt lat="43.71741" lon="3.60215">
        <ele>200.57</ele>
        <time>2015-06-14T09:10:07Z</time>
      </trkpt>
      <trkpt lat="43.71737" lon="3.60215">
        <ele>200.57</ele>
        <time>2015-06-14T09:10:08Z</time>
      </trkpt>
      <trkpt lat="43.71733" lon="3.60213">
        <ele>200.09</ele>
        <time>2015-06-14T09:10:09Z</time>
      </trkpt>
      <trkpt lat="43.71729" lon="3.6021">
        <ele>199.61</ele>
        <time>2015-06-14T09:10:10Z</time>
      </trkpt>
      <trkpt lat="43.71725" lon="3.60208">
        <ele>199.61</ele>
        <time>2015-06-14T09:10:11Z</time>
      </trkpt>
      <trkpt lat="43.71717" lon="3.60203">
        <ele>199.13</ele>
        <time>2015-06-14T09:10:13Z</time>
      </trkpt>
      <trkpt lat="43.71709" lon="3.60203">
        <ele>198.65</ele>
        <time>2015-06-14T09:10:15Z</time>
      </trkpt>
      <trkpt lat="43.71705" lon="3.60204">
        <ele>197.69</ele>
        <time>2015-06-14T09:10:16Z</time>
      </trkpt>
      <trkpt lat="43.717" lon="3.60205">
        <ele>197.69</ele>
        <time>2015-06-14T09:10:17Z</time>
      </trkpt>
      <trkpt lat="43.71696" lon="3.60206">
        <ele>197.69</ele>
        <time>2015-06-14T09:10:18Z</time>
      </trkpt>
      <trkpt lat="43.71692" lon="3.60207">
        <ele>197.21</ele>
        <time>2015-06-14T09:10:19Z</time>
      </trkpt>
      <trkpt lat="43.71688" lon="3.60208">
        <ele>197.21</ele>
        <time>2015-06-14T09:10:20Z</time>
      </trkpt>
      <trkpt lat="43.7168" lon="3.60209">
        <ele>196.73</ele>
        <time>2015-06-14T09:10:22Z</time>
      </trkpt>
      <trkpt lat="43.71661" lon="3.60215">
        <ele>194.8</ele>
        <time>2015-06-14T09:10:26Z</time>
      </trkpt>
      <trkpt lat="43.71644" lon="3.6022">
        <ele>192.88</ele>
        <time>2015-06-14T09:10:29Z</time>
      </trkpt>
      <trkpt lat="43.71609" lon="3.6023">
        <ele>190</ele>
        <time>2015-06-14T09:10:34Z</time>
      </trkpt>
      <trkpt lat="43.7157" lon="3.60238">
        <ele>187.11</ele>
        <time>2015-06-14T09:10:39Z</time>
      </trkpt>
      <trkpt lat="43.71522" lon="3.60234">
        <ele>184.23</ele>
        <time>2015-06-14T09:10:45Z</time>
      </trkpt>
      <trkpt lat="43.71514" lon="3.60231">
        <ele>183.75</ele>
        <time>2015-06-14T09:10:46Z</time>
      </trkpt>
      <trkpt lat="43.71507" lon="3.60226">
        <ele>183.27</ele>
        <time>2015-06-14T09:10:47Z</time>
      </trkpt>
      <trkpt lat="43.715" lon="3.60219">
        <ele>182.79</ele>
        <time>2015-06-14T09:10:48Z</time>
      </trkpt>
      <trkpt lat="43.71466" lon="3.60187">
        <ele>179.9</ele>
        <time>2015-06-14T09:10:53Z</time>
      </trkpt>
      <trkpt lat="43.7146" lon="3.60184">
        <ele>179.42</ele>
        <time>2015-06-14T09:10:54Z</time>
      </trkpt>
      <trkpt lat="43.71443" lon="3.60174">
        <ele>179.9</ele>
        <time>2015-06-14T09:10:58Z</time>
      </trkpt>
      <trkpt lat="43.71442" lon="3.60171">
        <ele>179.9</ele>
        <time>2015-06-14T09:10:59Z</time>
      </trkpt>
      <trkpt lat="43.71442" lon="3.60169">
        <ele>179.9</ele>
        <time>2015-06-14T09:11:00Z</time>
      </trkpt>
      <trkpt lat="43.71441" lon="3.60168">
        <ele>179.9</ele>
        <time>2015-06-14T09:11:01Z</time>
      </trkpt>
      <trkpt lat="43.71441" lon="3.60166">
        <ele>179.9</ele>
        <time>2015-06-14T09:11:02Z</time>
      </trkpt>
      <trkpt lat="43.7144" lon="3.60163">
        <ele>179.9</ele>
        <time>2015-06-14T09:11:03Z</time>
      </trkpt>
      <trkpt lat="43.71439" lon="3.60161">
        <ele>179.9</ele>
        <time>2015-06-14T09:11:04Z</time>
      </trkpt>
      <trkpt lat="43.71438" lon="3.60157">
        <ele>179.9</ele>
        <time>2015-06-14T09:11:05Z</time>
      </trkpt>
      <trkpt lat="43.71437" lon="3.60154">
        <ele>179.42</ele>
        <time>2015-06-14T09:11:06Z</time>
      </trkpt>
      <trkpt lat="43.71435" lon="3.6015">
        <ele>179.42</ele>
        <time>2015-06-14T09:11:07Z</time>
      </trkpt>
      <trkpt lat="43.71433" lon="3.60147">
        <ele>179.42</ele>
        <time>2015-06-14T09:11:08Z</time>
      </trkpt>
      <trkpt lat="43.71424" lon="3.60132">
        <ele>177.98</ele>
        <time>2015-06-14T09:11:14Z</time>
      </trkpt>
      <trkpt lat="43.71411" lon="3.60115">
        <ele>175.58</ele>
        <time>2015-06-14T09:11:18Z</time>
      </trkpt>
      <trkpt lat="43.71405" lon="3.60104">
        <ele>174.14</ele>
        <time>2015-06-14T09:11:20Z</time>
      </trkpt>
      <trkpt lat="43.71403" lon="3.60097">
        <ele>172.69</ele>
        <time>2015-06-14T09:11:21Z</time>
      </trkpt>
      <trkpt lat="43.71403" lon="3.6009">
        <ele>171.25</ele>
        <time>2015-06-14T09:11:22Z</time>
      </trkpt>
      <trkpt lat="43.71406" lon="3.60084">
        <ele>169.81</ele>
        <time>2015-06-14T09:11:23Z</time>
      </trkpt>
      <trkpt lat="43.71411" lon="3.60077">
        <ele>168.85</ele>
        <time>2015-06-14T09:11:24Z</time>
      </trkpt>
      <trkpt lat="43.71422" lon="3.6006">
        <ele>167.41</ele>
        <time>2015-06-14T09:11:27Z</time>
      </trkpt>
      <trkpt lat="43.71424" lon="3.60055">
        <ele>166.93</ele>
        <time>2015-06-14T09:11:28Z</time>
      </trkpt>
      <trkpt lat="43.71425" lon="3.6005">
        <ele>166.93</ele>
        <time>2015-06-14T09:11:29Z</time>
      </trkpt>
      <trkpt lat="43.71425" lon="3.60045">
        <ele>165</ele>
        <time>2015-06-14T09:11:30Z</time>
      </trkpt>
      <trkpt lat="43.71422" lon="3.60036">
        <ele>163.08</ele>
        <time>2015-06-14T09:11:32Z</time>
      </trkpt>
      <trkpt lat="43.7142" lon="3.60031">
        <ele>162.12</ele>
        <time>2015-06-14T09:11:33Z</time>
      </trkpt>
      <trkpt lat="43.71417" lon="3.60027">
        <ele>161.16</ele>
        <time>2015-06-14T09:11:34Z</time>
      </trkpt>
      <trkpt lat="43.71413" lon="3.60022">
        <ele>159.72</ele>
        <time>2015-06-14T09:11:35Z</time>
      </trkpt>
      <trkpt lat="43.71409" lon="3.60017">
        <ele>158.75</ele>
        <time>2015-06-14T09:11:36Z</time>
      </trkpt>
      <trkpt lat="43.71407" lon="3.60011">
        <ele>158.27</ele>
        <time>2015-06-14T09:11:37Z</time>
      </trkpt>
      <trkpt lat="43.71406" lon="3.60005">
        <ele>157.31</ele>
        <time>2015-06-14T09:11:38Z</time>
      </trkpt>
      <trkpt lat="43.71406" lon="3.6">
        <ele>156.83</ele>
        <time>2015-06-14T09:11:39Z</time>
      </trkpt>
      <trkpt lat="43.71406" lon="3.59996">
        <ele>156.35</ele>
        <time>2015-06-14T09:11:40Z</time>
      </trkpt>
      <trkpt lat="43.71405" lon="3.5999">
        <ele>154.91</ele>
        <time>2015-06-14T09:11:41Z</time>
      </trkpt>
      <trkpt lat="43.71404" lon="3.59986">
        <ele>153.95</ele>
        <time>2015-06-14T09:11:42Z</time>
      </trkpt>
      <trkpt lat="43.71403" lon="3.59983">
        <ele>153.47</ele>
        <time>2015-06-14T09:11:43Z</time>
      </trkpt>
      <trkpt lat="43.71406" lon="3.59966">
        <ele>152.99</ele>
        <time>2015-06-14T09:11:47Z</time>
      </trkpt>
      <trkpt lat="43.7141" lon="3.59962">
        <ele>151.54</ele>
        <time>2015-06-14T09:11:48Z</time>
      </trkpt>
      <trkpt lat="43.71414" lon="3.59951">
        <ele>149.62</ele>
        <time>2015-06-14T09:11:50Z</time>
      </trkpt>
      <trkpt lat="43.71413" lon="3.59944">
        <ele>149.14</ele>
        <time>2015-06-14T09:11:51Z</time>
      </trkpt>
      <trkpt lat="43.71413" lon="3.59937">
        <ele>147.7</ele>
        <time>2015-06-14T09:11:52Z</time>
      </trkpt>
      <trkpt lat="43.71415" lon="3.59929">
        <ele>146.74</ele>
        <time>2015-06-14T09:11:53Z</time>
      </trkpt>
      <trkpt lat="43.71417" lon="3.59921">
        <ele>146.26</ele>
        <time>2015-06-14T09:11:54Z</time>
      </trkpt>
      <trkpt lat="43.71421" lon="3.59913">
        <ele>145.78</ele>
        <time>2015-06-14T09:11:55Z</time>
      </trkpt>
      <trkpt lat="43.71424" lon="3.59905">
        <ele>145.78</ele>
        <time>2015-06-14T09:11:56Z</time>
      </trkpt>
      <trkpt lat="43.71426" lon="3.59896">
        <ele>144.82</ele>
        <time>2015-06-14T09:11:57Z</time>
      </trkpt>
      <trkpt lat="43.71427" lon="3.59887">
        <ele>144.82</ele>
        <time>2015-06-14T09:11:58Z</time>
      </trkpt>
      <trkpt lat="43.71428" lon="3.59877">
        <ele>144.34</ele>
        <time>2015-06-14T09:11:59Z</time>
      </trkpt>
      <trkpt lat="43.71428" lon="3.59867">
        <ele>144.34</ele>
        <time>2015-06-14T09:12:00Z</time>
      </trkpt>
      <trkpt lat="43.71428" lon="3.59857">
        <ele>144.34</ele>
        <time>2015-06-14T09:12:01Z</time>
      </trkpt>
      <trkpt lat="43.71427" lon="3.59836">
        <ele>142.89</ele>
        <time>2015-06-14T09:12:03Z</time>
      </trkpt>
      <trkpt lat="43.71428" lon="3.59826">
        <ele>141.93</ele>
        <time>2015-06-14T09:12:04Z</time>
      </trkpt>
      <trkpt lat="43.71431" lon="3.59806">
        <ele>140.49</ele>
        <time>2015-06-14T09:12:06Z</time>
      </trkpt>
      <trkpt lat="43.71434" lon="3.59795">
        <ele>138.57</ele>
        <time>2015-06-14T09:12:07Z</time>
      </trkpt>
      <trkpt lat="43.71435" lon="3.59784">
        <ele>138.57</ele>
        <time>2015-06-14T09:12:08Z</time>
      </trkpt>
      <trkpt lat="43.71443" lon="3.59738">
        <ele>134.72</ele>
        <time>2015-06-14T09:12:12Z</time>
      </trkpt>
      <trkpt lat="43.71445" lon="3.59714">
        <ele>133.76</ele>
        <time>2015-06-14T09:12:14Z</time>
      </trkpt>
      <trkpt lat="43.71445" lon="3.59702">
        <ele>133.28</ele>
        <time>2015-06-14T09:12:15Z</time>
      </trkpt>
      <trkpt lat="43.71445" lon="3.59691">
        <ele>131.84</ele>
        <time>2015-06-14T09:12:16Z</time>
      </trkpt>
      <trkpt lat="43.71445" lon="3.59679">
        <ele>131.84</ele>
        <time>2015-06-14T09:12:17Z</time>
      </trkpt>
      <trkpt lat="43.71446" lon="3.59667">
        <ele>130.88</ele>
        <time>2015-06-14T09:12:18Z</time>
      </trkpt>
      <trkpt lat="43.71448" lon="3.59632">
        <ele>127.99</ele>
        <time>2015-06-14T09:12:21Z</time>
      </trkpt>
      <trkpt lat="43.71448" lon="3.5962">
        <ele>127.99</ele>
        <time>2015-06-14T09:12:22Z</time>
      </trkpt>
      <trkpt lat="43.71449" lon="3.59608">
        <ele>126.07</ele>
        <time>2015-06-14T09:12:23Z</time>
      </trkpt>
      <trkpt lat="43.71451" lon="3.59596">
        <ele>125.11</ele>
        <time>2015-06-14T09:12:24Z</time>
      </trkpt>
      <trkpt lat="43.71452" lon="3.59585">
        <ele>124.15</ele>
        <time>2015-06-14T09:12:25Z</time>
      </trkpt>
      <trkpt lat="43.71453" lon="3.59574">
        <ele>123.19</ele>
        <time>2015-06-14T09:12:26Z</time>
      </trkpt>
      <trkpt lat="43.71454" lon="3.59563">
        <ele>122.22</ele>
        <time>2015-06-14T09:12:27Z</time>
      </trkpt>
      <trkpt lat="43.71456" lon="3.59542">
        <ele>119.82</ele>
        <time>2015-06-14T09:12:29Z</time>
      </trkpt>
      <trkpt lat="43.71459" lon="3.59531">
        <ele>119.34</ele>
        <time>2015-06-14T09:12:30Z</time>
      </trkpt>
      <trkpt lat="43.71468" lon="3.59504">
        <ele>117.42</ele>
        <time>2015-06-14T09:12:33Z</time>
      </trkpt>
      <trkpt lat="43.7147" lon="3.59487">
        <ele>119.34</ele>
        <time>2015-06-14T09:12:37Z</time>
      </trkpt>
      <trkpt lat="43.71469" lon="3.59484">
        <ele>119.34</ele>
        <time>2015-06-14T09:12:38Z</time>
      </trkpt>
      <trkpt lat="43.71468" lon="3.59477">
        <ele>119.82</ele>
        <time>2015-06-14T09:12:44Z</time>
      </trkpt>
      <trkpt lat="43.71466" lon="3.59473">
        <ele>119.82</ele>
        <time>2015-06-14T09:12:51Z</time>
      </trkpt>
      <trkpt lat="43.71465" lon="3.59471">
        <ele>120.3</ele>
        <time>2015-06-14T09:12:53Z</time>
      </trkpt>
      <trkpt lat="43.71461" lon="3.59459">
        <ele>120.78</ele>
        <time>2015-06-14T09:13:02Z</time>
      </trkpt>
      <trkpt lat="43.71457" lon="3.59448">
        <ele>122.22</ele>
        <time>2015-06-14T09:13:12Z</time>
      </trkpt>
      <trkpt lat="43.71453" lon="3.59435">
        <ele>123.67</ele>
        <time>2015-06-14T09:13:22Z</time>
      </trkpt>
      <trkpt lat="43.71448" lon="3.59425">
        <ele>125.11</ele>
        <time>2015-06-14T09:13:31Z</time>
      </trkpt>
      <trkpt lat="43.71444" lon="3.59418">
        <ele>126.07</ele>
        <time>2015-06-14T09:13:38Z</time>
      </trkpt>
      <trkpt lat="43.71441" lon="3.59414">
        <ele>126.55</ele>
        <time>2015-06-14T09:13:45Z</time>
      </trkpt>
      <trkpt lat="43.71436" lon="3.59406">
        <ele>127.99</ele>
        <time>2015-06-14T09:13:53Z</time>
      </trkpt>
      <trkpt lat="43.71432" lon="3.59397">
        <ele>128.47</ele>
        <time>2015-06-14T09:14:02Z</time>
      </trkpt>
      <trkpt lat="43.71428" lon="3.59388">
        <ele>129.43</ele>
        <time>2015-06-14T09:14:11Z</time>
      </trkpt>
      <trkpt lat="43.71425" lon="3.59382">
        <ele>130.4</ele>
        <time>2015-06-14T09:14:19Z</time>
      </trkpt>
      <trkpt lat="43.71422" lon="3.59377">
        <ele>131.36</ele>
        <time>2015-06-14T09:14:26Z</time>
      </trkpt>
      <trkpt lat="43.71418" lon="3.59369">
        <ele>132.32</ele>
        <time>2015-06-14T09:14:36Z</time>
      </trkpt>
      <trkpt lat="43.71418" lon="3.59367">
        <ele>132.32</ele>
        <time>2015-06-14T09:14:51Z</time>
      </trkpt>
      <trkpt lat="43.71414" lon="3.5936">
        <ele>132.8</ele>
        <time>2015-06-14T09:14:58Z</time>
      </trkpt>
      <trkpt lat="43.7141" lon="3.59353">
        <ele>134.24</ele>
        <time>2015-06-14T09:15:06Z</time>
      </trkpt>
      <trkpt lat="43.7141" lon="3.59343">
        <ele>135.68</ele>
        <time>2015-06-14T09:15:14Z</time>
      </trkpt>
      <trkpt lat="43.71412" lon="3.59332">
        <ele>136.64</ele>
        <time>2015-06-14T09:15:23Z</time>
      </trkpt>
      <trkpt lat="43.71414" lon="3.59317">
        <ele>138.09</ele>
        <time>2015-06-14T09:15:34Z</time>
      </trkpt>
      <trkpt lat="43.71415" lon="3.59308">
        <ele>139.05</ele>
        <time>2015-06-14T09:15:42Z</time>
      </trkpt>
      <trkpt lat="43.71415" lon="3.59299">
        <ele>139.53</ele>
        <time>2015-06-14T09:15:50Z</time>
      </trkpt>
      <trkpt lat="43.71416" lon="3.59291">
        <ele>140.49</ele>
        <time>2015-06-14T09:15:58Z</time>
      </trkpt>
      <trkpt lat="43.71417" lon="3.59285">
        <ele>140.97</ele>
        <time>2015-06-14T09:16:06Z</time>
      </trkpt>
      <trkpt lat="43.7142" lon="3.59277">
        <ele>141.93</ele>
        <time>2015-06-14T09:16:15Z</time>
      </trkpt>
      <trkpt lat="43.71425" lon="3.59263">
        <ele>143.37</ele>
        <time>2015-06-14T09:16:27Z</time>
      </trkpt>
      <trkpt lat="43.71429" lon="3.59252">
        <ele>143.85</ele>
        <time>2015-06-14T09:16:37Z</time>
      </trkpt>
      <trkpt lat="43.7143" lon="3.59249">
        <ele>144.34</ele>
        <time>2015-06-14T09:16:44Z</time>
      </trkpt>
      <trkpt lat="43.71431" lon="3.5925">
        <ele>142.89</ele>
        <time>2015-06-14T09:16:52Z</time>
      </trkpt>
      <trkpt lat="43.71431" lon="3.5925">
        <ele>142.89</ele>
        <time>2015-06-14T09:17:13Z</time>
      </trkpt>
      <trkpt lat="43.71431" lon="3.59248">
        <ele>142.89</ele>
        <time>2015-06-14T09:17:35Z</time>
      </trkpt>
      <trkpt lat="43.71431" lon="3.59247">
        <ele>142.89</ele>
        <time>2015-06-14T09:17:55Z</time>
      </trkpt>
      <trkpt lat="43.71432" lon="3.59248">
        <ele>142.89</ele>
        <time>2015-06-14T09:18:22Z</time>
      </trkpt>
      <trkpt lat="43.71433" lon="3.5925">
        <ele>143.37</ele>
        <time>2015-06-14T09:18:45Z</time>
      </trkpt>
      <trkpt lat="43.71434" lon="3.5925">
        <ele>142.89</ele>
        <time>2015-06-14T09:19:04Z</time>
      </trkpt>
      <trkpt lat="43.71435" lon="3.5925">
        <ele>142.89</ele>
        <time>2015-06-14T09:19:24Z</time>
      </trkpt>
      <trkpt lat="43.71435" lon="3.59251">
        <ele>142.89</ele>
        <time>2015-06-14T09:19:45Z</time>
      </trkpt>
      <trkpt lat="43.71435" lon="3.59252">
        <ele>142.89</ele>
        <time>2015-06-14T09:20:00Z</time>
      </trkpt>
      <trkpt lat="43.71434" lon="3.59251">
        <ele>142.89</ele>
        <time>2015-06-14T09:20:23Z</time>
      </trkpt>
      <trkpt lat="43.71433" lon="3.59251">
        <ele>142.89</ele>
        <time>2015-06-14T09:20:42Z</time>
      </trkpt>
      <trkpt lat="43.71432" lon="3.59251">
        <ele>143.37</ele>
        <time>2015-06-14T09:21:03Z</time>
      </trkpt>
      <trkpt lat="43.71431" lon="3.59252">
        <ele>143.37</ele>
        <time>2015-06-14T09:21:25Z</time>
      </trkpt>
      <trkpt lat="43.7143" lon="3.59254">
        <ele>143.37</ele>
        <time>2015-06-14T09:21:42Z</time>
      </trkpt>
      <trkpt lat="43.7143" lon="3.59251">
        <ele>143.37</ele>
        <time>2015-06-14T09:22:07Z</time>
      </trkpt>
      <trkpt lat="43.71431" lon="3.5925">
        <ele>143.37</ele>
        <time>2015-06-14T09:22:23Z</time>
      </trkpt>
      <trkpt lat="43.7143" lon="3.59248">
        <ele>143.37</ele>
        <time>2015-06-14T09:22:43Z</time>
      </trkpt>
      <trkpt lat="43.7143" lon="3.59247">
        <ele>143.37</ele>
        <time>2015-06-14T09:23:01Z</time>
      </trkpt>
      <trkpt lat="43.71433" lon="3.59248">
        <ele>143.37</ele>
        <time>2015-06-14T09:23:19Z</time>
      </trkpt>
      <trkpt lat="43.71433" lon="3.5925">
        <ele>143.37</ele>
        <time>2015-06-14T09:23:43Z</time>
      </trkpt>
      <trkpt lat="43.71433" lon="3.59249">
        <ele>143.37</ele>
        <time>2015-06-14T09:24:03Z</time>
      </trkpt>
      <trkpt lat="43.71433" lon="3.59249">
        <ele>143.85</ele>
        <time>2015-06-14T09:24:27Z</time>
      </trkpt>
      <trkpt lat="43.71431" lon="3.59249">
        <ele>143.85</ele>
        <time>2015-06-14T09:24:45Z</time>
      </trkpt>
      <trkpt lat="43.7143" lon="3.5925">
        <ele>143.37</ele>
        <time>2015-06-14T09:24:58Z</time>
      </trkpt>
      <trkpt lat="43.71429" lon="3.5925">
        <ele>143.37</ele>
        <time>2015-06-14T09:25:19Z</time>
      </trkpt>
      <trkpt lat="43.7143" lon="3.5925">
        <ele>143.37</ele>
        <time>2015-06-14T09:25:31Z</time>
      </trkpt>
      <trkpt lat="43.71429" lon="3.5925">
        <ele>143.37</ele>
        <time>2015-06-14T09:25:49Z</time>
      </trkpt>
      <trkpt lat="43.7143" lon="3.59249">
        <ele>143.37</ele>
        <time>2015-06-14T09:26:11Z</time>
      </trkpt>
      <trkpt lat="43.71429" lon="3.59251">
        <ele>143.37</ele>
        <time>2015-06-14T09:26:26Z</time>
      </trkpt>
      <trkpt lat="43.7143" lon="3.59251">
        <ele>143.37</ele>
        <time>2015-06-14T09:26:45Z</time>
      </trkpt>
      <trkpt lat="43.71431" lon="3.59248">
        <ele>144.34</ele>
        <time>2015-06-14T09:27:07Z</time>
      </trkpt>
      <trkpt lat="43.71432" lon="3.59245">
        <ele>145.3</ele>
        <time>2015-06-14T09:27:15Z</time>
      </trkpt>
      <trkpt lat="43.71434" lon="3.59244">
        <ele>145.3</ele>
        <time>2015-06-14T09:27:25Z</time>
      </trkpt>
      <trkpt lat="43.71435" lon="3.59243">
        <ele>145.3</ele>
        <time>2015-06-14T09:27:31Z</time>
      </trkpt>
      <trkpt lat="43.71436" lon="3.59242">
        <ele>145.3</ele>
        <time>2015-06-14T09:27:32Z</time>
      </trkpt>
      <trkpt lat="43.71437" lon="3.5924">
        <ele>145.3</ele>
        <time>2015-06-14T09:27:33Z</time>
      </trkpt>
      <trkpt lat="43.71444" lon="3.5923">
        <ele>145.3</ele>
        <time>2015-06-14T09:27:38Z</time>
      </trkpt>
      <trkpt lat="43.71446" lon="3.5923">
        <ele>145.3</ele>
        <time>2015-06-14T09:27:39Z</time>
      </trkpt>
      <trkpt lat="43.71448" lon="3.5923">
        <ele>145.3</ele>
        <time>2015-06-14T09:27:40Z</time>
      </trkpt>
      <trkpt lat="43.7145" lon="3.5923">
        <ele>145.3</ele>
        <time>2015-06-14T09:27:41Z</time>
      </trkpt>
      <trkpt lat="43.71453" lon="3.5923">
        <ele>145.3</ele>
        <time>2015-06-14T09:27:42Z</time>
      </trkpt>
      <trkpt lat="43.71465" lon="3.59221">
        <ele>145.78</ele>
        <time>2015-06-14T09:27:48Z</time>
      </trkpt>
      <trkpt lat="43.71476" lon="3.59209">
        <ele>145.78</ele>
        <time>2015-06-14T09:27:52Z</time>
      </trkpt>
      <trkpt lat="43.71485" lon="3.59194">
        <ele>143.37</ele>
        <time>2015-06-14T09:27:55Z</time>
      </trkpt>
      <trkpt lat="43.71502" lon="3.59164">
        <ele>139.53</ele>
        <time>2015-06-14T09:28:00Z</time>
      </trkpt>
      <trkpt lat="43.71506" lon="3.59157">
        <ele>138.57</ele>
        <time>2015-06-14T09:28:01Z</time>
      </trkpt>
      <trkpt lat="43.71511" lon="3.59151">
        <ele>137.61</ele>
        <time>2015-06-14T09:28:02Z</time>
      </trkpt>
      <trkpt lat="43.71516" lon="3.59144">
        <ele>137.61</ele>
        <time>2015-06-14T09:28:03Z</time>
      </trkpt>
      <trkpt lat="43.71525" lon="3.59131">
        <ele>136.16</ele>
        <time>2015-06-14T09:28:05Z</time>
      </trkpt>
      <trkpt lat="43.7153" lon="3.59119">
        <ele>134.72</ele>
        <time>2015-06-14T09:28:07Z</time>
      </trkpt>
      <trkpt lat="43.71531" lon="3.59111">
        <ele>133.76</ele>
        <time>2015-06-14T09:28:08Z</time>
      </trkpt>
      <trkpt lat="43.71529" lon="3.59107">
        <ele>133.76</ele>
        <time>2015-06-14T09:28:09Z</time>
      </trkpt>
      <trkpt lat="43.71525" lon="3.59104">
        <ele>133.76</ele>
        <time>2015-06-14T09:28:10Z</time>
      </trkpt>
      <trkpt lat="43.71522" lon="3.59104">
        <ele>133.76</ele>
        <time>2015-06-14T09:28:11Z</time>
      </trkpt>
      <trkpt lat="43.71518" lon="3.59103">
        <ele>133.76</ele>
        <time>2015-06-14T09:28:12Z</time>
      </trkpt>
      <trkpt lat="43.71491" lon="3.59103">
        <ele>132.8</ele>
        <time>2015-06-14T09:28:17Z</time>
      </trkpt>
      <trkpt lat="43.71452" lon="3.59106">
        <ele>129.43</ele>
        <time>2015-06-14T09:28:24Z</time>
      </trkpt>
      <trkpt lat="43.71445" lon="3.59106">
        <ele>129.43</ele>
        <time>2015-06-14T09:28:25Z</time>
      </trkpt>
      <trkpt lat="43.71433" lon="3.59105">
        <ele>128.95</ele>
        <time>2015-06-14T09:28:27Z</time>
      </trkpt>
      <trkpt lat="43.71427" lon="3.59103">
        <ele>128.95</ele>
        <time>2015-06-14T09:28:28Z</time>
      </trkpt>
      <trkpt lat="43.71422" lon="3.59101">
        <ele>128.95</ele>
        <time>2015-06-14T09:28:29Z</time>
      </trkpt>
      <trkpt lat="43.71418" lon="3.59098">
        <ele>128.95</ele>
        <time>2015-06-14T09:28:30Z</time>
      </trkpt>
      <trkpt lat="43.71415" lon="3.59094">
        <ele>130.4</ele>
        <time>2015-06-14T09:28:31Z</time>
      </trkpt>
      <trkpt lat="43.71413" lon="3.5909">
        <ele>130.4</ele>
        <time>2015-06-14T09:28:32Z</time>
      </trkpt>
      <trkpt lat="43.71411" lon="3.59084">
        <ele>130.4</ele>
        <time>2015-06-14T09:28:33Z</time>
      </trkpt>
      <trkpt lat="43.71409" lon="3.59079">
        <ele>130.4</ele>
        <time>2015-06-14T09:28:34Z</time>
      </trkpt>
      <trkpt lat="43.71404" lon="3.59048">
        <ele>130.88</ele>
        <time>2015-06-14T09:28:40Z</time>
      </trkpt>
      <trkpt lat="43.71396" lon="3.59019">
        <ele>131.36</ele>
        <time>2015-06-14T09:28:46Z</time>
      </trkpt>
      <trkpt lat="43.71388" lon="3.58999">
        <ele>131.36</ele>
        <time>2015-06-14T09:28:50Z</time>
      </trkpt>
      <trkpt lat="43.7137" lon="3.58961">
        <ele>131.36</ele>
        <time>2015-06-14T09:28:58Z</time>
      </trkpt>
      <trkpt lat="43.71348" lon="3.58931">
        <ele>131.36</ele>
        <time>2015-06-14T09:29:06Z</time>
      </trkpt>
      <trkpt lat="43.71337" lon="3.58918">
        <ele>131.36</ele>
        <time>2015-06-14T09:29:10Z</time>
      </trkpt>
      <trkpt lat="43.71333" lon="3.58915">
        <ele>131.36</ele>
        <time>2015-06-14T09:29:11Z</time>
      </trkpt>
      <trkpt lat="43.7133" lon="3.58911">
        <ele>131.36</ele>
        <time>2015-06-14T09:29:12Z</time>
      </trkpt>
      <trkpt lat="43.71307" lon="3.58883">
        <ele>131.84</ele>
        <time>2015-06-14T09:29:21Z</time>
      </trkpt>
      <trkpt lat="43.71288" lon="3.58848">
        <ele>129.43</ele>
        <time>2015-06-14T09:29:28Z</time>
      </trkpt>
      <trkpt lat="43.71273" lon="3.58819">
        <ele>125.59</ele>
        <time>2015-06-14T09:29:32Z</time>
      </trkpt>
      <trkpt lat="43.71264" lon="3.58804">
        <ele>124.63</ele>
        <time>2015-06-14T09:29:34Z</time>
      </trkpt>
      <trkpt lat="43.71247" lon="3.58781">
        <ele>121.26</ele>
        <time>2015-06-14T09:29:37Z</time>
      </trkpt>
      <trkpt lat="43.71223" lon="3.58748">
        <ele>117.42</ele>
        <time>2015-06-14T09:29:41Z</time>
      </trkpt>
      <trkpt lat="43.71217" lon="3.5874">
        <ele>115.5</ele>
        <time>2015-06-14T09:29:42Z</time>
      </trkpt>
      <trkpt lat="43.7121" lon="3.58732">
        <ele>114.53</ele>
        <time>2015-06-14T09:29:43Z</time>
      </trkpt>
      <trkpt lat="43.71204" lon="3.58723">
        <ele>113.57</ele>
        <time>2015-06-14T09:29:44Z</time>
      </trkpt>
      <trkpt lat="43.71198" lon="3.58713">
        <ele>113.09</ele>
        <time>2015-06-14T09:29:45Z</time>
      </trkpt>
      <trkpt lat="43.71193" lon="3.58703">
        <ele>111.65</ele>
        <time>2015-06-14T09:29:46Z</time>
      </trkpt>
      <trkpt lat="43.7119" lon="3.58694">
        <ele>111.65</ele>
        <time>2015-06-14T09:29:47Z</time>
      </trkpt>
      <trkpt lat="43.71184" lon="3.58676">
        <ele>111.65</ele>
        <time>2015-06-14T09:29:49Z</time>
      </trkpt>
      <trkpt lat="43.71183" lon="3.58667">
        <ele>110.69</ele>
        <time>2015-06-14T09:29:50Z</time>
      </trkpt>
      <trkpt lat="43.71183" lon="3.58658">
        <ele>110.69</ele>
        <time>2015-06-14T09:29:51Z</time>
      </trkpt>
      <trkpt lat="43.71187" lon="3.58574">
        <ele>109.73</ele>
        <time>2015-06-14T09:30:00Z</time>
      </trkpt>
      <trkpt lat="43.71185" lon="3.58539">
        <ele>111.17</ele>
        <time>2015-06-14T09:30:04Z</time>
      </trkpt>
      <trkpt lat="43.71184" lon="3.5853">
        <ele>111.17</ele>
        <time>2015-06-14T09:30:05Z</time>
      </trkpt>
      <trkpt lat="43.71174" lon="3.5848">
        <ele>112.13</ele>
        <time>2015-06-14T09:30:12Z</time>
      </trkpt>
      <trkpt lat="43.71163" lon="3.58432">
        <ele>113.57</ele>
        <time>2015-06-14T09:30:21Z</time>
      </trkpt>
      <trkpt lat="43.71152" lon="3.58388">
        <ele>114.53</ele>
        <time>2015-06-14T09:30:30Z</time>
      </trkpt>
      <trkpt lat="43.71143" lon="3.58346">
        <ele>116.94</ele>
        <time>2015-06-14T09:30:38Z</time>
      </trkpt>
      <trkpt lat="43.71143" lon="3.58341">
        <ele>116.46</ele>
        <time>2015-06-14T09:30:39Z</time>
      </trkpt>
      <trkpt lat="43.71138" lon="3.58301">
        <ele>117.42</ele>
        <time>2015-06-14T09:30:47Z</time>
      </trkpt>
      <trkpt lat="43.71124" lon="3.58252">
        <ele>117.42</ele>
        <time>2015-06-14T09:30:57Z</time>
      </trkpt>
      <trkpt lat="43.71113" lon="3.58207">
        <ele>118.38</ele>
        <time>2015-06-14T09:31:06Z</time>
      </trkpt>
      <trkpt lat="43.71102" lon="3.58191">
        <ele>118.38</ele>
        <time>2015-06-14T09:31:11Z</time>
      </trkpt>
      <trkpt lat="43.71099" lon="3.58191">
        <ele>118.38</ele>
        <time>2015-06-14T09:31:12Z</time>
      </trkpt>
      <trkpt lat="43.71072" lon="3.58197">
        <ele>115.5</ele>
        <time>2015-06-14T09:31:17Z</time>
      </trkpt>
      <trkpt lat="43.71044" lon="3.58201">
        <ele>112.13</ele>
        <time>2015-06-14T09:31:21Z</time>
      </trkpt>
      <trkpt lat="43.71036" lon="3.582">
        <ele>111.65</ele>
        <time>2015-06-14T09:31:22Z</time>
      </trkpt>
      <trkpt lat="43.71012" lon="3.58198">
        <ele>109.25</ele>
        <time>2015-06-14T09:31:25Z</time>
      </trkpt>
      <trkpt lat="43.71004" lon="3.582">
        <ele>108.29</ele>
        <time>2015-06-14T09:31:26Z</time>
      </trkpt>
      <trkpt lat="43.70995" lon="3.58203">
        <ele>107.32</ele>
        <time>2015-06-14T09:31:27Z</time>
      </trkpt>
      <trkpt lat="43.70987" lon="3.58206">
        <ele>107.32</ele>
        <time>2015-06-14T09:31:28Z</time>
      </trkpt>
      <trkpt lat="43.70978" lon="3.58207">
        <ele>105.88</ele>
        <time>2015-06-14T09:31:29Z</time>
      </trkpt>
      <trkpt lat="43.70969" lon="3.58208">
        <ele>105.4</ele>
        <time>2015-06-14T09:31:30Z</time>
      </trkpt>
      <trkpt lat="43.70951" lon="3.58208">
        <ele>104.44</ele>
        <time>2015-06-14T09:31:32Z</time>
      </trkpt>
      <trkpt lat="43.70942" lon="3.58206">
        <ele>103.48</ele>
        <time>2015-06-14T09:31:33Z</time>
      </trkpt>
      <trkpt lat="43.70913" lon="3.58199">
        <ele>100.6</ele>
        <time>2015-06-14T09:31:36Z</time>
      </trkpt>
      <trkpt lat="43.70904" lon="3.58197">
        <ele>100.11</ele>
        <time>2015-06-14T09:31:37Z</time>
      </trkpt>
      <trkpt lat="43.70884" lon="3.58198">
        <ele>98.67</ele>
        <time>2015-06-14T09:31:39Z</time>
      </trkpt>
      <trkpt lat="43.70855" lon="3.58201">
        <ele>97.23</ele>
        <time>2015-06-14T09:31:42Z</time>
      </trkpt>
      <trkpt lat="43.70789" lon="3.582">
        <ele>93.87</ele>
        <time>2015-06-14T09:31:49Z</time>
      </trkpt>
      <trkpt lat="43.7076" lon="3.582">
        <ele>92.42</ele>
        <time>2015-06-14T09:31:52Z</time>
      </trkpt>
      <trkpt lat="43.70723" lon="3.58197">
        <ele>90.02</ele>
        <time>2015-06-14T09:31:56Z</time>
      </trkpt>
      <trkpt lat="43.70705" lon="3.58192">
        <ele>89.06</ele>
        <time>2015-06-14T09:31:58Z</time>
      </trkpt>
      <trkpt lat="43.70696" lon="3.58188">
        <ele>88.1</ele>
        <time>2015-06-14T09:31:59Z</time>
      </trkpt>
      <trkpt lat="43.70688" lon="3.58183">
        <ele>88.1</ele>
        <time>2015-06-14T09:32:00Z</time>
      </trkpt>
      <trkpt lat="43.70621" lon="3.58156">
        <ele>85.21</ele>
        <time>2015-06-14T09:32:08Z</time>
      </trkpt>
      <trkpt lat="43.70565" lon="3.58147">
        <ele>84.25</ele>
        <time>2015-06-14T09:32:15Z</time>
      </trkpt>
      <trkpt lat="43.70518" lon="3.58147">
        <ele>83.77</ele>
        <time>2015-06-14T09:32:22Z</time>
      </trkpt>
      <trkpt lat="43.70494" lon="3.58147">
        <ele>83.77</ele>
        <time>2015-06-14T09:32:27Z</time>
      </trkpt>
      <trkpt lat="43.70479" lon="3.58151">
        <ele>82.81</ele>
        <time>2015-06-14T09:32:32Z</time>
      </trkpt>
      <trkpt lat="43.70474" lon="3.5815">
        <ele>82.81</ele>
        <time>2015-06-14T09:32:33Z</time>
      </trkpt>
      <trkpt lat="43.70444" lon="3.58135">
        <ele>81.85</ele>
        <time>2015-06-14T09:32:39Z</time>
      </trkpt>
      <trkpt lat="43.70425" lon="3.58125">
        <ele>81.85</ele>
        <time>2015-06-14T09:32:43Z</time>
      </trkpt>
      <trkpt lat="43.70381" lon="3.58102">
        <ele>80.89</ele>
        <time>2015-06-14T09:32:53Z</time>
      </trkpt>
      <trkpt lat="43.70334" lon="3.58095">
        <ele>79.45</ele>
        <time>2015-06-14T09:33:03Z</time>
      </trkpt>
      <trkpt lat="43.70306" lon="3.5809">
        <ele>79.45</ele>
        <time>2015-06-14T09:33:09Z</time>
      </trkpt>
      <trkpt lat="43.70272" lon="3.58095">
        <ele>78</ele>
        <time>2015-06-14T09:33:16Z</time>
      </trkpt>
      <trkpt lat="43.70262" lon="3.581">
        <ele>77.04</ele>
        <time>2015-06-14T09:33:18Z</time>
      </trkpt>
      <trkpt lat="43.70225" lon="3.58114">
        <ele>76.56</ele>
        <time>2015-06-14T09:33:25Z</time>
      </trkpt>
      <trkpt lat="43.7022" lon="3.58114">
        <ele>76.08</ele>
        <time>2015-06-14T09:33:26Z</time>
      </trkpt>
      <trkpt lat="43.70214" lon="3.58112">
        <ele>76.08</ele>
        <time>2015-06-14T09:33:27Z</time>
      </trkpt>
      <trkpt lat="43.70209" lon="3.58109">
        <ele>76.08</ele>
        <time>2015-06-14T09:33:28Z</time>
      </trkpt>
      <trkpt lat="43.702" lon="3.58103">
        <ele>76.08</ele>
        <time>2015-06-14T09:33:30Z</time>
      </trkpt>
      <trkpt lat="43.70195" lon="3.581">
        <ele>76.08</ele>
        <time>2015-06-14T09:33:31Z</time>
      </trkpt>
      <trkpt lat="43.7019" lon="3.58099">
        <ele>76.08</ele>
        <time>2015-06-14T09:33:32Z</time>
      </trkpt>
      <trkpt lat="43.70185" lon="3.58099">
        <ele>76.08</ele>
        <time>2015-06-14T09:33:33Z</time>
      </trkpt>
      <trkpt lat="43.70179" lon="3.581">
        <ele>75.6</ele>
        <time>2015-06-14T09:33:34Z</time>
      </trkpt>
      <trkpt lat="43.70149" lon="3.58105">
        <ele>74.64</ele>
        <time>2015-06-14T09:33:40Z</time>
      </trkpt>
      <trkpt lat="43.70143" lon="3.58108">
        <ele>74.64</ele>
        <time>2015-06-14T09:33:41Z</time>
      </trkpt>
      <trkpt lat="43.70138" lon="3.58111">
        <ele>73.68</ele>
        <time>2015-06-14T09:33:42Z</time>
      </trkpt>
      <trkpt lat="43.70097" lon="3.58141">
        <ele>72.24</ele>
        <time>2015-06-14T09:33:49Z</time>
      </trkpt>
      <trkpt lat="43.70074" lon="3.58156">
        <ele>72.24</ele>
        <time>2015-06-14T09:33:54Z</time>
      </trkpt>
      <trkpt lat="43.70071" lon="3.58159">
        <ele>72.24</ele>
        <time>2015-06-14T09:33:55Z</time>
      </trkpt>
      <trkpt lat="43.70068" lon="3.58163">
        <ele>72.24</ele>
        <time>2015-06-14T09:33:56Z</time>
      </trkpt>
      <trkpt lat="43.70064" lon="3.58167">
        <ele>72.24</ele>
        <time>2015-06-14T09:33:57Z</time>
      </trkpt>
      <trkpt lat="43.70061" lon="3.58173">
        <ele>72.24</ele>
        <time>2015-06-14T09:33:58Z</time>
      </trkpt>
      <trkpt lat="43.70058" lon="3.58178">
        <ele>72.24</ele>
        <time>2015-06-14T09:33:59Z</time>
      </trkpt>
      <trkpt lat="43.70053" lon="3.58189">
        <ele>73.68</ele>
        <time>2015-06-14T09:34:01Z</time>
      </trkpt>
      <trkpt lat="43.7003" lon="3.5823">
        <ele>74.16</ele>
        <time>2015-06-14T09:34:09Z</time>
      </trkpt>
      <trkpt lat="43.70002" lon="3.58264">
        <ele>72.72</ele>
        <time>2015-06-14T09:34:17Z</time>
      </trkpt>
      <trkpt lat="43.69988" lon="3.58274">
        <ele>72.72</ele>
        <time>2015-06-14T09:34:20Z</time>
      </trkpt>
      <trkpt lat="43.69983" lon="3.58277">
        <ele>72.72</ele>
        <time>2015-06-14T09:34:21Z</time>
      </trkpt>
      <trkpt lat="43.69978" lon="3.58278">
        <ele>72.72</ele>
        <time>2015-06-14T09:34:22Z</time>
      </trkpt>
      <trkpt lat="43.69973" lon="3.58278">
        <ele>72.72</ele>
        <time>2015-06-14T09:34:23Z</time>
      </trkpt>
      <trkpt lat="43.69968" lon="3.58277">
        <ele>72.72</ele>
        <time>2015-06-14T09:34:24Z</time>
      </trkpt>
      <trkpt lat="43.69963" lon="3.58275">
        <ele>72.72</ele>
        <time>2015-06-14T09:34:25Z</time>
      </trkpt>
      <trkpt lat="43.69958" lon="3.58273">
        <ele>72.72</ele>
        <time>2015-06-14T09:34:26Z</time>
      </trkpt>
      <trkpt lat="43.69934" lon="3.58262">
        <ele>72.72</ele>
        <time>2015-06-14T09:34:31Z</time>
      </trkpt>
      <trkpt lat="43.69929" lon="3.58261">
        <ele>72.72</ele>
        <time>2015-06-14T09:34:32Z</time>
      </trkpt>
      <trkpt lat="43.69923" lon="3.5826">
        <ele>72.72</ele>
        <time>2015-06-14T09:34:33Z</time>
      </trkpt>
      <trkpt lat="43.69918" lon="3.5826">
        <ele>72.24</ele>
        <time>2015-06-14T09:34:34Z</time>
      </trkpt>
      <trkpt lat="43.69912" lon="3.58261">
        <ele>72.24</ele>
        <time>2015-06-14T09:34:35Z</time>
      </trkpt>
      <trkpt lat="43.69906" lon="3.58262">
        <ele>71.76</ele>
        <time>2015-06-14T09:34:36Z</time>
      </trkpt>
      <trkpt lat="43.699" lon="3.58264">
        <ele>71.76</ele>
        <time>2015-06-14T09:34:37Z</time>
      </trkpt>
      <trkpt lat="43.69894" lon="3.58267">
        <ele>70.79</ele>
        <time>2015-06-14T09:34:38Z</time>
      </trkpt>
      <trkpt lat="43.69853" lon="3.58293">
        <ele>70.31</ele>
        <time>2015-06-14T09:34:46Z</time>
      </trkpt>
      <trkpt lat="43.69832" lon="3.58316">
        <ele>70.31</ele>
        <time>2015-06-14T09:34:51Z</time>
      </trkpt>
      <trkpt lat="43.69828" lon="3.58318">
        <ele>70.31</ele>
        <time>2015-06-14T09:34:52Z</time>
      </trkpt>
      <trkpt lat="43.69822" lon="3.58319">
        <ele>70.31</ele>
        <time>2015-06-14T09:34:53Z</time>
      </trkpt>
      <trkpt lat="43.69774" lon="3.58315">
        <ele>70.31</ele>
        <time>2015-06-14T09:35:02Z</time>
      </trkpt>
      <trkpt lat="43.69727" lon="3.58311">
        <ele>69.35</ele>
        <time>2015-06-14T09:35:11Z</time>
      </trkpt>
      <trkpt lat="43.69679" lon="3.58309">
        <ele>68.39</ele>
        <time>2015-06-14T09:35:20Z</time>
      </trkpt>
      <trkpt lat="43.69642" lon="3.58307">
        <ele>68.39</ele>
        <time>2015-06-14T09:35:27Z</time>
      </trkpt>
      <trkpt lat="43.69637" lon="3.58307">
        <ele>68.39</ele>
        <time>2015-06-14T09:35:28Z</time>
      </trkpt>
      <trkpt lat="43.69617" lon="3.58311">
        <ele>68.39</ele>
        <time>2015-06-14T09:35:32Z</time>
      </trkpt>
      <trkpt lat="43.69603" lon="3.58318">
        <ele>68.39</ele>
        <time>2015-06-14T09:35:35Z</time>
      </trkpt>
      <trkpt lat="43.69568" lon="3.58339">
        <ele>68.39</ele>
        <time>2015-06-14T09:35:42Z</time>
      </trkpt>
      <trkpt lat="43.6952" lon="3.58372">
        <ele>68.39</ele>
        <time>2015-06-14T09:35:52Z</time>
      </trkpt>
      <trkpt lat="43.69478" lon="3.58398">
        <ele>68.39</ele>
        <time>2015-06-14T09:36:01Z</time>
      </trkpt>
      <trkpt lat="43.6946" lon="3.5841">
        <ele>68.39</ele>
        <time>2015-06-14T09:36:05Z</time>
      </trkpt>
      <trkpt lat="43.69408" lon="3.58462">
        <ele>68.39</ele>
        <time>2015-06-14T09:36:18Z</time>
      </trkpt>
      <trkpt lat="43.69401" lon="3.5847">
        <ele>69.35</ele>
        <time>2015-06-14T09:36:20Z</time>
      </trkpt>
      <trkpt lat="43.69394" lon="3.58477">
        <ele>69.35</ele>
        <time>2015-06-14T09:36:22Z</time>
      </trkpt>
      <trkpt lat="43.6939" lon="3.58479">
        <ele>69.35</ele>
        <time>2015-06-14T09:36:23Z</time>
      </trkpt>
      <trkpt lat="43.69386" lon="3.5848">
        <ele>69.83</ele>
        <time>2015-06-14T09:36:24Z</time>
      </trkpt>
      <trkpt lat="43.69382" lon="3.58479">
        <ele>69.83</ele>
        <time>2015-06-14T09:36:25Z</time>
      </trkpt>
      <trkpt lat="43.69377" lon="3.58477">
        <ele>69.83</ele>
        <time>2015-06-14T09:36:26Z</time>
      </trkpt>
      <trkpt lat="43.69353" lon="3.58467">
        <ele>69.83</ele>
        <time>2015-06-14T09:36:32Z</time>
      </trkpt>
      <trkpt lat="43.69317" lon="3.58459">
        <ele>68.87</ele>
        <time>2015-06-14T09:36:40Z</time>
      </trkpt>
      <trkpt lat="43.69268" lon="3.58442">
        <ele>68.39</ele>
        <time>2015-06-14T09:36:51Z</time>
      </trkpt>
      <trkpt lat="43.69255" lon="3.58437">
        <ele>68.39</ele>
        <time>2015-06-14T09:36:55Z</time>
      </trkpt>
      <trkpt lat="43.69254" lon="3.58435">
        <ele>68.39</ele>
        <time>2015-06-14T09:36:56Z</time>
      </trkpt>
      <trkpt lat="43.69252" lon="3.58432">
        <ele>68.39</ele>
        <time>2015-06-14T09:36:57Z</time>
      </trkpt>
      <trkpt lat="43.69251" lon="3.58429">
        <ele>68.39</ele>
        <time>2015-06-14T09:36:58Z</time>
      </trkpt>
      <trkpt lat="43.6925" lon="3.58425">
        <ele>68.39</ele>
        <time>2015-06-14T09:36:59Z</time>
      </trkpt>
      <trkpt lat="43.69248" lon="3.5842">
        <ele>68.39</ele>
        <time>2015-06-14T09:37:00Z</time>
      </trkpt>
      <trkpt lat="43.69245" lon="3.58395">
        <ele>68.39</ele>
        <time>2015-06-14T09:37:04Z</time>
      </trkpt>
      <trkpt lat="43.69244" lon="3.58329">
        <ele>66.47</ele>
        <time>2015-06-14T09:37:14Z</time>
      </trkpt>
      <trkpt lat="43.69231" lon="3.58267">
        <ele>64.55</ele>
        <time>2015-06-14T09:37:22Z</time>
      </trkpt>
      <trkpt lat="43.69221" lon="3.58237">
        <ele>63.58</ele>
        <time>2015-06-14T09:37:26Z</time>
      </trkpt>
      <trkpt lat="43.69216" lon="3.58231">
        <ele>63.1</ele>
        <time>2015-06-14T09:37:27Z</time>
      </trkpt>
      <trkpt lat="43.69211" lon="3.58228">
        <ele>63.58</ele>
        <time>2015-06-14T09:37:28Z</time>
      </trkpt>
      <trkpt lat="43.69206" lon="3.58227">
        <ele>63.1</ele>
        <time>2015-06-14T09:37:29Z</time>
      </trkpt>
      <trkpt lat="43.692" lon="3.58227">
        <ele>63.1</ele>
        <time>2015-06-14T09:37:30Z</time>
      </trkpt>
      <trkpt lat="43.69194" lon="3.58229">
        <ele>63.58</ele>
        <time>2015-06-14T09:37:31Z</time>
      </trkpt>
      <trkpt lat="43.69189" lon="3.58231">
        <ele>63.58</ele>
        <time>2015-06-14T09:37:32Z</time>
      </trkpt>
      <trkpt lat="43.69184" lon="3.58234">
        <ele>63.58</ele>
        <time>2015-06-14T09:37:33Z</time>
      </trkpt>
      <trkpt lat="43.69179" lon="3.58237">
        <ele>63.58</ele>
        <time>2015-06-14T09:37:34Z</time>
      </trkpt>
      <trkpt lat="43.69143" lon="3.58258">
        <ele>65.03</ele>
        <time>2015-06-14T09:37:41Z</time>
      </trkpt>
      <trkpt lat="43.69097" lon="3.58289">
        <ele>65.99</ele>
        <time>2015-06-14T09:37:50Z</time>
      </trkpt>
      <trkpt lat="43.69052" lon="3.58331">
        <ele>66.95</ele>
        <time>2015-06-14T09:37:59Z</time>
      </trkpt>
      <trkpt lat="43.69001" lon="3.58375">
        <ele>68.39</ele>
        <time>2015-06-14T09:38:09Z</time>
      </trkpt>
      <trkpt lat="43.68954" lon="3.584">
        <ele>68.39</ele>
        <time>2015-06-14T09:38:18Z</time>
      </trkpt>
      <trkpt lat="43.6891" lon="3.58425">
        <ele>68.39</ele>
        <time>2015-06-14T09:38:27Z</time>
      </trkpt>
      <trkpt lat="43.68868" lon="3.58446">
        <ele>68.39</ele>
        <time>2015-06-14T09:38:36Z</time>
      </trkpt>
      <trkpt lat="43.68818" lon="3.58474">
        <ele>68.39</ele>
        <time>2015-06-14T09:38:47Z</time>
      </trkpt>
      <trkpt lat="43.68787" lon="3.58492">
        <ele>68.39</ele>
        <time>2015-06-14T09:38:55Z</time>
      </trkpt>
      <trkpt lat="43.68786" lon="3.58492">
        <ele>68.39</ele>
        <time>2015-06-14T09:39:01Z</time>
      </trkpt>
      <trkpt lat="43.68784" lon="3.58493">
        <ele>68.39</ele>
        <time>2015-06-14T09:39:02Z</time>
      </trkpt>
      <trkpt lat="43.68766" lon="3.58503">
        <ele>68.39</ele>
        <time>2015-06-14T09:39:07Z</time>
      </trkpt>
      <trkpt lat="43.6873" lon="3.58523">
        <ele>68.39</ele>
        <time>2015-06-14T09:39:15Z</time>
      </trkpt>
      <trkpt lat="43.68686" lon="3.58545">
        <ele>68.39</ele>
        <time>2015-06-14T09:39:25Z</time>
      </trkpt>
      <trkpt lat="43.68671" lon="3.58551">
        <ele>68.39</ele>
        <time>2015-06-14T09:39:28Z</time>
      </trkpt>
      <trkpt lat="43.68666" lon="3.58551">
        <ele>68.39</ele>
        <time>2015-06-14T09:39:29Z</time>
      </trkpt>
      <trkpt lat="43.68663" lon="3.58547">
        <ele>68.39</ele>
        <time>2015-06-14T09:39:30Z</time>
      </trkpt>
      <trkpt lat="43.68661" lon="3.58542">
        <ele>68.39</ele>
        <time>2015-06-14T09:39:31Z</time>
      </trkpt>
      <trkpt lat="43.68659" lon="3.58536">
        <ele>68.39</ele>
        <time>2015-06-14T09:39:32Z</time>
      </trkpt>
      <trkpt lat="43.68656" lon="3.58525">
        <ele>68.39</ele>
        <time>2015-06-14T09:39:34Z</time>
      </trkpt>
      <trkpt lat="43.68653" lon="3.58522">
        <ele>68.39</ele>
        <time>2015-06-14T09:39:35Z</time>
      </trkpt>
      <trkpt lat="43.6865" lon="3.58521">
        <ele>68.39</ele>
        <time>2015-06-14T09:39:36Z</time>
      </trkpt>
      <trkpt lat="43.68646" lon="3.58521">
        <ele>68.39</ele>
        <time>2015-06-14T09:39:37Z</time>
      </trkpt>
      <trkpt lat="43.68642" lon="3.58522">
        <ele>68.39</ele>
        <time>2015-06-14T09:39:38Z</time>
      </trkpt>
      <trkpt lat="43.68637" lon="3.58523">
        <ele>68.39</ele>
        <time>2015-06-14T09:39:39Z</time>
      </trkpt>
      <trkpt lat="43.68625" lon="3.58526">
        <ele>68.39</ele>
        <time>2015-06-14T09:39:42Z</time>
      </trkpt>
      <trkpt lat="43.68622" lon="3.58524">
        <ele>68.39</ele>
        <time>2015-06-14T09:39:43Z</time>
      </trkpt>
      <trkpt lat="43.68619" lon="3.58519">
        <ele>68.39</ele>
        <time>2015-06-14T09:39:44Z</time>
      </trkpt>
      <trkpt lat="43.68617" lon="3.58514">
        <ele>68.39</ele>
        <time>2015-06-14T09:39:45Z</time>
      </trkpt>
      <trkpt lat="43.68616" lon="3.58509">
        <ele>68.39</ele>
        <time>2015-06-14T09:39:46Z</time>
      </trkpt>
      <trkpt lat="43.68602" lon="3.5845">
        <ele>66.95</ele>
        <time>2015-06-14T09:39:54Z</time>
      </trkpt>
      <trkpt lat="43.686" lon="3.58442">
        <ele>66.95</ele>
        <time>2015-06-14T09:39:55Z</time>
      </trkpt>
      <trkpt lat="43.68596" lon="3.58436">
        <ele>66.95</ele>
        <time>2015-06-14T09:39:56Z</time>
      </trkpt>
      <trkpt lat="43.68591" lon="3.58433">
        <ele>66.95</ele>
        <time>2015-06-14T09:39:57Z</time>
      </trkpt>
      <trkpt lat="43.68586" lon="3.58431">
        <ele>66.95</ele>
        <time>2015-06-14T09:39:58Z</time>
      </trkpt>
      <trkpt lat="43.68581" lon="3.5843">
        <ele>66.95</ele>
        <time>2015-06-14T09:39:59Z</time>
      </trkpt>
      <trkpt lat="43.68576" lon="3.5843">
        <ele>66.95</ele>
        <time>2015-06-14T09:40:00Z</time>
      </trkpt>
      <trkpt lat="43.68572" lon="3.5843">
        <ele>66.95</ele>
        <time>2015-06-14T09:40:01Z</time>
      </trkpt>
      <trkpt lat="43.6857" lon="3.58432">
        <ele>66.95</ele>
        <time>2015-06-14T09:40:02Z</time>
      </trkpt>
      <trkpt lat="43.6857" lon="3.58432">
        <ele>68.39</ele>
        <time>2015-06-14T09:40:05Z</time>
      </trkpt>
      <trkpt lat="43.6857" lon="3.58433">
        <ele>68.87</ele>
        <time>2015-06-14T09:40:13Z</time>
      </trkpt>
      <trkpt lat="43.6857" lon="3.58434">
        <ele>68.87</ele>
        <time>2015-06-14T09:40:21Z</time>
      </trkpt>
      <trkpt lat="43.6857" lon="3.58433">
        <ele>68.87</ele>
        <time>2015-06-14T09:40:29Z</time>
      </trkpt>
      <trkpt lat="43.68571" lon="3.58434">
        <ele>68.87</ele>
        <time>2015-06-14T09:40:36Z</time>
      </trkpt>
      <trkpt lat="43.68569" lon="3.58435">
        <ele>68.87</ele>
        <time>2015-06-14T09:40:45Z</time>
      </trkpt>
    </trkseg>
  </trk>
</gpx>